[[{"header":{"parameterUnit":"m.s-1","parameterCategory":1,"la1":30.6,"la2":28.766,"lo1":-90.7593,"lo2":-88.6598,"dy":0.0162,"dx":0.0183,"nx":116,"ny":114,"refTime":"2023-05-23T00:00:00:Z","depth":0,"parameterNumber":2,"parameterNumberName":"U-component_of_WINDS"},"data":[0.0,0.0,0.0,0.0,0.0,0.0,0.0,0.0,0.0,0.0,0.0,0.0,0.0,0.0,0.0,0.0,0.0,0.0,0.0,0.0,0.0,0.0,0.0,0.0,0.0,0.0,0.0,0.0,0.0,0.0,0.0,0.0,0.0,0.0,0.0,0.0,0.0,0.0,0.0,0.0,0.0,0.0,0.0,0.0,0.0,0.0,0.0,0.0,0.0,0.0,0.0,0.0,0.0,0.0,0.0,0.0,0.0,0.0,0.0,0.0,0.0,0.0,0.0,0.0,0.0,0.0,0.0,0.0,0.0,0.0,0.0,0.0,0.0,0.0,0.0,0.0,0.0,0.0,0.0,0.0,0.0,0.0,0.0,0.0,0.0,0.0,0.0,0.0,0.0,0.0,0.0,0.0,0.0,0.0,0.0,0.0,0.0,0.0,0.0,0.0,0.0,0.0,0.0,0.0,0.0,0.0,0.0,0.0,0.0,0.0,0.0,0.0,0.0,0.0,0.0,0.0,0.0,0.0,0.0,0.0,0.0,0.0,0.0,0.0,0.0,0.0,0.0,0.0,0.0,0.0,0.0,0.0,0.0,0.0,0.0,0.0,0.0,0.0,0.0,0.0,0.0,0.0,0.0,0.0,0.0,0.0,0.0,0.0,0.0,0.0,0.0,0.0,0.0,0.0,0.0,0.0,0.0,0.0,0.0,0.0,0.0,0.0,0.0,0.0,0.0,0.0,0.0,0.0,0.0,0.0,0.0,0.0,0.0,0.0,0.0,0.0,0.0,0.0,0.0,0.0,0.0,0.0,0.0,0.0,0.0,0.0,0.0,0.0,0.0,0.0,0.0,0.0,0.0,0.0,0.0,0.0,0.0,0.0,0.0,0.0,0.0,0.0,0.0,0.0,0.0,0.0,0.0,0.0,0.0,0.0,0.0,0.0,0.0,0.0,0.0,0.0,0.0,0.0,0.0,0.0,0.0,0.0,0.0,0.0,0.0,0.0,0.0,0.0,0.0,0.0,0.0,0.0,0.0,0.0,0.0,0.0,0.0,0.0,0.0,0.0,0.0,0.0,0.0,0.0,0.0,0.0,0.0,0.0,0.0,0.0,0.0,0.0,0.0,0.0,0.0,0.0,0.0,0.0,0.0,0.0,0.0,0.0,0.0,0.0,0.0,0.0,0.0,0.0,0.0,0.0,0.0,0.0,0.0,0.0,0.0,0.0,0.0,0.0,0.0,0.0,0.0,0.0,0.0,0.0,0.0,0.0,0.0,0.0,0.0,0.0,0.0,0.0,0.0,0.0,0.0,0.0,0.0,0.0,0.0,0.0,0.0,0.0,0.0,0.0,0.0,0.0,0.0,0.0,0.0,0.0,0.0,0.0,0.0,0.0,0.0,0.0,0.0,0.0,0.0,0.0,0.0,0.0,0.0,0.0,0.0,0.0,0.0,0.0,0.0,0.0,0.0,0.0,0.0,0.0,0.0,0.0,0.0,0.0,0.0,0.0,0.0,0.0,0.0,0.0,0.0,0.0,0.0,0.0,0.0,0.0,0.0,0.0,0.0,0.0,0.0,0.0,0.0,0.0,0.0,0.0,0.0,0.0,0.0,0.0,0.0,0.0,0.0,0.0,0.0,0.0,0.0,0.0,0.0,0.0,0.0,0.0,0.0,0.0,0.0,0.0,0.0,0.0,0.0,0.0,0.0,0.0,0.0,0.0,0.0,0.0,0.0,0.0,0.0,0.0,0.0,0.0,0.0,0.0,0.0,0.0,0.0,0.0,0.0,0.0,0.0,0.0,0.0,0.0,0.0,0.0,0.0,0.0,0.0,0.0,0.0,0.0,0.0,0.0,0.0,0.0,0.0,0.0,0.0,0.0,0.0,0.0,0.0,0.0,0.0,0.0,0.0,0.0,0.0,0.0,0.0,0.0,0.0,0.0,0.0,0.0,0.0,0.0,0.0,0.0,0.0,0.0,0.0,0.0,0.0,0.0,0.0,0.0,0.0,0.0,0.0,0.0,0.0,0.0,0.0,0.0,0.0,0.0,0.0,0.0,0.0,0.0,0.0,0.0,0.0,0.0,0.0,0.0,0.0,0.0,0.0,0.0,0.0,0.0,0.0,0.0,0.0,0.0,0.0,0.0,0.0,0.0,0.0,0.0,0.0,0.0,0.0,0.0,0.0,0.0,0.0,0.0,0.0,0.0,0.0,0.0,0.0,0.0,0.0,0.0,0.0,0.0,0.0,0.0,0.0,0.0,0.0,0.0,0.0,0.0,0.0,0.0,0.0,0.0,0.0,0.0,0.0,0.0,0.0,0.0,0.0,0.0,0.0,0.0,0.0,0.0,0.0,0.0,0.0,0.0,0.0,0.0,0.0,0.0,0.0,0.0,0.0,0.0,0.0,0.0,0.0,0.0,0.0,0.0,0.0,0.0,0.0,0.0,0.0,0.0,0.0,0.0,0.0,0.0,0.0,0.0,0.0,0.0,0.0,0.0,0.0,0.0,0.0,0.0,0.0,0.0,0.0,0.0,0.0,0.0,0.0,0.0,0.0,0.0,0.0,0.0,0.0,0.0,0.0,0.0,0.0,0.0,0.0,0.0,0.0,0.0,0.0,0.0,0.0,0.0,0.0,0.0,0.0,0.0,0.0,0.0,0.0,0.0,0.0,0.0,0.0,0.0,0.0,0.0,0.0,0.0,0.0,0.0,0.0,0.0,0.0,0.0,0.0,0.0,0.0,0.0,0.0,0.0,0.0,0.0,0.0,0.0,0.0,0.0,0.0,0.0,0.0,0.0,0.0,0.0,0.0,0.0,0.0,0.0,0.0,0.0,0.0,0.0,0.0,0.0,0.0,0.0,0.0,0.0,0.0,0.0,0.0,0.0,0.0,0.0,0.0,0.0,0.0,0.0,0.0,0.0,0.0,0.0,0.0,0.0,0.0,0.0,0.0,0.0,0.0,0.0,0.0,0.0,0.0,0.0,0.0,0.0,0.0,0.0,0.0,0.0,0.0,0.0,0.0,0.0,0.0,0.0,0.0,0.0,0.0,0.0,0.0,0.0,0.0,0.0,0.0,0.0,0.0,0.0,0.0,0.0,0.0,0.0,0.0,0.0,0.0,0.0,0.0,0.0,0.0,0.0,0.0,0.0,0.0,0.0,0.0,0.0,0.0,0.0,0.0,0.0,0.0,0.0,0.0,0.0,0.0,0.0,0.0,0.0,0.0,0.0,0.0,0.0,0.0,0.0,0.0,0.0,0.0,0.0,0.0,0.0,0.0,0.0,0.0,0.0,0.0,0.0,0.0,0.0,0.0,0.0,0.0,0.0,0.0,0.0,0.0,0.0,0.0,0.0,0.0,0.0,0.0,0.0,0.0,0.0,0.0,0.0,0.0,0.0,0.0,0.0,0.0,0.0,0.0,0.0,0.0,0.0,0.0,0.0,0.0,0.0,0.0,0.0,0.0,0.0,0.0,0.0,0.0,0.0,0.0,0.0,0.0,0.0,0.0,0.0,0.0,0.0,0.0,0.0,0.0,0.0,0.0,0.0,0.0,0.0,0.0,0.0,0.0,0.0,0.0,0.0,0.0,0.0,0.0,0.0,0.0,0.0,0.0,0.0,0.0,0.0,0.0,0.0,0.0,0.0,0.0,0.0,0.0,0.0,0.0,0.0,0.0,0.0,0.0,0.0,0.0,0.0,0.0,0.0,0.0,0.0,0.0,0.0,0.0,0.0,0.0,0.0,0.0,0.0,0.0,0.0,0.0,0.0,0.0,0.0,0.0,0.0,0.0,0.0,0.0,0.0,0.0,0.0,0.0,0.0,0.0,0.0,0.0,0.0,0.0,0.0,0.0,0.0,0.0,0.0,0.0,0.0,0.0,0.0,0.0,0.0,0.0,0.0,0.0,0.0,0.0,0.0,0.0,0.0,0.0,0.0,0.0,0.0,0.0,0.0,0.0,0.0,0.0,0.0,0.0,0.0,0.0,0.0,0.0,0.0,0.0,0.0,0.0,0.0,0.0,0.0,0.0,0.0,0.0,0.0,0.0,0.0,0.0,0.0,0.0,0.0,0.0,0.0,0.0,0.0,0.0,0.0,0.0,0.0,0.0,0.0,0.0,0.0,0.0,0.0,0.0,0.0,0.0,0.0,0.0,0.0,0.0,0.0,0.0,0.0,0.0,0.0,0.0,0.0,0.0,0.0,0.0,0.0,0.0,0.0,0.0,0.0,0.0,0.0,0.0,0.0,0.0,0.0,0.0,0.0,0.0,0.0,0.0,0.0,0.0,0.0,0.0,0.0,0.0,0.0,0.0,0.0,0.0,0.0,0.0,0.0,0.0,0.0,0.0,0.0,0.0,0.0,0.0,0.0,0.0,0.0,0.0,0.0,0.0,0.0,0.0,0.0,0.0,0.0,0.0,0.0,0.0,0.0,0.0,0.0,0.0,0.0,0.0,0.0,0.0,0.0,0.0,0.0,0.0,0.0,0.0,0.0,0.0,0.0,0.0,0.0,0.0,0.0,0.0,0.0,0.0,0.0,0.0,0.0,0.0,0.0,0.0,0.0,0.0,0.0,0.0,0.0,0.0,0.0,0.0,0.0,0.0,0.0,0.0,0.0,0.0,0.0,0.0,0.0,0.0,0.0,0.0,0.0,0.0,0.0,0.0,0.0,0.0,0.0,0.0,0.0,0.0,0.0,0.0,0.0,0.0,0.0,0.0,0.0,0.0,0.0,0.0,0.0,0.0,0.0,0.0,0.0,0.0,0.0,0.0,0.0,0.0,0.0,0.0,0.0,0.0,0.0,0.0,0.0,0.0,0.0,0.0,0.0,0.0,0.0,0.0,0.0,0.0,0.0,0.0,0.0,0.0,0.0,0.0,0.0,0.0,0.0,0.0,0.0,0.0,0.0,0.0,0.0,0.0,0.0,0.0,0.0,0.0,0.0,0.0,0.0,0.0,0.0,0.0,0.0,0.0,0.0,0.0,0.0,0.0,0.0,0.0,0.0,0.0,0.0,0.0,0.0,0.0,0.0,0.0,0.0,0.0,0.0,0.0,0.0,0.0,0.0,0.0,0.0,0.0,0.0,0.0,0.0,0.0,0.0,0.0,0.0,0.0,0.0,0.0,0.0,0.0,0.0,0.0,0.0,0.0,0.0,0.0,0.0,0.0,0.0,0.0,0.0,0.0,0.0,0.0,0.0,0.0,0.0,0.0,0.0,0.0,0.0,0.0,0.0,0.0,0.0,0.0,0.0,0.0,0.0,0.0,0.0,0.0,0.0,0.0,0.0,0.0,0.0,0.0,0.0,0.0,0.0,0.0,0.0,0.0,0.0,0.0,0.0,0.0,0.0,0.0,0.0,0.0,0.0,0.0,0.0,0.0,0.0,0.0,0.0,0.0,0.0,0.0,0.0,0.0,0.0,0.0,0.0,0.0,0.0,0.0,0.0,0.0,0.0,0.0,0.0,0.0,0.0,0.0,0.0,0.0,0.0,0.0,0.0,0.0,0.0,0.0,0.0,0.0,0.0,0.0,0.0,0.0,0.0,0.0,0.0,0.0,0.0,0.0,0.0,0.0,0.0,0.0,0.0,0.0,0.0,0.0,0.0,0.0,0.0,0.0,0.0,0.0,0.0,0.0,0.0,0.0,0.0,0.0,0.0,0.0,0.0,0.0,0.0,0.0,0.0,0.0,0.0,0.0,0.0,0.0,0.0,0.0,0.0,0.0,0.0,0.0,0.0,0.0,0.0,0.0,0.0,0.0,0.0,0.0,0.0,0.0,0.0,0.0,0.0,0.0,0.0,0.0,0.0,0.0,0.0,0.0,0.0,0.0,0.0,0.0,0.0,0.0,0.0,0.0,0.0,0.0,0.0,0.0,0.0,0.0,0.0,0.0,0.0,0.0,0.0,0.0,0.0,0.0,0.0,0.0,0.0,0.0,0.0,0.0,0.0,0.0,0.0,0.0,0.0,0.0,0.0,0.0,0.0,0.0,0.0,0.0,0.0,0.0,0.0,0.0,0.0,0.0,0.0,0.0,0.0,0.0,0.0,0.0,0.0,0.0,0.0,0.0,0.0,0.0,0.0,0.0,0.0,0.0,0.0,2.4245,0.0,0.0,0.0,0.0,0.0,0.0,0.0,0.0,0.0,0.0,0.0,0.0,0.0,0.0,0.0,0.0,0.0,0.0,0.0,0.0,0.0,0.0,0.0,0.0,0.0,0.0,0.0,0.0,0.0,0.0,0.0,0.0,0.0,0.0,0.0,0.0,0.0,0.0,2.4567,2.4893,2.4865,2.4567,2.5259,2.6094,2.7067,0.0,0.0,0.0,0.0,0.0,0.0,0.0,0.0,0.0,0.0,0.0,0.0,0.0,0.0,0.0,0.0,0.0,0.0,0.0,0.0,0.0,0.0,0.0,0.0,0.0,0.0,0.0,0.0,0.0,0.0,0.0,0.0,0.0,0.0,0.0,0.0,0.0,0.0,0.0,0.0,0.0,0.0,0.0,0.0,0.0,0.0,0.0,0.0,0.0,0.0,0.0,0.0,0.0,0.0,0.0,0.0,0.0,0.0,0.0,0.0,0.0,0.0,0.0,0.0,0.0,0.0,0.0,0.0,0.0,0.0,0.0,2.4121,0.0,0.0,0.0,0.0,0.0,0.0,0.0,0.0,0.0,0.0,0.0,0.0,0.0,0.0,0.0,0.0,0.0,0.0,0.0,0.0,0.0,0.0,0.0,2.5107,2.4528,2.4667,2.4105,2.3946,0.0,0.0,0.0,0.0,0.0,0.0,0.0,2.3855,2.3927,2.3897,2.3927,2.3985,2.4102,2.4481,2.5063,2.5783,2.6371,0.0,0.0,0.0,0.0,0.0,0.0,0.0,0.0,0.0,0.0,0.0,0.0,0.0,0.0,0.0,0.0,0.0,0.0,0.0,0.0,0.0,0.0,0.0,0.0,0.0,0.0,0.0,0.0,0.0,0.0,0.0,0.0,0.0,0.0,0.0,0.0,0.0,0.0,0.0,0.0,0.0,0.0,0.0,0.0,0.0,0.0,0.0,0.0,0.0,0.0,0.0,0.0,0.0,0.0,0.0,0.0,0.0,0.0,0.0,0.0,0.0,0.0,0.0,2.3352,2.3221,2.3072,2.2772,2.2366,2.1986,2.3234,2.3348,2.2682,0.0,0.0,0.0,0.0,0.0,0.0,0.0,0.0,0.0,0.0,0.0,0.0,0.0,0.0,0.0,0.0,0.0,0.0,0.0,0.0,0.0,0.0,2.4121,2.3771,2.3382,2.2768,2.2408,2.247,0.0,0.0,0.0,0.0,0.0,2.2187,2.2871,2.3168,2.3047,2.3168,2.3543,2.4102,2.3603,2.3708,2.4408,2.5522,2.6055,2.6204,0.0,0.0,0.0,0.0,0.0,0.0,0.0,0.0,0.0,0.0,0.0,0.0,0.0,0.0,0.0,0.0,0.0,0.0,0.0,0.0,0.0,0.0,0.0,0.0,0.0,0.0,0.0,0.0,0.0,0.0,0.0,0.0,0.0,0.0,0.0,0.0,0.0,0.0,0.0,0.0,0.0,2.9848,2.9783,0.0,0.0,0.0,0.0,0.0,0.0,0.0,0.0,0.0,0.0,0.0,0.0,0.0,0.0,2.3207,2.2955,2.2592,2.2156,2.1846,2.1616,2.1428,2.125,2.1028,2.0805,2.0547,0.0,2.1918,2.1651,0.0,0.0,0.0,0.0,0.0,0.0,0.0,0.0,0.0,0.0,0.0,0.0,0.0,0.0,0.0,0.0,0.0,0.0,0.0,0.0,0.0,2.2731,2.2194,2.2002,2.1721,2.1522,2.1522,2.125,0.0,0.0,0.0,2.1542,2.1877,2.2261,2.261,2.3017,2.3078,2.3245,2.3543,2.3258,2.3258,2.3573,2.4494,2.5272,2.5921,2.6233,0.0,0.0,0.0,0.0,0.0,0.0,0.0,0.0,0.0,0.0,0.0,0.0,0.0,0.0,0.0,0.0,0.0,0.0,0.0,0.0,0.0,0.0,0.0,0.0,0.0,0.0,0.0,0.0,0.0,0.0,0.0,0.0,0.0,0.0,0.0,0.0,0.0,0.0,0.0,3.01,2.9631,2.9496,2.9171,2.8919,0.0,0.0,0.0,0.0,0.0,0.0,0.0,0.0,0.0,2.3542,2.3378,2.2839,2.1896,2.1741,2.1502,2.1167,2.0709,2.0452,2.0355,2.0042,1.9715,1.9408,1.9177,1.9288,1.9694,2.0052,1.9987,1.9684,0.0,0.0,0.0,0.0,0.0,1.9716,0.0,0.0,0.0,0.0,0.0,0.0,0.0,0.0,0.0,0.0,0.0,0.0,2.239,2.1573,2.1071,2.1092,2.0933,2.0837,2.0837,2.0645,2.0441,2.029,2.053,2.0888,2.1403,2.1753,2.2102,2.2463,2.2823,2.2896,2.272,2.2927,2.3017,2.3078,2.3573,2.4408,2.5467,2.5784,2.6233,2.6727,0.0,0.0,0.0,0.0,0.0,0.0,0.0,0.0,0.0,0.0,0.0,0.0,0.0,0.0,0.0,0.0,0.0,0.0,0.0,0.0,0.0,0.0,0.0,0.0,0.0,0.0,0.0,0.0,0.0,0.0,0.0,0.0,0.0,0.0,0.0,0.0,0.0,2.9603,2.9057,2.8881,2.8488,2.8137,0.0,0.0,0.0,0.0,0.0,0.0,2.4443,2.4343,2.3677,2.2255,2.2175,2.1769,2.0965,2.0933,2.0773,2.0434,2.0012,1.9767,1.97,1.9191,1.8758,1.8364,1.8221,1.791,1.7545,1.8523,1.8388,1.7638,1.819,1.8089,1.7702,1.8065,1.8257,1.8335,0.0,0.0,0.0,0.0,0.0,0.0,0.0,0.0,0.0,0.0,0.0,2.1753,2.125,2.1008,2.0955,2.1092,2.0516,2.0161,2.0161,1.9396,1.8908,1.8898,1.9752,2.0188,2.0096,2.1329,2.1583,2.0719,2.2056,2.2347,2.1678,2.2377,2.28,2.2909,2.2939,2.3424,2.4263,2.5411,2.5921,2.6002,2.6594,0.0,0.0,0.0,0.0,0.0,0.0,0.0,0.0,0.0,0.0,0.0,0.0,0.0,0.0,0.0,0.0,0.0,0.0,0.0,0.0,0.0,0.0,0.0,0.0,0.0,0.0,0.0,0.0,0.0,0.0,0.0,0.0,0.0,0.0,0.0,0.0,0.0,0.0,2.7675,2.706,0.0,0.0,0.0,0.0,2.5384,2.5356,2.4828,2.3621,2.3373,2.2639,2.1219,2.104,2.0827,2.0514,2.0525,2.0363,2.0017,1.9858,1.9689,1.9499,1.8895,1.8418,1.8,1.7473,1.6811,1.6149,1.6985,1.727,1.7166,1.6508,1.6533,1.6862,1.621,1.628,1.6638,0.0,0.0,0.0,0.0,0.0,0.0,0.0,0.0,2.3297,2.2935,2.1095,1.9759,1.9563,1.8803,1.8546,1.9056,1.8445,1.8254,1.8734,1.811,1.7636,1.7504,1.7939,1.8569,1.9535,2.1118,2.1778,2.1431,2.1944,2.2319,2.2571,2.2491,2.273,2.3275,2.3009,2.3047,2.3407,2.435,2.5118,2.5756,2.6084,2.6447,0.0,0.0,0.0,0.0,0.0,0.0,0.0,0.0,0.0,0.0,0.0,0.0,0.0,0.0,0.0,0.0,0.0,0.0,0.0,0.0,0.0,0.0,0.0,0.0,0.0,0.0,0.0,0.0,0.0,0.0,0.0,0.0,0.0,0.0,0.0,0.0,0.0,2.703,2.6291,0.0,2.5576,2.4673,2.4045,2.4029,2.3327,2.2781,2.2412,2.2329,2.1948,2.1194,2.1103,2.0745,2.0041,2.0041,1.9732,1.9095,1.8902,1.8562,1.8073,1.7742,1.7338,1.6959,1.6947,1.6499,1.5805,1.5978,1.6084,1.6061,1.5665,1.5621,1.5754,1.5515,1.5515,1.5692,0.0,0.0,0.0,0.0,0.0,0.0,0.0,0.0,2.2183,2.2157,1.9965,1.8425,1.8445,1.7541,1.7104,1.7594,1.7173,1.7125,1.7647,1.6955,1.6619,1.6858,1.7309,1.8172,1.9487,2.0873,2.1423,2.1015,2.1505,2.2024,2.2548,2.245,2.2838,2.3671,2.341,2.317,2.3059,2.3807,2.4609,2.5425,2.5701,2.6192,2.6884,0.0,0.0,0.0,0.0,0.0,0.0,0.0,0.0,0.0,0.0,0.0,0.0,0.0,0.0,0.0,0.0,0.0,0.0,0.0,0.0,0.0,0.0,0.0,0.0,0.0,0.0,0.0,0.0,0.0,0.0,0.0,0.0,0.0,0.0,0.0,2.6414,2.6177,2.5398,2.4684,2.4262,2.3416,2.2868,2.2733,2.2175,2.1778,2.1599,2.161,2.1324,2.074,2.0552,2.016,1.9519,1.9298,1.8919,1.839,1.819,1.7838,1.7329,1.7047,1.672,1.6327,1.6382,1.5964,1.5265,1.5182,1.5088,1.4945,1.4852,1.4848,1.4848,1.4919,1.4919,1.4955,0.0,0.0,0.0,0.0,0.0,0.0,0.0,2.217,2.0937,2.088,1.9081,1.7852,1.7925,1.7276,1.6828,1.6862,1.6828,1.6888,1.7027,1.5987,1.5869,1.6951,1.7991,1.8974,1.9856,2.0595,2.0467,1.9326,2.0701,2.1431,2.1525,2.2252,2.308,2.3971,2.3992,2.3721,2.3279,2.3942,2.4532,2.5048,2.5439,2.6055,2.6843,0.0,0.0,0.0,0.0,0.0,0.0,0.0,0.0,0.0,0.0,0.0,0.0,0.0,0.0,0.0,0.0,0.0,0.0,0.0,0.0,0.0,0.0,0.0,0.0,0.0,0.0,0.0,0.0,0.0,0.0,0.0,0.0,0.0,2.759,2.6718,2.5825,2.5148,2.4295,2.3429,2.2597,2.2257,2.196,2.1608,2.2004,2.193,2.1231,2.1196,2.0747,1.9835,1.9323,1.8992,1.884,1.8234,1.7913,1.7868,1.7683,1.7489,1.7261,1.6836,1.6444,1.6039,1.5678,1.5056,1.4348,1.455,1.4313,1.3832,1.4019,1.4101,1.4129,1.4317,1.4389,1.4389,0.0,0.0,0.0,0.0,0.0,0.0,0.0,2.144,2.0084,2.0235,1.7876,1.621,1.6385,1.5683,1.548,1.6035,1.548,1.5157,1.5291,1.5054,1.5475,1.6741,1.7664,1.8567,1.944,2.0265,2.0552,2.0253,2.0623,2.1131,2.1744,2.2132,2.2759,2.3594,2.3872,2.3928,2.3827,2.4396,2.481,2.5109,2.5353,2.5851,2.6525,0.0,0.0,0.0,0.0,0.0,0.0,0.0,0.0,0.0,0.0,0.0,0.0,0.0,0.0,0.0,0.0,0.0,0.0,0.0,0.0,0.0,0.0,0.0,0.0,0.0,0.0,0.0,0.0,0.0,0.0,0.0,0.0,2.7623,2.7152,2.6064,2.502,2.4262,2.3722,2.3134,2.2424,2.2071,2.1776,2.1535,2.1285,2.1158,2.1125,2.0855,2.0444,1.9908,1.8802,1.79,1.7224,1.6903,1.6223,1.5087,1.555,1.5135,1.3966,1.3677,1.3387,1.3178,1.34,1.3045,1.2331,1.2738,1.2453,1.1975,1.3561,1.4132,1.4093,1.4165,1.4165,1.4129,0.0,0.0,0.0,0.0,0.0,0.0,0.0,2.0977,1.9619,2.0279,1.7298,1.5417,1.6175,1.5267,1.4784,1.5275,1.4506,1.4067,1.4206,1.4378,1.5274,1.7131,1.7698,1.8559,1.9814,2.0255,2.045,2.045,2.045,2.0905,2.168,2.2268,2.2931,2.3719,2.4278,2.4413,2.4274,2.5023,2.5275,2.5249,2.5875,2.6204,2.6363,2.6971,2.7357,2.7685,2.8286,2.8622,2.8803,2.9029,0.0,0.0,0.0,0.0,0.0,0.0,0.0,0.0,0.0,0.0,0.0,0.0,0.0,0.0,0.0,0.0,0.0,0.0,0.0,0.0,0.0,0.0,0.0,0.0,2.841,2.7719,2.7055,2.5955,2.4792,2.3818,2.3287,2.265,2.1827,2.1664,2.1535,2.1357,2.0858,2.0536,2.0516,1.9863,1.9303,1.8927,1.7871,1.6938,1.6112,1.5695,1.4865,1.3598,1.3848,1.3449,1.2419,1.2242,1.2114,0.0,1.2285,1.2076,1.1601,1.1895,1.1621,0.0,0.0,0.0,0.0,0.0,1.3051,1.2938,0.0,0.0,0.0,0.0,0.0,0.0,0.0,2.0765,1.9413,2.0484,1.7195,1.5232,1.655,1.5444,1.4605,1.4569,1.3911,1.3526,1.3634,1.3905,1.5143,1.759,1.7842,1.8678,2.0323,2.0294,2.0264,2.0264,2.0264,2.0644,2.1346,2.2397,2.3279,2.3963,2.4862,2.5059,2.4752,2.5753,2.5909,2.5574,2.6773,2.6902,2.6397,2.6835,2.7346,2.7889,2.8343,2.8716,2.9029,2.9075,0.0,0.0,0.0,0.0,0.0,0.0,0.0,0.0,0.0,0.0,0.0,0.0,0.0,0.0,0.0,0.0,0.0,0.0,0.0,0.0,0.0,0.0,0.0,0.0,2.8652,2.7863,2.725,2.6135,2.4967,2.3803,2.2969,2.2097,2.1254,2.1371,2.1354,2.107,2.0575,2.0051,1.9538,0.0,0.0,0.0,0.0,1.5867,1.515,1.4462,1.3625,1.2662,1.2497,1.2146,1.1688,1.1645,1.1628,1.1601,1.1649,1.1563,1.1348,1.1391,1.1267,1.1211,1.2194,1.2077,1.1409,1.1618,1.1574,0.0,0.0,0.0,0.0,0.0,0.0,0.0,0.0,2.104,1.9695,1.8971,1.6938,1.5551,1.5515,1.4955,1.4569,1.4469,1.3725,1.3263,1.3319,1.3598,1.4531,1.6306,1.705,1.7908,1.8957,1.9657,1.9981,1.9981,1.9981,2.0059,2.0245,2.1642,2.2489,2.2962,2.4311,2.524,2.5899,2.6536,2.6718,2.6651,2.7328,2.7246,2.6764,2.738,2.7579,2.7575,2.8262,2.8535,2.8669,2.8982,2.9098,2.9098,2.9098,2.9357,0.0,0.0,0.0,0.0,0.0,0.0,0.0,0.0,0.0,0.0,0.0,0.0,0.0,0.0,0.0,0.0,0.0,0.0,0.0,2.9418,2.8632,2.7951,2.771,2.6261,2.4966,2.4236,2.301,2.2152,2.2122,2.2043,2.1639,2.0847,2.0338,1.9598,1.848,1.7687,0.0,1.6712,1.5099,1.4039,1.3556,1.2615,1.1685,1.0729,0.0,0.0,0.9745,0.9522,0.9349,0.9253,0.9428,0.9384,0.9213,0.9384,0.9961,1.0781,1.1421,1.1552,1.1433,1.1637,1.1669,1.1551,0.0,0.0,0.0,0.0,0.0,0.0,0.0,2.0531,1.9022,1.8355,1.5965,1.4394,1.4565,1.365,1.298,1.2949,1.2563,1.2506,1.3032,1.3474,1.4657,1.6764,1.7131,1.7706,1.8598,1.9341,1.9754,1.9754,1.9754,1.9754,1.9794,2.1375,2.2209,2.2424,2.4068,2.5194,2.5965,2.6701,2.7154,2.7418,2.8257,2.8337,2.7953,2.8009,2.813,2.8364,2.8784,2.8812,2.87,2.8982,2.9052,2.9059,2.9357,2.9858,3.035,0.0,0.0,0.0,0.0,0.0,0.0,0.0,0.0,0.0,0.0,0.0,0.0,0.0,0.0,3.1694,0.0,0.0,3.0043,2.9528,2.8716,2.7921,2.7233,2.5874,2.487,2.4672,2.3229,2.2237,2.2251,2.205,2.152,2.0448,1.966,1.8671,1.7432,1.653,1.5803,1.5206,1.4149,1.3269,1.2576,1.1921,1.1109,1.0162,1.0242,0.991,0.9138,0.8906,0.8775,0.869,0.8733,0.8696,0.8612,0.8696,0.9087,0.9666,1.0129,1.072,1.1146,1.0794,1.0596,1.0479,0.0,0.0,0.0,0.0,0.0,0.0,0.0,2.0285,1.8682,1.7957,1.5317,1.36,1.3875,1.2501,1.1521,1.1382,1.1641,1.2094,1.2753,1.3665,1.5032,1.6968,1.7302,1.7706,1.8238,1.9103,1.9557,1.9557,1.9557,1.9597,1.9754,2.1231,2.2021,2.2295,2.3959,2.5076,2.5802,2.6654,2.7377,2.8039,2.9079,2.9452,2.9329,2.8987,2.906,2.9429,2.9616,2.949,2.9208,2.9407,2.9391,2.9336,2.9831,3.0558,3.1222,3.1389,3.2106,0.0,0.0,0.0,0.0,0.0,0.0,0.0,0.0,0.0,3.3267,3.2606,3.2509,3.2523,3.2342,3.1478,3.0525,2.9628,2.8807,2.7844,2.6597,2.553,2.4827,2.4782,2.33,2.2271,2.2182,2.1765,2.1062,1.9909,1.8806,1.7629,1.6366,1.5321,1.4496,1.3859,1.3431,1.2807,1.2029,1.159,1.0963,1.0171,0.9883,0.9554,0.9141,0.8958,0.8852,0.8812,0.8641,0.8612,0.8612,0.8612,0.8612,0.8696,0.9087,0.9842,1.0653,0.9955,0.9597,0.9441,0.0,0.0,0.0,0.0,0.0,0.0,0.0,0.0,2.0191,1.7328,1.6192,1.5119,1.3709,1.2748,1.1847,1.0953,1.2391,1.3109,1.2504,1.458,1.5511,1.4803,1.6805,1.7594,1.6935,1.8487,1.9341,1.9341,1.9341,1.9618,2.0167,2.0934,2.1776,2.2692,2.3787,2.5016,2.6343,2.679,2.7577,2.8587,2.9219,2.9846,3.0408,3.0939,3.0687,3.016,3.0647,3.0717,3.0594,3.0754,3.0704,3.0604,3.0679,3.1406,3.2161,3.1716,3.253,3.3498,3.3194,3.3897,3.4559,3.403,3.4477,3.4738,0.0,0.0,3.3176,3.2412,3.2324,3.2358,3.2094,3.0999,2.9981,2.9566,2.8737,2.7659,2.6395,2.581,2.5138,2.4149,2.2757,2.2036,2.2435,2.1231,2.0132,1.9257,1.7888,1.6537,1.5311,1.4244,1.3636,1.3539,1.2662,1.2127,1.198,1.1047,1.0498,1.0378,0.9842,0.9551,0.9367,0.9145,0.8974,0.8812,0.8641,0.8612,0.8612,0.8612,0.8696,0.8867,0.8911,0.9288,0.9783,0.9913,0.9942,0.99,0.0,0.0,0.0,0.0,0.0,0.0,0.0,0.0,0.0,1.6408,1.5097,1.3873,1.2278,1.1244,1.0374,0.964,1.1811,1.3265,1.3484,1.555,1.6568,1.6116,1.7302,1.7836,1.7472,1.8687,1.9301,1.9301,1.9301,1.9618,2.0196,2.0895,2.1624,2.2402,2.3409,2.4647,2.6102,2.648,2.7624,2.917,2.9827,3.048,3.1146,3.1794,3.1796,3.1478,3.1373,3.1226,0.0,3.0923,3.1207,3.1638,3.1662,3.2488,3.345,3.3416,3.4184,3.4976,3.4735,3.4972,3.5254,3.4953,3.499,3.4823,3.3878,3.3537,3.3156,3.237,3.2247,3.2191,3.194,3.0703,2.9597,0.0,2.8146,2.6874,2.5726,2.5321,2.4719,2.3545,2.2193,2.1332,2.1376,2.0846,1.9737,1.7933,1.725,1.6318,1.4933,1.416,1.3534,1.3104,1.237,1.1785,1.1292,1.0703,1.0314,1.0167,0.9924,0.9735,0.9506,0.9519,0.9228,0.8816,0.8743,0.8658,0.8568,0.7984,0.8204,0.8823,0.7977,0.8193,0.9026,0.9559,0.9598,0.9366,0.0,0.0,0.0,0.0,0.0,0.0,0.0,0.0,0.0,0.0,1.5302,1.3879,1.2215,1.1352,1.0726,1.0375,1.2222,1.3813,1.4856,1.6439,1.7302,1.7302,1.7997,1.8247,1.7997,1.9015,1.946,1.9301,1.946,1.9883,2.0469,2.0972,2.1624,2.2365,2.3224,2.4396,2.5742,2.6136,2.7432,2.9237,3.0072,3.0748,3.1291,3.2104,3.2398,3.2348,3.1994,3.1826,3.1729,3.1573,3.2044,3.2688,3.2751,3.3532,3.446,3.4672,3.5265,3.5866,3.5773,3.5667,3.56,3.56,3.5155,3.4601,3.4111,3.3537,3.2949,3.2274,3.2163,3.2051,3.1524,3.0389,2.9317,2.8812,2.7652,2.6382,2.519,2.4902,2.4319,2.3057,2.173,2.0638,2.0042,1.9724,1.881,1.7023,1.6513,1.5764,1.4538,1.3913,1.3286,1.2613,1.2078,1.1492,1.09,1.056,1.0314,1.0117,0.9969,0.9772,0.962,0.9679,0.9374,0.8847,0.8564,0.8567,0.8677,0.7425,0.7625,0.86,0.7356,0.7441,0.8281,0.8811,0.8851,0.8584,0.0,0.0,0.0,0.0,0.0,0.0,0.0,0.0,0.0,0.0,0.0,0.0,0.0,1.4358,1.4359,1.4436,1.4543,1.5161,1.6465,1.7074,1.735,1.7302,1.8559,1.8856,1.8037,1.9441,1.9883,1.9301,1.9883,2.0508,2.1165,2.1203,2.1814,2.3001,2.3409,2.4324,2.5521,2.5941,2.6955,2.8449,2.9707,3.033,3.0673,3.1921,3.2398,3.241,3.2535,3.2826,3.3161,3.3282,3.3592,3.3946,3.3946,3.4431,3.4941,3.4847,3.5184,3.5622,3.56,3.56,3.56,3.56,3.4809,3.4036,3.3995,3.3188,3.2342,3.2066,3.2122,3.1866,3.0733,2.9981,2.9192,2.8182,2.7516,2.654,2.5021,2.4785,2.4212,2.2599,2.1329,2.0042,0.0,1.7569,1.6976,1.6889,1.5581,1.4538,1.3956,1.3238,1.2565,1.2029,1.1487,1.1194,1.1194,1.0654,1.0413,1.0359,0.9871,0.9628,0.9571,0.9486,0.9302,0.9033,0.7925,0.8125,0.9021,0.7197,0.7136,0.8157,0.7404,0.7272,0.7533,0.7577,0.7661,0.783,0.0,0.0,0.0,0.0,0.0,0.0,0.0,0.0,0.0,0.0,0.0,0.0,0.0,0.0,0.0,0.0,1.6044,1.6984,1.8306,1.8997,1.9213,1.9045,1.9766,1.9923,1.9481,2.0382,2.0779,2.0547,2.0779,2.1165,2.1797,2.1797,2.2241,2.3001,2.315,2.3779,2.4826,2.558,2.6794,2.8349,2.9799,3.0718,3.1262,3.2076,3.2398,3.2425,0.0,3.3018,3.3742,3.3783,3.4358,3.4998,3.4649,3.4927,3.5402,3.5447,3.5532,3.5622,3.5706,3.5667,3.56,3.56,3.4793,3.4011,3.4011,3.3161,3.2315,3.2053,3.2053,3.1739,3.0703,3.006,2.9258,2.79,2.7232,2.6265,2.45,2.426,2.3503,2.1471,2.0133,0.0,0.0,0.0,0.0,1.5534,1.4627,1.401,1.363,1.2759,1.1922,1.1228,1.1189,1.0846,1.0154,1.031,1.0314,1.0117,0.9776,0.9677,0.9871,0.9808,0.9437,0.8743,0.854,0.8308,0.7969,0.6621,0.6789,0.7728,0.6287,0.6248,0.6956,0.6479,0.6349,0.6479,0.0,0.0,0.0,0.0,0.0,0.0,0.0,0.0,0.0,0.0,0.0,0.0,0.0,0.0,0.0,0.0,0.0,1.8664,2.0216,2.0294,2.0382,2.0663,2.0663,2.0508,2.0206,2.0624,2.0936,2.1124,2.1168,2.1591,2.2331,2.2098,2.2327,2.2889,2.2889,2.3522,2.466,2.5334,2.6683,2.8477,2.9477,3.0489,3.1397,3.1798,3.2145,0.0,3.2614,3.3135,3.3742,3.3935,3.4577,3.5293,3.5115,3.5316,3.5622,3.5689,3.5667,3.5622,3.5706,3.5532,3.5316,3.5316,3.4512,3.3691,3.3665,3.3002,3.2315,3.1996,3.1935,3.1619,3.0645,2.9822,2.89,2.7645,2.6656,2.556,2.4176,2.3437,2.2433,2.0783,1.9123,1.7747,0.0,0.0,0.0,1.4783,1.4298,1.3715,1.299,1.2262,1.138,1.0243,1.0301,0.9908,0.9015,0.9266,0.927,0.8977,0.8829,0.8931,0.9278,0.9278,0.8871,0.8087,0.8077,0.7801,0.7326,0.6202,0.64,0.7307,0.5859,0.5757,0.6343,0.5863,0.5688,0.5777,0.0,0.0,0.0,0.0,0.0,0.0,0.0,0.0,0.0,0.0,0.0,0.0,0.0,0.0,0.0,0.0,0.0,0.0,2.2096,2.0974,2.0806,2.2059,2.1336,2.0692,2.0274,2.0313,2.0546,2.1032,2.1202,2.1832,2.279,2.221,2.2212,2.2778,2.2778,2.3553,2.4969,2.523,2.6592,2.8586,2.879,2.9757,3.1058,3.122,3.1736,3.2465,3.296,3.3172,3.3251,3.3818,3.4358,3.4904,3.5424,3.56,3.56,3.56,3.56,3.56,3.56,3.5201,3.4793,3.4793,3.3978,3.3172,3.3039,3.2695,3.2274,3.1872,3.1797,3.1515,0.0,0.0,2.8201,2.7459,2.5903,2.4529,2.3971,2.2395,2.1078,0.0,0.0,0.0,0.0,0.0,0.0,1.4544,0.0,1.3565,1.2052,1.1658,1.073,0.9164,0.892,0.8524,0.7971,0.7776,0.7484,0.7238,0.7238,0.7487,0.7988,0.7992,0.7736,0.7179,0.6608,0.67,0.7169,0.595,0.6024,0.688,0.6187,0.5841,0.5696,0.5696,0.5694,0.5688,0.0,0.0,0.0,0.0,0.0,0.0,0.0,0.0,0.0,0.0,0.0,0.0,0.0,0.0,0.0,0.0,0.0,0.0,2.211,2.1607,2.1495,2.2075,2.2042,2.1662,2.0972,2.1662,2.1915,2.1578,2.2268,2.2755,2.3027,2.3192,2.3387,2.3506,2.3506,2.372,2.4183,2.5277,2.6094,2.6799,2.8857,2.9927,3.0379,3.1524,3.2064,3.2274,3.252,3.2586,3.2749,3.3665,3.4358,3.4904,3.5424,3.56,3.56,3.56,3.56,3.56,3.56,3.5201,3.4793,3.4793,3.3978,3.3182,3.3172,3.2668,3.2172,3.1857,3.1718,3.1394,0.0,0.0,0.0,2.7047,2.5957,0.0,2.2573,2.1727,0.0,1.8688,0.0,1.5386,1.4364,1.3113,0.0,0.0,1.2393,1.2344,1.1712,1.0485,0.9258,0.8028,0.8524,0.8425,0.7726,0.8031,0.8084,0.7789,0.7789,0.7889,0.7988,0.8187,0.7885,0.7185,0.7245,0.7032,0.6578,0.622,0.6251,0.6452,0.617,0.5966,0.5858,0.5858,0.5806,0.5688,0.0,0.0,0.0,0.0,0.0,0.0,0.0,0.0,0.0,0.0,0.0,0.0,0.0,0.0,0.0,0.0,0.0,0.0,0.0,2.2413,2.2382,2.2995,2.2692,2.2241,2.1596,2.1901,2.2175,2.2426,2.2485,2.2826,2.3384,2.3147,2.3239,2.3589,2.3589,2.3979,2.4732,2.5612,2.6366,0.0,0.0,2.9704,3.0383,3.1322,3.1879,3.2219,3.2342,3.2398,3.252,3.3355,3.3995,3.4553,3.5068,3.5247,3.531,3.5515,3.56,3.56,3.56,3.5038,3.4456,3.4456,3.364,3.292,3.315,3.2673,3.2152,3.2145,3.1792,3.1165,3.0261,2.9258,0.0,0.0,0.0,0.0,2.1908,2.0629,1.916,0.0,1.5582,0.0,1.2974,1.1999,1.1365,0.0,1.1365,1.1219,1.0587,0.9456,0.8372,0.7285,0.758,0.7431,0.6734,0.6783,0.6883,0.6936,0.6936,0.7089,0.7288,0.7434,0.7135,0.6537,0.0,0.6684,0.6082,0.6267,0.6314,0.6311,0.624,0.6092,0.5975,0.5923,0.5587,0.521,0.0,0.0,0.0,0.0,0.0,0.0,0.0,0.0,0.0,0.0,0.0,0.0,0.0,0.0,0.0,0.0,0.0,0.0,0.0,0.0,2.3065,2.399,2.3136,2.2499,2.2101,2.1634,2.1937,2.2967,2.2291,2.2499,2.3591,2.2791,2.2773,2.3449,2.356,2.4411,2.5822,2.6042,2.693,2.8217,2.843,2.927,3.0502,0.0,3.1493,3.2191,3.2342,3.2398,3.2465,3.2949,3.3459,3.3986,3.4529,3.4697,3.4793,3.5333,3.5492,3.5492,3.5492,3.4745,3.3969,3.3894,3.3214,3.2619,3.3005,3.2646,3.2267,3.2443,3.1744,3.0819,2.9913,2.8598,2.7267,2.6202,0.0,2.2173,2.1606,1.9497,1.7468,1.6102,1.4405,1.2926,1.1907,1.1219,1.0832,1.0783,1.0538,1.0047,0.9266,0.8566,0.7776,0.6792,0.6539,0.6187,0.5737,0.5233,0.5233,0.5687,0.5687,0.5937,0.6387,0.6387,0.6137,0.5734,0.0,0.0,0.5734,0.6184,0.638,0.629,0.629,0.6168,0.5905,0.5802,0.5104,0.4386,0.0,0.0,0.0,0.0,0.0,0.0,0.0,0.0,0.0,0.0,2.0324,2.0421,0.0,0.0,0.0,0.0,0.0,0.0,0.0,0.0,0.0,2.3086,2.2639,2.2278,2.2101,2.2327,2.2212,2.1775,2.234,2.2655,2.2733,2.3542,2.3981,2.4137,2.4808,2.5383,2.5852,2.6251,2.6669,2.718,2.8107,2.8972,2.9783,3.0688,0.0,0.0,3.2315,3.2398,3.241,3.252,3.2895,3.3417,3.3969,3.4136,3.4243,3.4769,3.4951,3.4951,3.4951,3.448,3.3894,3.3459,3.3263,3.3117,3.2644,3.2659,0.0,3.1904,3.088,2.9928,2.9542,2.7973,2.6472,2.5735,2.3803,2.1943,2.0638,1.9039,1.7289,0.0,1.359,1.2047,1.0779,0.9608,0.0,0.0,0.0,0.8482,0.9167,0.8077,0.7135,0.6487,0.6437,0.6337,0.6287,0.6187,0.6187,0.6237,0.6237,0.6287,0.6387,0.6387,0.6337,0.6287,0.0,0.0,0.6287,0.6384,0.6376,0.6407,0.6407,0.5792,0.4916,0.4901,0.4172,0.3213,0.0,0.0,0.0,0.0,0.0,0.0,0.0,0.0,2.136,2.002,1.9835,1.99,2.0074,2.0624,0.0,0.0,0.0,0.0,0.0,0.0,0.0,0.0,2.2518,2.2557,2.3143,2.2841,2.2773,2.2923,0.0,2.2446,2.254,2.3266,2.3836,2.4231,2.514,2.5888,2.6443,2.6776,2.7012,2.7228,2.8132,2.8693,2.9111,0.0,0.0,0.0,3.2342,3.2398,3.2398,3.2398,3.2559,3.2868,3.3407,3.3588,3.3691,3.4235,3.4366,3.4366,3.4366,3.3995,3.3607,3.3603,3.3516,3.3337,3.3168,0.0,0.0,3.2117,3.0818,2.9517,2.8827,2.7522,2.5975,2.4318,2.2663,2.1078,1.9513,1.8095,1.6405,1.4058,1.2813,1.1365,0.0,0.0,0.0,0.0,0.0,0.7889,0.8127,0.7282,0.6686,0.6387,0.6387,0.6387,0.6387,0.6387,0.6387,0.6387,0.6387,0.6387,0.6387,0.6387,0.6387,0.6387,0.6387,0.0,0.5584,0.5584,0.5231,0.473,0.473,0.4405,0.392,0.398,0.3357,0.2556,0.0,0.0,0.0,0.0,0.0,0.0,0.0,2.1369,2.0908,1.9768,1.9407,1.933,1.9485,2.0302,2.0987,0.0,0.0,0.0,0.0,0.0,0.0,0.0,0.0,0.0,0.0,0.0,0.0,2.4296,2.3154,0.0,0.0,0.0,0.0,0.0,2.5346,2.6255,2.7024,2.718,2.7335,0.0,0.0,2.8384,0.0,0.0,0.0,0.0,0.0,3.2398,3.2398,3.2398,3.2398,3.2465,3.2922,3.3039,3.3119,3.3665,3.3818,3.385,3.4011,3.3734,3.3513,3.3951,3.3792,3.3561,3.3574,3.2949,3.2257,3.1951,3.0417,2.8873,2.7936,2.6748,2.521,2.2989,2.148,2.0087,1.8611,1.7178,1.5371,0.0,1.2086,0.0,0.8676,0.0,0.0,0.0,0.0,0.0,0.7188,0.6736,0.6437,0.6387,0.6387,0.6387,0.6387,0.6187,0.6034,0.6034,0.5834,0.5732,0.5732,0.5732,0.5732,0.5732,0.5732,0.0,0.0,0.4533,0.4029,0.3274,0.3325,0.3225,0.3017,0.3172,0.2563,0.187,0.0,0.0,0.0,0.0,0.0,0.0,0.0,2.088,2.1162,1.979,1.9308,1.9008,1.864,1.9824,2.0828,0.0,0.0,0.0,0.0,0.0,0.0,0.0,0.0,0.0,0.0,0.0,0.0,2.467,2.4335,0.0,0.0,0.0,0.0,0.0,0.0,2.6636,2.699,2.7024,0.0,0.0,0.0,0.0,0.0,0.0,0.0,0.0,0.0,3.2398,3.2398,3.2398,3.2398,3.2425,3.2605,3.2563,3.2574,3.3119,3.3261,0.0,3.401,3.4157,3.4113,3.4181,3.4106,3.3822,3.3077,0.0,3.1035,3.0367,2.873,2.7284,2.673,2.5221,2.3694,2.2614,2.0872,1.9347,1.8527,1.6499,1.4609,1.3216,0.0,0.0,0.8874,0.0,0.0,0.0,0.0,0.0,0.0,0.6942,0.6642,0.6387,0.6387,0.6387,0.6387,0.5436,0.4935,0.4935,0.3977,0.3475,0.3475,0.3475,0.3475,0.3475,0.0,0.0,0.0,0.3627,0.3627,0.3577,0.383,0.3328,0.2471,0.2467,0.1812,0.0957,0.0,0.0,0.0,0.0,0.0,0.0,1.9707,2.0259,2.0446,1.9692,1.9208,1.8808,1.8516,1.9452,2.0258,0.0,0.0,0.0,0.0,0.0,0.0,0.0,0.0,0.0,0.0,0.0,2.3568,2.4528,2.4337,0.0,0.0,0.0,0.0,0.0,0.0,0.0,2.7024,2.7113,0.0,0.0,0.0,0.0,0.0,0.0,0.0,0.0,0.0,0.0,3.2398,3.2398,3.2398,3.2425,3.2551,3.2773,3.2977,3.2889,3.3384,3.3951,3.378,3.4032,3.4313,3.4029,3.4046,3.3656,3.1983,0.0,3.0716,2.9305,2.7947,2.6864,2.6565,2.4798,2.2955,2.1702,1.9745,1.7918,1.6741,1.5134,1.3553,1.2145,1.1023,0.0,0.0,0.0,0.0,0.0,0.0,0.0,0.0,0.5586,0.5536,0.5436,0.5436,0.5536,0.5689,0.4634,0.4182,0.4334,0.388,0.3679,0.3679,0.3679,0.3679,0.3679,0.0,0.0,0.0,0.2823,0.2521,0.1917,0.2018,0.1817,0.1464,0.1615,0.1414,0.1061,0.0,0.0,0.0,0.0,0.0,1.9018,1.9175,1.9469,1.963,1.9485,1.9008,1.8617,1.8381,1.9054,1.9606,1.9835,0.0,0.0,0.0,0.0,0.0,0.0,0.0,0.0,0.0,0.0,2.3781,2.4825,2.4803,2.4814,0.0,0.0,0.0,0.0,0.0,0.0,0.0,0.0,0.0,0.0,0.0,0.0,0.0,0.0,0.0,0.0,0.0,0.0,0.0,0.0,0.0,3.2203,3.2566,3.3181,3.3668,3.3089,3.3666,3.4428,3.4106,3.4191,3.4334,3.4167,3.386,3.31,3.1253,0.0,2.9859,2.8374,2.7191,2.6287,2.5808,2.4061,2.2189,2.0719,1.864,1.6753,1.5473,1.3986,1.2587,0.0,0.0,0.0,0.0,0.0,0.0,0.0,0.0,0.0,0.0,0.3879,0.4182,0.4433,0.4533,0.4636,0.4736,0.3729,0.3327,0.353,0.3228,0.3077,0.3077,0.3077,0.3077,0.3077,0.0,0.0,0.0,0.2018,0.1615,0.0909,0.101,0.1061,0.1061,0.1263,0.1314,0.1364,0.0,0.0,0.0,0.0,0.0,0.0,0.0,1.849,1.8805,1.9079,1.8741,1.8381,1.8042,1.8486,1.8934,1.9266,0.0,0.0,0.0,0.0,0.0,0.0,0.0,0.0,0.0,0.0,2.5142,2.5889,2.6291,2.6499,2.6499,2.6487,2.685,2.7484,0.0,0.0,0.0,0.0,0.0,0.0,0.0,0.0,0.0,0.0,0.0,0.0,0.0,0.0,0.0,0.0,0.0,0.0,0.0,3.3721,3.4539,3.3885,3.4065,3.4643,3.5306,3.4802,3.4228,3.4765,3.365,3.2119,3.1027,2.9577,2.8187,2.7377,2.6373,2.5253,2.4059,2.2683,2.1212,1.9749,1.7677,1.5954,1.514,1.3204,1.1755,0.0,0.0,0.0,0.0,0.0,0.0,0.0,0.0,0.0,0.0,0.1968,0.2773,0.3577,0.3882,0.3882,0.3629,0.2823,0.2422,0.2422,0.1363,0.0808,0.0808,0.0808,0.0808,0.0,0.0,0.0,0.0,0.1111,0.1212,0.1212,0.1465,0.1617,0.1617,0.1617,0.1617,0.1617,0.0,0.0,0.0,0.0,0.0,0.0,0.0,1.8563,1.888,1.9079,1.8539,1.8245,1.8516,1.8697,1.8998,1.9462,0.0,0.0,0.0,0.0,0.0,0.0,0.0,0.0,0.0,0.0,2.4018,2.4958,2.5607,2.5949,2.5949,2.5949,2.5865,2.5683,2.6097,0.0,0.0,0.0,0.0,0.0,0.0,0.0,0.0,0.0,0.0,0.0,0.0,0.0,0.0,0.0,0.0,0.0,0.0,0.0,0.0,3.4558,3.5233,3.5814,3.4986,3.4883,3.4727,3.3671,3.255,3.1275,2.9539,2.8335,2.7336,2.6509,2.5274,2.4241,2.3887,2.1836,1.9824,1.8664,1.6479,1.4507,0.0,0.0,0.0,0.9144,0.0,0.0,0.0,0.0,0.0,0.0,0.0,0.0,0.0,0.1717,0.212,0.2773,0.2874,0.2976,0.3077,0.2069,0.1667,0.1869,0.1515,0.1364,0.1364,0.1364,0.0,0.0,0.0,0.0,0.0,0.1415,0.1465,0.1465,0.1566,0.1617,0.1617,0.1617,0.1617,0.1617,0.0,0.0,0.0,0.0,0.0,0.0,0.0,1.7657,1.8118,1.8492,1.8237,1.8144,1.8472,1.8516,1.8774,1.9429,0.0,0.0,0.0,0.0,0.0,0.0,0.0,0.0,0.0,2.3291,2.379,2.4665,2.536,2.5834,2.6038,2.5803,2.5628,2.5503,2.566,2.6008,0.0,0.0,0.0,0.0,0.0,0.0,2.8798,0.0,0.0,0.0,0.0,0.0,0.0,0.0,0.0,0.0,0.0,0.0,0.0,0.0,3.5587,3.6107,3.5116,3.4667,3.4177,3.2995,3.1769,0.0,2.877,2.7718,2.6712,2.5485,2.436,2.3391,2.2595,2.0531,1.858,1.7507,1.5298,1.3349,0.0,0.0,0.0,0.0,0.0,0.0,0.0,0.0,0.0,0.0,0.0,0.0,0.0,0.0,0.1768,0.207,0.212,0.212,0.2221,0.1616,0.1415,0.1617,0.1617,0.1617,0.1617,0.1617,0.0,0.0,0.0,0.0,0.0,0.1617,0.1617,0.1617,0.1617,0.1617,0.1617,0.1617,0.1667,0.1768,0.0,0.0,0.0,0.0,0.0,0.0,0.0,0.0,1.6718,1.7416,1.7801,1.8042,1.8042,1.8076,1.8428,1.9276,0.0,0.0,0.0,0.0,0.0,0.0,0.0,0.0,0.0,2.3696,2.4287,2.4827,2.5331,2.5889,2.6485,2.592,2.595,2.6485,2.5981,2.6121,2.6802,0.0,0.0,0.0,0.0,0.0,0.0,0.0,0.0,0.0,0.0,0.0,0.0,0.0,0.0,0.0,0.0,0.0,0.0,0.0,0.0,0.0,0.0,3.4283,3.2911,3.2618,3.123,2.964,2.8545,2.7493,0.0,2.4467,2.3651,2.2629,2.0494,1.8886,1.75,1.6177,1.4124,0.0,0.0,0.9833,0.0,0.0,0.0,0.0,0.0,0.0,0.0,0.0,0.0,0.0,0.0,0.0,0.1617,0.1617,0.1617,0.1465,0.1212,0.1465,0.1617,0.1617,0.1617,0.1617,0.1617,0.1617,0.0,0.0,0.0,0.0,0.0,0.1617,0.1617,0.1617,0.1617,0.1617,0.1617,0.1667,0.1819,0.2021,0.0,0.0,0.0,0.0,0.0,0.0,0.0,0.0,0.0,0.0,1.7581,1.8337,1.8573,1.8854,1.921,0.0,0.0,0.0,0.0,0.0,0.0,0.0,0.0,0.0,2.3065,2.3731,2.4164,2.4298,2.44,2.4776,2.5371,2.5228,2.501,2.4731,2.5039,2.54,2.5798,2.6521,0.0,0.0,0.0,0.0,0.0,0.0,0.0,0.0,3.1451,3.2006,0.0,0.0,0.0,0.0,0.0,0.0,0.0,0.0,3.4425,3.4196,3.4717,0.0,3.329,3.1341,2.9935,2.8758,0.0,2.6652,2.5527,2.4349,2.3173,2.1649,1.9447,1.791,1.625,1.4172,0.0,0.0,0.0,0.0,0.0,0.0,0.0,0.0,0.0,0.0,0.0,0.0,0.0,0.0,0.0,0.0,0.1617,0.1617,0.1617,0.1566,0.1516,0.1566,0.1617,0.1617,0.1617,0.1617,0.1617,0.1617,0.0,0.0,0.0,0.0,0.1617,0.1617,0.1617,0.1617,0.1819,0.1921,0.192,0.212,0.227,0.2321,0.0,0.0,0.0,0.0,0.0,0.0,0.0,0.0,0.0,0.0,0.0,0.0,0.0,0.0,0.0,0.0,0.0,0.0,0.0,0.0,0.0,0.0,0.0,2.2396,2.3065,2.3454,2.378,2.4102,2.4379,2.4823,2.5398,2.5133,2.4823,2.4538,2.4979,2.5287,2.5563,2.6721,2.6669,2.5907,2.6763,0.0,0.0,0.0,0.0,0.0,3.0872,3.1636,0.0,3.241,3.2605,3.2978,0.0,0.0,0.0,0.0,3.4122,3.3652,3.4299,3.3449,3.2105,3.0683,2.9213,2.7936,2.7191,2.5841,2.4456,2.3347,2.1836,2.007,1.8087,1.6425,1.4835,1.3162,1.1745,0.0,0.0,0.0,0.0,0.0,0.0,0.0,0.0,0.0,0.0,0.0,0.0,0.0,0.0,0.0,0.1617,0.1617,0.1617,0.1617,0.1617,0.1617,0.1617,0.1617,0.1617,0.1617,0.1617,0.1718,0.1718,0.0,0.0,0.0,0.1617,0.1617,0.1667,0.1819,0.1921,0.2071,0.2222,0.2371,0.2472,0.2573,0.0,0.0,0.0,0.0,0.0,0.0,0.0,0.0,0.0,0.0,0.0,0.0,0.0,0.0,0.0,0.0,0.0,0.0,0.0,0.0,0.0,0.0,0.0,2.2512,2.3078,2.3198,2.3543,2.4102,2.4595,2.5161,2.5743,2.5245,2.4951,2.4894,2.5259,2.5481,2.5728,2.7071,2.7163,2.6443,2.7082,0.0,0.0,0.0,0.0,0.0,0.0,0.0,0.0,3.2145,3.2508,3.3096,3.2897,0.0,0.0,0.0,0.0,0.0,3.3916,3.2222,3.0253,3.0114,2.86,2.7046,2.6513,2.4925,2.3173,2.2031,2.0305,1.8434,1.668,1.4823,0.0,0.0,0.0,0.0,0.0,0.0,0.0,0.0,0.0,0.0,0.0,0.0,0.0,0.0,0.0,0.0,0.0,0.0,0.0,0.1617,0.1617,0.1617,0.1617,0.1617,0.1617,0.1617,0.1617,0.1617,0.1617,0.187,0.187,0.0,0.0,0.0,0.1717,0.1717,0.1869,0.2071,0.2122,0.2171,0.232,0.2472,0.2522,0.2522,0.0,0.0,0.0,0.0,0.0,0.0,0.0,0.0,0.0,0.0,0.0,0.0,0.0,0.0,0.0,0.0,0.0,0.0,0.0,0.0,0.0,2.3215,2.2985,2.2925,2.3108,2.3662,2.4015,2.4102,2.4176,2.4551,2.5133,2.5035,2.4794,2.4423,2.5091,2.555,2.5836,2.6678,2.6967,2.6797,2.6707,0.0,0.0,0.0,0.0,0.0,0.0,0.0,0.0,3.252,3.2834,3.3176,3.2633,0.0,0.0,0.0,0.0,0.0,3.2936,3.1048,2.8981,2.8954,2.7313,2.5514,2.4713,2.3337,2.1987,2.0998,1.9555,1.7748,1.5623,1.3567,1.1682,0.0,0.0,0.0,0.0,0.0,0.0,0.0,0.0,0.0,0.0,0.0,0.0,0.0,0.0,0.0,0.0,0.0,0.0,0.1617,0.1617,0.1617,0.1617,0.1617,0.1617,0.1617,0.1617,0.1617,0.1617,0.187,0.1971,0.0,0.0,0.2321,0.227,0.227,0.2321,0.2372,0.2574,0.227,0.1815,0.2725,0.2219,0.121,0.0,0.0,0.0,0.0,0.0,0.0,0.0,0.0,0.0,0.0,0.0,0.0,0.0,0.0,0.0,0.0,0.0,0.0,0.0,0.0,0.0,2.3078,2.3083,2.3083,2.3108,2.375,2.4102,2.4102,2.4423,2.4738,2.4979,2.4681,2.4292,2.3956,2.4951,2.5412,2.5536,2.6573,2.6811,2.6484,0.0,0.0,0.0,0.0,0.0,0.0,0.0,0.0,0.0,0.0,3.2915,3.3187,3.259,0.0,0.0,0.0,0.0,0.0,3.2101,3.0478,2.8564,2.7221,2.5712,2.4074,2.2324,2.1051,1.9855,1.8609,1.7037,1.5509,1.4208,0.0,1.0916,0.8301,0.0,0.0,0.0,0.0,0.0,0.0,0.0,0.0,0.0,0.0,0.0,0.0,0.0,0.0,0.0,0.0,0.0,0.0,-0.0151,-0.0151,-0.0151,0.0151,0.0808,0.1819,0.1819,0.1667,0.1415,0.2121,0.2121,0.1617,0.0,0.2522,0.2422,0.2422,0.2219,0.1967,0.2118,0.1765,0.126,0.2219,0.2068,0.1563,0.0,0.0,0.0,0.0,0.0,0.0,0.0,0.0,0.0,0.0,0.0,0.0,0.0,0.0,0.0,0.0,0.0,0.0,0.0,0.0,2.3108,2.3108,2.3245,2.3335,2.3335,2.3839,2.4234,2.4523,2.4851,2.4922,2.4794,2.4147,2.3839,2.3852,2.4794,2.5287,2.5508,2.6349,2.6522,2.6285,0.0,0.0,0.0,0.0,0.0,0.0,0.0,0.0,0.0,0.0,0.0,0.0,0.0,0.0,0.0,3.2685,3.2333,3.1787,3.1244,2.9668,2.7589,2.5261,2.4084,2.2829,2.0345,1.9004,1.788,1.6383,1.4655,1.329,1.2866,1.1409,0.0,0.6617,0.0,0.0,0.0,0.0,0.0,0.0,0.0,0.0,0.0,0.0,0.0,0.0,0.0,0.0,0.0,0.0,-0.1613,-0.1613,-0.1613,-0.1563,-0.1412,-0.1008,-0.0101,0.1364,0.1465,0.1314,0.096,0.1817,0.1767,0.1061,0.1968,0.2219,0.2017,0.2017,0.1765,0.1412,0.1412,0.1159,0.0806,0.1059,0.1513,0.2068,0.0,0.0,0.0,0.0,0.0,0.0,0.0,0.0,0.0,0.0,0.0,0.0,0.0,0.0,0.0,0.0,0.0,0.0,0.0,0.0,2.3108,2.3108,2.3691,2.4031,2.4031,2.4073,2.4637,2.5784,2.5245,2.4709,2.4147,2.3484,2.3619,2.4423,2.4538,2.5175,2.6203,2.5728,2.596,2.663,2.6177,0.0,0.0,0.0,0.0,0.0,0.0,0.0,0.0,0.0,0.0,0.0,0.0,0.0,3.2224,3.2094,3.1467,3.0705,3.0299,2.7973,2.5156,2.3114,2.2576,2.1843,1.9377,1.7856,1.6633,1.5386,1.3465,1.2022,1.1973,0.8932,0.5927,0.4433,0.0,0.0,0.0,0.0,0.0,0.0,0.0,0.0,0.0,0.0,0.0,0.0,0.0,0.0,0.0,0.0,0.0,-0.1613,-0.1613,-0.1361,-0.0857,-0.0806,-0.0756,-0.0605,-0.0101,0.0101,0.0101,0.0404,0.0556,0.0455,0.0807,0.0958,0.0907,0.0907,0.0907,0.0857,0.0857,0.0857,0.0605,-0.0808,0.0101,0.1916,0.0,0.0,0.0,0.0,0.0,0.0,0.0,0.0,0.0,0.0,0.0,0.0,0.0,0.0,0.0,0.0,0.0,0.0,0.0,2.2329,2.2659,2.3065,2.3335,2.3471,2.3433,2.4582,2.5258,2.5342,2.4751,2.4118,2.3484,2.336,2.3526,2.3956,2.4436,2.4851,2.5258,2.5356,2.5715,2.6177,2.5975,2.6794,0.0,0.0,0.0,0.0,0.0,0.0,0.0,0.0,3.2532,3.217,3.1492,3.1276,3.1264,3.1296,3.0764,3.0017,2.9416,2.7445,2.503,2.2741,2.1569,2.0243,1.7091,1.6041,1.5108,1.306,1.1351,0.9923,0.8928,0.0,0.5281,0.0,0.0,0.0,0.0,0.0,0.0,0.0,0.0,0.0,0.0,0.0,0.0,0.0,0.0,0.0,0.0,0.0,0.0,-0.3575,-0.3275,-0.2973,-0.2772,-0.2117,-0.1815,-0.1765,-0.0404,0.0051,-0.0253,0.0353,0.0353,-0.0051,0.0555,0.0806,0.0806,0.0806,0.0504,0.0,-0.0505,-0.0707,-0.0707,-0.0808,0.005,0.126,0.0,0.0,0.0,0.0,0.0,0.0,0.0,0.0,0.0,0.0,0.0,0.0,0.0,0.0,0.0,0.0,0.0,0.0,2.1416,2.2021,2.2463,2.2781,2.2962,2.3058,2.302,2.4485,2.5064,2.4656,2.4279,2.375,2.3108,2.309,2.3258,2.3577,2.3728,2.4063,2.4481,2.4568,2.5116,2.5953,2.5841,2.6872,0.0,0.0,0.0,0.0,0.0,0.0,0.0,0.0,3.2074,3.162,3.1174,3.0733,3.0407,3.028,2.9477,2.8533,2.7912,2.5895,2.3584,2.1871,2.0223,1.8334,1.5528,1.487,1.4112,1.138,0.9554,0.7912,0.6221,0.0,0.0,0.0,0.0,0.0,0.0,0.0,0.0,0.0,0.0,0.0,0.0,0.0,0.0,0.0,0.0,0.0,0.0,0.0,0.0,0.0,-0.4033,-0.3681,-0.3479,-0.2774,-0.2321,-0.2119,-0.0858,-0.0404,-0.0758,-0.0202,-0.0252,-0.0758,-0.0202,0.005,0.005,0.005,-0.0303,-0.0859,-0.1364,-0.1617,-0.1516,-0.096,-0.0101,0.0857,0.0,0.0,0.0,0.0,0.0,0.0,0.0,0.0,0.0,0.0,0.0,0.0,0.0,0.0,0.0,0.0,0.0,0.0,2.0139,2.1858,2.2671,2.2144,2.267,2.302,2.299,2.3563,2.3871,2.39,2.4021,2.375,2.3078,2.2592,2.2786,2.3428,2.2366,2.2749,2.4113,2.3297,2.4136,2.6062,2.5756,2.69,2.8822,0.0,0.0,0.0,0.0,0.0,0.0,0.0,3.1665,3.0763,3.0704,3.0254,2.9659,2.8991,2.7555,2.6139,2.5813,2.3012,2.0232,2.0187,1.8395,1.6217,1.4889,1.4603,1.3686,1.06,0.8273,0.6229,0.4332,0.3982,0.0,0.0,0.0,0.0,0.0,0.0,0.0,0.0,0.0,0.0,0.0,0.0,0.0,0.0,0.0,0.0,0.0,0.0,0.0,0.0,-0.3482,-0.2927,-0.2422,-0.2371,-0.2119,-0.1617,-0.1617,-0.1617,-0.1617,-0.1617,-0.1617,-0.1617,-0.1617,-0.1617,-0.1617,-0.1617,-0.1617,-0.1617,-0.1617,-0.1617,-0.1617,-0.1617,-0.0606,0.0806,0.0,0.0,0.0,0.0,0.0,0.0,0.0,0.0,0.0,0.0,0.0,0.0,0.0,0.0,0.0,0.0,0.0,0.0,2.1345,2.1877,2.2334,2.2641,2.2932,2.2847,2.2378,2.2077,2.2615,2.4021,2.3135,2.2604,2.2402,2.2002,2.1959,2.217,2.2561,2.2997,2.3468,2.3905,2.4566,2.5383,2.5944,2.6944,2.8098,0.0,0.0,0.0,0.0,0.0,0.0,0.0,0.0,0.0,2.9919,2.9331,2.8763,2.8782,2.7691,2.6353,2.5672,2.3421,2.089,1.9273,1.7593,1.5846,1.398,1.3547,1.2522,0.8806,0.6775,0.5231,0.3731,0.343,0.0,0.0,0.0,0.0,0.0,0.0,0.0,0.0,0.0,0.0,0.0,0.0,0.0,0.0,0.0,0.0,0.0,0.0,0.0,0.0,-0.2927,-0.2573,-0.2422,-0.2019,-0.1768,-0.1617,-0.1617,-0.1617,-0.1617,-0.1617,-0.1617,-0.1617,-0.1617,-0.1617,-0.1617,-0.1617,-0.1617,-0.1617,-0.1617,-0.1617,-0.1617,-0.1617,-0.0606,0.0857,0.0,0.0,0.0,0.0,0.0,0.0,0.0,0.0,0.0,0.0,1.6563,1.7408,0.0,0.0,0.0,0.0,0.0,0.0,0.0,2.1827,2.2334,2.258,2.2384,2.2002,2.1322,2.0921,2.1416,2.2895,2.2101,2.171,2.171,2.1376,2.1187,2.123,2.1922,2.2341,2.263,2.3329,2.4191,2.5151,2.5582,2.654,2.7677,0.0,0.0,0.0,0.0,0.0,0.0,0.0,0.0,0.0,2.9487,2.8684,2.7794,2.7992,2.6419,2.4544,2.4011,2.2036,1.9679,1.791,1.6438,1.474,1.2129,1.1307,1.0173,0.7068,0.5529,0.4431,0.338,0.318,0.0,0.0,0.0,0.0,0.0,0.0,0.0,0.0,0.0,0.0,0.0,0.0,0.0,0.0,0.0,0.0,0.0,0.0,0.0,0.0,-0.2372,-0.207,-0.207,-0.1768,-0.1617,-0.1617,-0.1617,-0.1617,-0.1617,-0.1617,-0.1617,-0.1617,-0.1617,-0.1617,-0.1617,-0.1617,-0.1617,-0.1617,-0.1617,-0.1617,-0.1617,-0.1617,-0.0454,0.1158,0.0,0.0,0.0,0.0,0.0,0.0,0.0,0.0,0.0,0.0,1.6838,1.7706,0.0,0.0,0.0,0.0,0.0,0.0,0.0,0.0,2.2531,2.2132,2.1471,2.0805,2.0193,2.0128,2.0387,2.0996,2.0996,2.0965,2.089,2.0635,2.0464,2.0498,2.082,2.1286,2.1853,2.215,2.3407,2.5179,2.4976,2.587,2.7384,2.7384,0.0,0.0,0.0,0.0,0.0,0.0,0.0,0.0,2.9205,2.8228,2.6964,2.6907,2.4492,2.1831,2.1664,1.9679,1.7426,1.6332,1.4991,1.3097,0.9731,0.8411,0.7372,0.5579,0.0,0.3783,0.3281,0.0,0.0,0.0,0.0,0.0,0.0,0.0,0.0,0.0,0.0,0.0,0.0,0.0,0.0,0.0,0.0,0.0,0.0,0.0,0.0,0.0,-0.1869,-0.1617,-0.1617,-0.1617,-0.1617,0.0,-0.1617,-0.1617,-0.1617,-0.1617,-0.1617,-0.1617,-0.1617,-0.1617,-0.1617,-0.1617,-0.1617,-0.1617,-0.1617,-0.1566,-0.1566,-0.1465,-0.0101,0.166,0.0,0.0,0.0,0.0,0.0,0.0,0.0,0.0,0.0,0.0,0.0,0.0,0.0,0.0,0.0,0.0,0.0,0.0,0.0,0.0,2.2604,2.2341,2.1534,2.1028,2.0901,2.0355,2.0161,2.0323,2.0323,2.002,1.9465,1.9551,1.9552,1.9548,2.0863,2.1732,2.2245,2.3143,2.3874,2.4471,2.5154,2.5854,2.6496,2.6496,2.6517,0.0,0.0,0.0,0.0,0.0,0.0,0.0,2.7591,2.7488,2.7389,2.6845,2.5094,2.31,2.1976,1.9683,1.7166,1.5399,1.321,1.0832,0.7955,0.7164,0.6719,0.5479,0.4232,0.3331,0.323,0.0,0.0,0.0,0.0,0.0,0.0,0.0,0.0,0.0,0.0,0.0,0.0,0.0,0.0,0.0,0.0,0.0,0.0,0.0,0.0,-0.1818,-0.1667,-0.1617,-0.1617,-0.1617,-0.1617,0.0,-0.1617,-0.1617,-0.1617,-0.1617,-0.1617,-0.1617,-0.1617,-0.1617,-0.1617,-0.1617,-0.1617,-0.1617,-0.1617,-0.1465,-0.1162,-0.0353,0.0806,0.2116,0.0,0.0,0.0,0.0,0.0,0.0,0.0,0.0,0.0,0.0,0.0,0.0,0.0,0.0,0.0,0.0,0.0,0.0,0.0,0.0,2.2285,2.1702,2.0996,2.0484,2.0139,1.9813,1.9616,1.9616,1.9276,1.8967,1.8777,1.9113,1.9349,1.9551,2.1216,2.2162,2.2637,2.3434,2.4019,2.4526,2.5004,2.5324,2.5548,2.5711,2.5558,2.5253,2.5206,0.0,0.0,0.0,0.0,0.0,0.0,0.0,2.6601,2.6347,2.436,2.2111,2.1476,1.909,1.623,1.4058,1.1551,0.9156,0.7214,0.6321,0.5527,0.4481,0.3681,0.318,0.0,0.0,0.0,0.0,0.0,0.0,0.0,0.0,0.0,0.0,0.0,0.0,0.0,0.0,0.0,0.0,0.0,0.0,0.0,-0.3874,-0.2973,-0.1667,-0.1617,-0.1617,-0.1617,-0.1617,-0.1617,-0.1617,-0.1617,-0.1617,-0.1617,-0.1617,-0.1516,-0.1415,-0.1415,-0.1314,-0.1212,-0.1212,-0.1212,-0.1212,-0.1212,-0.0808,-0.0151,0.0403,0.1662,0.3274,0.0,0.0,0.0,0.0,0.0,0.0,0.0,0.0,0.0,0.0,0.0,0.0,0.0,0.0,0.0,0.0,0.0,0.0,0.0,0.0,0.0,2.0764,2.0204,1.9682,1.9098,1.9108,1.9031,1.8898,1.824,1.8042,1.833,1.8908,1.9363,1.9799,2.1518,2.249,2.2938,2.3425,2.4007,2.4682,2.4754,2.4825,2.4921,2.5182,2.4897,2.4345,2.461,2.4825,2.4968,2.4824,0.0,0.0,0.0,0.0,2.5652,2.5757,2.3389,2.0738,2.0846,1.8226,1.4835,1.2275,0.9985,0.8064,0.6769,0.5577,0.4483,0.343,0.318,0.0,0.0,0.0,0.0,0.0,0.0,0.0,0.0,0.0,0.0,0.0,0.0,0.0,0.0,0.0,0.0,0.0,0.0,0.0,-0.4824,-0.3974,-0.2923,-0.1617,-0.1617,-0.1617,-0.1617,-0.1617,-0.1617,-0.1617,-0.1617,-0.1617,-0.1617,-0.1566,-0.1415,-0.1212,-0.1162,-0.101,-0.0808,-0.0808,-0.0808,-0.0808,-0.0808,-0.0101,0.0907,0.1058,0.2567,0.4479,0.0,0.0,0.0,0.0,0.0,0.0,0.0,0.0,0.0,0.0,1.676,0.0,0.0,0.0,0.0,0.0,0.0,0.0,0.0,0.0,0.0,1.9998,1.9495,1.9198,1.9108,1.9108,1.8798,1.8138,1.7687,1.7533,1.7662,1.8584,1.9188,1.9531,2.1265,2.24,2.3014,2.3423,2.3861,2.4309,2.4646,2.4957,2.5241,2.5276,2.5052,2.4682,2.4381,2.4538,2.4809,2.4118,2.5017,0.0,0.0,0.0,2.6001,2.5521,2.3422,2.1141,2.0755,1.747,1.3284,0.978,0.8658,0.7819,0.5579,0.4933,0.4483,0.0,0.0,0.0,0.0,0.0,0.0,0.0,0.0,0.0,0.0,0.0,0.0,0.0,0.0,0.0,0.0,0.0,0.0,0.0,0.0,0.0,-0.4874,-0.4674,-0.3674,-0.1667,-0.1617,-0.1617,-0.1617,-0.1617,-0.1617,-0.1617,-0.1617,-0.1617,-0.1617,-0.1364,-0.1212,-0.1162,-0.096,-0.0808,-0.0808,-0.0808,-0.0808,-0.0808,-0.0808,0.0,0.126,0.2166,0.3473,0.4883,0.0,0.0,0.0,0.0,0.0,0.0,0.0,0.0,0.0,0.0,0.0,1.7731,0.0,0.0,0.0,0.0,0.0,0.0,0.0,0.0,0.0,1.9726,1.9198,1.8975,1.9108,1.9108,1.8831,1.8293,1.7902,1.7772,1.7862,1.8667,1.9424,2.0146,2.1834,2.272,2.3001,2.3187,2.3361,2.3534,2.3559,2.3548,2.3522,2.3828,2.3614,2.3199,2.3853,2.4084,2.4065,2.4137,2.4837,2.565,2.5265,0.0,0.0,0.0,2.2553,2.0296,1.7602,1.4893,1.2134,0.9148,0.7816,0.6822,0.5183,0.4334,0.363,0.2724,0.0,0.0,0.0,0.0,0.0,0.0,0.0,0.0,0.0,0.0,0.0,0.0,0.0,0.0,0.0,0.0,0.0,0.0,0.0,-0.5777,-0.4874,-0.3674,-0.2572,-0.1617,-0.1617,-0.1617,-0.1617,-0.1617,-0.1617,-0.1617,-0.1617,-0.1516,-0.1364,-0.1111,-0.096,-0.096,-0.0707,-0.0505,-0.0354,-0.0354,-0.0354,-0.0303,0.0303,0.126,0.2469,0.3525,0.468,0.5787,0.0,0.0,0.0,0.0,0.0,0.0,0.0,0.0,0.0,0.0,0.0,0.0,0.0,0.0,0.0,0.0,0.0,0.0,0.0,0.0,0.0,1.9341,1.8975,1.8875,1.9108,1.9131,1.8892,1.837,1.8292,1.8207,1.8153,1.8892,1.9687,2.0552,2.1981,2.2628,2.2628,2.2777,2.2906,2.2982,2.2718,2.259,2.2579,2.2819,2.2569,2.225,2.3339,0.0,0.0,0.0,0.0,0.0,2.4916,2.4693,0.0,0.0,0.0,1.8824,1.4566,1.2721,1.1312,0.8555,0.712,0.6024,0.4682,0.0,0.2725,0.0,0.0,0.0,0.0,0.0,0.0,0.0,0.0,0.0,0.0,0.0,0.0,0.0,0.0,0.0,0.0,0.0,0.0,0.0,0.0,-0.5074,-0.4824,-0.3022,-0.1868,-0.1617,-0.1617,-0.1617,-0.1617,-0.1617,-0.1617,-0.1617,-0.1516,-0.1415,-0.1212,-0.0859,-0.0707,-0.0707,-0.0404,-0.0202,0.0,0.0,0.0151,0.0505,0.1311,0.2418,0.3726,0.4481,0.5486,0.6387,0.0,0.0,0.0,0.0,0.0,0.0,0.0,0.0,0.0,0.0,0.0,0.0,1.7113,1.8027,1.8944,1.977,2.07,2.0924,2.0193,2.0302,1.9846,1.8617,1.8707,0.0,1.9108,1.9208,1.8876,1.8019,1.8578,1.8619,1.8208,1.9127,1.9812,2.0246,2.1175,2.1578,2.1617,2.2176,2.2647,2.297,2.2708,2.3062,2.3716,2.314,2.2924,2.294,0.0,0.0,0.0,0.0,0.0,0.0,0.0,0.0,2.3139,0.0,0.0,0.0,1.2995,1.1945,1.1058,0.7409,0.6473,0.5877,0.0,0.0,0.0,0.0,0.0,0.0,0.0,0.0,0.0,0.0,0.0,0.0,0.0,0.0,0.0,0.0,0.0,0.0,0.0,0.0,0.0,0.0,0.0,-0.5882,-0.4874,-0.3723,-0.2672,-0.1617,-0.1617,-0.1617,-0.1617,-0.1617,-0.1617,-0.1617,-0.1364,-0.1212,-0.1162,-0.0657,-0.0404,-0.0404,-0.0152,0.0,0.0,0.0,0.0606,0.1513,0.1563,0.2871,0.4734,0.4784,0.5486,0.6387,0.0,0.0,0.0,0.0,0.0,0.0,0.0,0.0,0.0,0.0,0.0,0.0,0.0,1.8037,1.8831,1.9131,1.9791,1.9955,1.9441,1.9464,1.921,1.8516,1.8134,1.8149,1.869,1.8309,1.7922,1.7623,1.8351,1.8214,1.731,1.8162,1.8655,1.8838,1.9972,2.0721,2.1118,2.1007,2.1273,2.158,2.0997,2.0841,2.0926,2.0177,0.0,0.0,0.0,0.0,0.0,0.0,0.0,0.0,0.0,0.0,0.0,0.0,1.6897,1.4004,1.2328,1.1419,1.0194,0.7167,0.6423,0.5824,0.3681,0.2573,0.0,0.0,0.0,0.0,0.0,0.0,0.0,0.0,0.0,0.0,0.0,0.0,0.0,0.0,0.0,0.0,0.0,0.0,0.0,0.0,0.0,0.0,-0.4824,-0.3123,-0.2019,-0.1617,-0.1617,-0.1617,-0.1617,-0.1617,-0.1516,-0.1364,-0.1263,-0.101,-0.0657,-0.0505,-0.0303,-0.0152,-0.0051,0.0,0.0051,0.0757,0.1261,0.1714,0.3123,0.413,0.4885,0.5584,0.6084,0.6387,0.0,0.0,0.0,0.0,0.0,0.0,0.0,0.0,0.0,1.4955,0.0,0.0,0.0,0.0,1.8735,1.9215,1.9605,1.9691,1.9455,1.9431,1.9271,1.8898,1.8183,1.8052,1.8614,1.79,1.7515,1.7614,1.7919,1.7682,1.7012,1.7686,1.8066,1.8235,1.9097,1.9904,2.0663,2.0446,2.0668,2.1104,1.9925,1.9788,2.0191,0.0,0.0,0.0,0.0,0.0,0.0,0.0,0.0,0.0,0.0,0.0,0.0,0.0,0.0,1.2387,1.1614,1.0841,0.9661,0.7071,0.6221,0.5525,0.363,0.0,0.0,0.0,0.0,0.0,0.0,0.0,0.0,0.0,0.0,0.0,0.0,0.0,0.0,0.0,0.0,0.0,0.0,0.0,0.0,0.0,0.0,0.0,-0.4824,-0.2772,-0.1617,-0.1617,-0.1617,-0.1566,-0.1465,-0.1465,-0.1314,-0.1061,-0.096,-0.0758,-0.0404,-0.0303,-0.0152,0.0,0.0404,0.0555,0.0606,0.1311,0.2016,0.2821,0.423,0.5035,0.5434,0.6134,0.6387,0.6387,0.0,0.0,0.0,0.0,0.0,0.0,0.0,0.0,1.4605,1.4641,0.0,0.0,0.0,0.0,0.0,1.9991,2.0136,2.0142,2.0226,2.0211,1.9981,1.9535,1.8866,1.8636,1.8848,1.8068,1.7779,1.7972,1.7322,1.7136,1.7399,1.7813,1.822,1.8588,1.8596,1.9185,2.0188,2.0483,2.1036,2.1616,0.0,2.0201,2.1784,0.0,0.0,0.0,2.0167,1.9749,0.0,1.8886,0.0,0.0,0.0,0.0,0.0,0.0,0.0,0.0,0.0,0.0,0.0,0.7021,0.0,0.0,0.3479,0.0,0.0,0.0,0.0,0.0,0.0,0.0,0.0,0.0,0.0,0.0,0.0,0.0,0.0,0.0,0.0,0.0,0.0,0.0,0.0,0.0,0.0,-0.4824,-0.4824,-0.2772,-0.1617,-0.1617,-0.1617,-0.1465,-0.1212,-0.1212,-0.1061,-0.0808,-0.0505,-0.0404,-0.0404,-0.0101,0.0,0.0051,0.111,0.1613,0.1664,0.1663,0.2922,0.4784,0.4834,0.5484,0.6387,0.6387,0.6387,0.6387,0.0,0.0,0.0,0.0,0.0,0.0,1.4919,1.5026,1.5133,0.0,0.0,0.0,1.6759,1.7704,1.8316,1.8401,1.8374,1.8458,1.8635,1.8054,1.7683,1.7738,1.7186,1.7051,1.7518,1.6914,1.6748,1.7065,1.7519,1.7449,1.6935,1.7969,1.8485,1.8596,1.8904,1.935,1.9868,2.0161,2.0777,2.1361,1.9722,1.9225,0.0,0.0,0.0,0.0,0.0,1.6466,1.6889,0.0,1.6344,1.6331,0.0,0.0,0.0,0.0,0.0,0.0,1.0556,0.0,0.0,0.0,0.0,0.0,0.0,0.0,0.0,0.0,0.0,0.0,0.0,0.0,0.0,0.0,0.0,0.0,0.0,0.0,0.0,0.0,0.0,0.0,0.0,0.0,0.0,0.0,-0.6029,-0.4824,-0.4824,-0.2772,-0.1617,-0.1617,-0.1617,-0.1465,-0.1212,-0.1212,-0.096,-0.0505,-0.0455,-0.0303,-0.0101,-0.0051,0.0,0.0051,0.111,0.2016,0.2821,0.3575,0.428,0.4885,0.5634,0.6134,0.6387,0.6387,0.6387,0.6387,0.0,0.0,0.0,0.0,0.0,1.4049,1.4848,1.5005,1.5238,0.0,0.0,0.0,1.7469,1.739,1.7435,1.7792,1.7564,1.755,1.7861,1.7493,1.7299,1.7407,1.6849,1.672,1.7165,1.6437,1.6268,1.6689,1.7073,1.6936,1.6362,1.7471,1.7933,1.7927,1.8529,1.8913,1.9154,1.9371,0.0,0.0,1.8585,0.0,0.0,1.6412,1.6001,0.0,0.0,0.0,1.5812,1.4914,1.4717,0.0,0.0,0.0,0.0,0.0,0.0,0.0,0.0,0.0,0.0,0.0,0.0,0.0,0.2923,0.1361,0.0,0.0,0.0,0.0,0.0,0.0,0.0,0.0,0.0,0.0,0.0,0.0,0.0,0.0,0.0,0.0,0.0,0.0,0.0,-0.7988,-0.6029,-0.4423,-0.3524,-0.227,-0.1617,-0.1617,-0.1516,-0.1314,-0.1061,-0.0909,-0.0657,-0.0253,-0.0253,-0.0152,0.0,0.0,0.0252,0.0706,0.1815,0.2871,0.3927,0.5033,0.5486,0.5536,0.6137,0.6387,0.6387,0.6387,0.6387,0.6387,0.0,0.0,0.0,1.431,1.4088,1.3958,1.4624,1.4791,1.5093,0.0,1.6721,1.751,1.794,1.675,1.6401,1.7631,1.7218,1.7106,1.752,1.7634,1.7715,1.7715,1.7074,1.687,1.7155,1.6179,1.5959,1.6539,1.6266,1.6078,1.5921,1.6757,1.7095,1.7047,1.7861,0.0,1.8211,0.0,0.0,1.7886,1.6908,1.7008,0.0,0.0,1.6633,1.7375,1.6297,1.588,1.5548,1.3908,1.3335,0.0,0.0,0.0,0.0,0.0,1.0569,0.0,0.0,0.0,0.0,0.0,0.0,0.0,0.3077,0.1262,-0.0101,0.0,0.0,0.0,0.0,0.0,0.0,0.0,0.0,0.0,0.0,0.0,0.0,0.0,0.0,0.0,0.0,-0.7988,-0.7988,-0.7988,-0.6029,-0.3924,-0.1868,-0.1667,-0.1617,-0.1617,-0.1364,-0.1061,-0.0808,-0.0556,-0.0253,0.0,0.0,0.0,0.0,0.0,0.0606,0.1664,0.272,0.3827,0.4885,0.5937,0.6387,0.6387,0.6387,0.6387,0.6387,0.6387,0.6387,0.6387,0.0,0.0,1.3112,1.3833,1.3652,1.3857,1.5275,1.4993,1.5019,1.5997,1.626,1.6158,1.558,1.6093,1.6435,1.6172,1.6228,1.639,1.6624,1.6188,1.5914,1.5914,1.5269,1.5103,1.5533,1.4754,1.4699,1.5397,1.5716,1.6056,1.6448,1.7268,1.7631,1.7643,1.8132,1.7826,1.6861,0.0,0.0,1.548,1.6217,0.0,1.6438,1.5378,1.4723,1.434,1.41,1.3763,1.3329,1.2559,1.2268,1.2219,0.0,0.0,0.0,0.0,0.0,0.0,0.0,0.0,0.0,0.0,0.0,0.0,0.1764,0.0907,0.0252,0.0,0.0,0.0,0.0,0.0,0.0,0.0,0.0,0.0,0.0,0.0,0.0,0.0,0.0,0.0,0.0,-0.7988,-0.7988,-0.7988,-0.6029,-0.4225,-0.2973,-0.207,-0.1617,-0.1617,-0.1364,-0.1061,-0.0808,-0.0556,-0.0253,0.0,0.0,0.0,0.0,0.0,0.0606,0.1664,0.272,0.3827,0.4885,0.5937,0.6387,0.6387,0.6387,0.6387,0.6387,0.6387,0.6387,0.6387,1.2379,1.2631,1.2866,1.3615,1.3359,1.3424,1.4531,1.4489,1.4655,1.5584,1.5719,1.5764,1.5764,1.5546,1.5494,1.5732,1.5593,1.5673,1.6048,1.5813,1.5505,1.5102,1.5275,1.5325,1.5152,1.5275,1.5648,1.6249,1.6726,1.6988,1.7101,1.7334,1.7311,1.6977,1.6811,1.6325,1.5615,0.0,1.5194,1.4586,1.5289,0.0,1.5134,1.3944,1.3522,1.3346,1.2349,1.1614,1.1184,1.089,1.0895,0.0,0.0,0.9809,0.9558,0.0,0.7965,0.6478,0.0,0.0,0.0,0.4131,0.0,0.0,0.0,0.1109,0.0454,-0.0757,0.0,0.0,0.0,0.0,0.0,0.0,0.0,0.0,0.0,0.0,0.0,0.0,0.0,0.0,0.0,-0.7988,-0.776,-0.714,-0.5601,-0.4224,-0.3176,-0.2139,-0.1551,-0.1414,-0.1162,-0.0859,-0.0606,-0.0354,-0.0152,0.0,0.0,0.0,0.0,0.0,0.0858,0.2418,0.2972,0.4128,0.5636,0.6187,0.6387,0.6387,0.6387,0.6387,0.6387,0.6387,0.6387,0.6387,1.2389,1.2659,1.2854,1.3565,1.3233,1.3114,1.3736,1.3864,1.4138,1.4892,1.5076,1.5352,1.5869,1.4685,1.4146,1.4924,1.4589,1.4592,1.528,1.5569,1.5517,1.5051,1.5732,1.5873,1.5332,1.5917,1.6485,1.6994,1.7303,1.7339,1.7166,1.6824,1.6362,1.5866,1.5166,1.479,1.464,0.0,0.0,1.4154,0.0,1.44,1.4148,1.2829,1.264,1.2845,1.0818,0.9792,0.946,0.9612,0.0,0.9871,0.9225,0.9011,0.0,0.0,0.0,0.0,0.0,0.0,0.0,0.0,0.0,0.2927,0.0,0.0,0.0,-0.0454,-0.1162,0.0,0.0,0.0,0.0,0.0,0.0,0.0,0.0,0.0,0.0,0.0,0.0,0.0,0.0,-0.7904,-0.7508,-0.652,-0.5317,-0.421,-0.3354,-0.2153,-0.1434,-0.1206,-0.0907,-0.0606,-0.0404,-0.0152,0.0,0.0,0.0,0.0,0.0,0.0202,0.1361,0.3224,0.3425,0.4628,0.6387,0.6387,0.6387,0.6387,0.6387,0.6387,0.6387,0.6387,0.6387,0.6387,1.3231,1.3558,1.3565,1.3678,1.34,1.3452,1.4263,1.3862,1.3643,1.4154,1.423,1.399,1.3252,1.2997,0.0,1.2125,0.0,0.0,1.3865,0.0,1.5013,1.5842,1.5428,1.5294,1.5665,1.493,1.4921,1.562,1.5239,1.5292,1.5623,1.5203,1.4943,1.4831,1.4298,1.4148,1.4298,0.0,1.3636,0.0,1.3636,1.3919,0.0,1.2829,1.2096,1.1565,0.9657,0.892,0.9023,0.0,0.9969,0.9969,0.0,0.9069,0.7922,0.0,0.0,0.0,0.0,0.0,0.0,0.0,0.318,0.0,0.0,0.0,0.0353,-0.1162,0.0,-0.1617,-0.1617,0.0,0.0,0.0,0.0,0.0,0.0,0.0,0.0,0.0,0.0,0.0,0.0,0.0,-0.7594,-0.7435,-0.5658,-0.4567,-0.4433,-0.238,-0.1229,-0.1182,-0.0701,-0.0455,-0.0404,-0.0152,0.0,0.0,0.0,0.0,0.0051,0.1009,0.2066,0.3274,0.418,0.5284,0.6387,0.6387,0.6387,0.6387,0.6387,0.6387,0.6387,0.6387,0.6387,0.6387,1.2697,1.2909,1.3001,1.3292,1.3262,1.3297,1.3798,1.3838,1.3942,1.412,1.4446,1.4465,0.0,0.0,0.0,0.0,0.0,1.2455,0.0,0.0,1.3649,1.3596,1.4117,0.0,1.3743,1.4123,1.4512,1.492,1.4732,1.4971,1.5615,1.5003,1.4717,1.4669,1.3962,0.0,1.3389,0.0,1.3104,0.0,0.0,0.0,0.0,1.1419,0.9842,0.8559,0.8223,0.7779,0.7481,0.0,0.8024,0.0,0.0,0.0,0.0,0.0,0.0,0.0,0.0,0.0,0.0,0.0,0.0,0.0,0.1159,0.0,0.0353,0.0,0.0,0.0,0.0,0.0,0.0,0.0,0.0,0.0,0.0,0.0,0.0,0.0,0.0,0.0,0.0,0.0,0.0,0.0,0.0,-0.4194,-0.4245,-0.2169,-0.0911,-0.0736,-0.0495,-0.035,-0.0152,-0.0051,0.0,0.0,0.0,0.0,0.0051,0.111,0.2167,0.3274,0.4331,0.5384,0.6387,0.6387,0.6387,0.6387,0.6387,0.6387,0.6387,0.6387,0.6487,0.6639,1.229,1.2463,1.2649,1.3021,1.3137,1.3289,1.3585,0.0,0.0,0.0,0.0,0.0,1.3818,1.3075,0.0,0.0,1.1952,1.1813,0.0,0.0,1.2533,0.0,0.0,0.0,0.0,1.3734,1.4364,1.4507,1.4364,1.4603,1.5175,1.4465,1.4184,1.4136,1.3431,1.3001,1.2813,0.0,1.2565,1.2565,1.2565,1.2219,1.1531,1.0149,0.8269,0.6487,0.7083,0.6883,0.6434,0.6637,0.6883,0.0,0.6184,0.0,0.0,0.0,0.0,0.0,0.4133,0.0,0.0,0.0,0.0,0.0,0.0,0.0,0.0,0.0,0.0,0.0,0.0,0.0,-0.1614,0.0,0.0,0.0,0.0,0.0,0.0,0.0,0.0,0.0,0.0,0.0,0.0,0.0,0.0,0.0,-0.3471,-0.1703,-0.0611,-0.0389,-0.0343,-0.0198,0.0,0.0,0.0,0.0,0.0,0.0151,0.0454,0.1563,0.262,0.3676,0.4782,0.5684,0.6387,0.6387,0.6387,0.6387,0.6387,0.6387,0.6387,0.6487,0.6639,0.6795,1.2607,1.2912,1.3088,1.3094,0.0,0.0,0.0,0.0,0.0,0.0,0.0,0.0,0.0,0.0,0.0,0.0,0.0,1.0,1.1161,0.0,1.2047,0.0,0.0,1.3878,0.0,0.0,1.4316,1.4316,1.3794,1.3559,1.3559,1.3093,1.2861,1.2856,1.2273,1.2322,1.2764,1.2273,1.2029,1.2029,1.2029,1.0797,0.897,0.0,0.8269,0.6387,0.6437,0.0,0.0,0.7282,0.758,0.0,0.0,0.0,0.0,0.0,0.0,0.0,0.0,0.0,0.0,0.318,0.0,0.0,0.0,0.0,0.0353,0.0,0.0,0.0,0.0,-0.1617,-0.1607,0.0,0.0,0.0,0.0,0.0,0.0,0.0,0.0,0.0,0.0,0.0,0.0,0.0,0.0,0.0,-0.2195,-0.1051,-0.042,-0.0381,-0.0146,0.0,0.0,0.0,0.0,0.0,0.0,0.0555,0.1563,0.267,0.3728,0.4784,0.5884,0.6387,0.6387,0.6387,0.6387,0.6387,0.6387,0.6387,0.6437,0.6692,0.6795,0.6842,1.2851,1.2762,1.2777,1.3436,0.0,0.0,0.0,1.3989,0.0,0.0,0.0,0.0,0.0,1.135,1.0851,0.0,0.0,0.9706,1.0105,1.0207,0.0,0.0,0.0,1.1321,0.0,0.0,0.0,0.0,1.1965,1.2165,1.2511,1.2467,1.249,1.2446,1.24,1.2239,0.0,0.0,0.0,0.0,0.0,0.991,0.9068,0.0,0.0,0.6337,0.5987,0.6087,0.0,0.6734,0.6334,0.5734,0.5534,0.4883,0.4081,0.3581,0.3331,0.0,0.0,0.0,0.318,0.318,0.0,0.0,0.0,0.0,0.0,0.0,0.0,0.0,0.0,0.0,0.0,0.0,0.0,0.0,0.0,0.0,0.0,0.0,0.0,0.0,0.0,0.0,0.0,0.0,0.0,0.0,0.0,-0.0768,-0.0138,-0.0143,-0.0048,0.0,0.0,0.0,0.0,0.0,0.0,0.0555,0.1613,0.272,0.3776,0.4885,0.5937,0.6387,0.6387,0.6387,0.6387,0.6387,0.6387,0.6489,0.6692,0.6742,0.6892,0.7138,1.2041,1.193,0.0,0.0,0.0,0.0,0.0,0.0,0.0,0.0,1.2057,0.0,1.1614,0.0,1.0641,0.0,1.0015,0.9579,0.9579,0.9579,0.0,0.9579,0.9875,0.0,0.0,0.0,0.0,0.0,0.0,1.2542,1.3019,1.3116,1.3036,1.2729,1.2879,1.2357,1.1471,1.1471,1.142,0.0,0.0,0.9362,0.0,0.0,0.7014,0.6516,0.0,0.6233,0.6452,0.625,0.5718,0.5035,0.4634,0.4033,0.343,0.3281,0.318,0.318,0.318,0.318,0.0,0.2826,0.2775,0.0,0.0756,0.0,0.0,0.0,0.0,0.0,0.0,0.0,0.0,0.0,0.0,0.0,0.0,-0.2958,0.0,0.0,0.0,0.0,0.0,0.0,0.0,-0.3883,-0.2281,0.0,0.0,0.0,0.0,0.0,0.0,0.0,0.0,0.0,0.0,0.0,0.0404,0.111,0.2217,0.3274,0.4329,0.5384,0.6087,0.6387,0.6387,0.6387,0.6437,0.6539,0.6539,0.6689,0.6942,0.6942,0.7188,0.7537,1.0297,0.0,0.0,0.0,1.2201,0.0,0.0,0.0,1.195,0.0,1.1121,1.0739,0.9727,0.9579,0.9579,0.9579,0.9579,0.9579,0.9579,0.9579,0.0,0.0,0.9821,0.9969,0.9969,0.0,0.0,0.0,0.0,1.4473,1.4838,1.485,1.4342,1.3521,1.3532,0.0,1.1417,1.1417,1.1209,1.0737,0.959,0.9021,0.8653,0.6957,0.6542,0.6817,0.6754,0.6675,0.6473,0.595,0.5676,0.5343,0.4334,0.3982,0.3883,0.3331,0.318,0.318,0.318,0.318,0.3027,0.2219,0.0,0.0,0.0,0.0,-0.0606,0.0,0.0,0.0,0.0,0.0,0.0,0.0,0.0,0.0,0.0,0.0,0.0,0.0,0.0,0.0,0.0,0.0,-0.2998,-0.1879,-0.0896,-0.0269,0.0,0.0,0.0,0.0,0.0,0.0,0.0,0.0,0.0,0.0,0.111,0.2167,0.3224,0.4331,0.5386,0.6387,0.6387,0.6387,0.6387,0.6437,0.6589,0.6795,0.6795,0.6992,0.7238,0.7238,0.754,0.7988,1.0598,1.0585,1.0351,0.0,1.1153,1.1961,0.0,0.0,0.0,0.0,1.0015,0.9916,0.9628,0.9579,0.9579,0.9579,0.9579,0.0,0.0,0.0,0.0,0.9579,0.9677,0.9723,0.9723,1.1091,0.0,1.2396,0.0,1.461,1.5113,1.5269,1.4734,1.3712,1.3953,1.3148,1.1636,1.1636,1.0934,0.9811,0.9021,0.8365,0.0,0.0,0.6621,0.704,0.6437,0.6147,0.6058,0.5874,0.5212,0.4413,0.41,0.3732,0.3381,0.323,0.318,0.318,0.318,0.318,0.3027,0.2219,0.2017,0.1564,0.0,0.0,0.0,0.0,0.0,0.0,0.0,0.0,0.0,0.0,0.0,0.0,0.0,0.0,0.0,0.0,0.0,0.0,0.0,-0.322,-0.1837,-0.1524,-0.0628,-0.009,0.0,0.0,0.0,0.0,0.0,0.0,0.0,0.0,0.0,0.0,0.111,0.2167,0.3224,0.4331,0.5386,0.6387,0.6387,0.6387,0.6437,0.6589,0.6742,0.6845,0.7042,0.7241,0.7494,0.7494,0.7693,0.7988,0.9506,0.0,0.0,0.8726,0.0,0.0,1.0252,0.0,0.0,0.9023,0.8924,0.0,0.8273,0.8623,0.8924,0.8924,0.9327,0.0,0.9579,0.0,0.0,0.9579,0.9579,0.9579,0.9579,1.0982,0.0,1.2134,0.0,0.0,1.492,1.5126,1.4687,1.3747,1.4051,1.3234,1.1626,1.0808,0.9989,0.9121,0.772,0.0,0.0,0.5929,0.5873,0.6352,0.5863,0.5808,0.5908,0.5369,0.4721,0.4037,0.3791,0.3454,0.318,0.318,0.318,0.318,0.318,0.318,0.2927,0.1765,0.1462,0.1059,-0.0555,-0.0909,-0.101,0.0,0.0,0.0,0.0,0.0,0.0,0.0,0.0,0.0,0.0,0.0,0.0,0.0,0.0,0.0,0.0,-0.2283,-0.1211,-0.0808,-0.0314,0.0,0.0,0.0,0.0,0.0,0.0,0.0,0.0,0.0,0.0,0.0,0.1563,0.262,0.3274,0.478,0.5834,0.6387,0.6387,0.6487,0.6589,0.6742,0.6945,0.7194,0.7441,0.764,0.7793,0.7793,0.7892,0.7988,0.7939,0.0,0.0,0.0,0.0,0.0,0.0,0.8931,0.0,0.7822,0.0,0.7422,0.6523,0.7223,0.7822,0.7971,0.0,0.9426,0.9579,0.9579,0.9591,0.9661,0.9661,0.9673,0.9697,1.1043,0.0,0.0,0.0,1.4202,1.4548,1.4815,1.4467,1.3673,1.3948,0.0,0.0,0.9581,0.8699,0.8257,0.6316,0.5761,0.5984,0.4981,0.4918,0.5343,0.5209,0.5456,0.5728,0.4723,0.4199,0.3887,0.3415,0.3221,0.318,0.318,0.318,0.318,0.318,0.318,0.2826,0.121,0.0806,0.0454,-0.1161,-0.1516,-0.1415,-0.1212,-0.1162,-0.1061,0.0,0.0,0.0,0.0,0.0,0.0,0.0,0.0,0.0,0.0,0.0,0.0,0.0,0.0,-0.0898,-0.0045,0.0,0.0,0.0,0.0,0.0,0.0,0.0,0.0,0.0,0.0,0.0051,0.0252,0.2217,0.3274,0.3475,0.5482,0.6387,0.6387,0.6437,0.6589,0.6795,0.6895,0.7194,0.7696,0.7892,0.7988,0.7988,0.7988,0.7988,0.7988,0.0,0.0,0.0,0.0,0.0,0.7415,0.7021,0.6728,0.6528,0.6379,0.6526,0.6623,0.6423,0.6573,0.7021,0.7922,0.8173,0.0,0.0,0.0,0.0,0.9835,0.9839,0.9912,1.0067,1.1176,1.1935,0.0,0.0,0.0,1.4915,1.4969,1.4415,1.3344,1.3452,0.0,0.9746,0.914,0.0,0.6038,0.6096,0.5594,0.4869,0.5148,0.5269,0.5257,0.4751,0.4638,0.4673,0.4332,0.3857,0.3415,0.3262,0.3188,0.318,0.318,0.318,0.318,0.318,0.318,0.2826,0.121,0.0958,0.0706,-0.0909,-0.1111,-0.0909,-0.0859,-0.0859,-0.0808,-0.0505,0.0,0.0,0.0,0.0,0.0,0.0,0.0,0.0,0.0,0.0,0.0,0.0,0.0,0.0,0.0,0.0,0.0,0.0,0.0,0.0,0.0,0.0,0.0,0.0,0.0,0.0454,0.1311,0.262,0.3676,0.4582,0.5834,0.6387,0.6437,0.6639,0.6742,0.6845,0.7294,0.7643,0.7942,0.7988,0.7988,0.7988,0.7988,0.7988,0.7988,0.0,0.0,0.0,0.0,0.0,0.0,0.0,0.4576,0.0,0.5281,0.5482,0.5379,0.4778,0.5229,0.5779,0.6279,0.6885,0.7428,0.7938,0.8008,0.808,0.8202,0.8781,0.0,0.9265,1.0403,1.1182,1.1482,0.0,0.0,1.2788,1.2896,1.2689,1.2155,1.1828,1.084,0.0,0.0,0.0,0.5371,0.5037,0.4534,0.4089,0.4369,0.4433,0.4307,0.4002,0.386,0.3825,0.3797,0.3556,0.3316,0.3288,0.3205,0.318,0.318,0.318,0.318,0.318,0.338,0.3177,0.1462,0.131,0.116,-0.0606,-0.0909,-0.0758,-0.0606,-0.0606,-0.0505,-0.0253,-0.0099,0.0,0.0,0.0,0.0,0.0,0.0,0.0,0.0,0.0,0.0,0.0,0.0,0.0,0.0,0.0,0.0,0.0,0.0,0.0,0.0,0.0,0.0,0.0,0.0,0.0,0.1613,0.267,0.3776,0.4834,0.5934,0.6387,0.6437,0.6692,0.6892,0.7042,0.7593,0.7892,0.7988,0.7988,0.7988,0.7988,0.7988,0.7988,0.7988,0.0,0.5377,0.0,0.0,0.4574,0.0,0.3775,0.3024,0.2924,0.4232,0.4433,0.4133,0.3281,0.3932,0.4541,0.4808,0.5634,0.6254,0.6486,0.6574,0.6743,0.7034,0.7939,0.8593,0.8892,0.993,1.0435,0.0,0.0,0.0,0.0,1.0895,1.1072,0.0,0.0,0.0,0.0,0.0,0.5817,0.4925,0.3977,0.3587,0.3586,0.3572,0.353,0.3471,0.3414,0.3353,0.3309,0.3358,0.3342,0.3301,0.3301,0.3217,0.318,0.318,0.318,0.323,0.3331,0.3682,0.3578,0.1814,0.1714,0.1614,-0.0303,-0.0657,-0.0556,-0.0354,-0.0303,-0.0252,-0.005,0.0,0.0,0.0,0.0,0.0,0.0,0.0,0.0,0.0,0.0,0.0,0.0,0.0,0.0,0.0,0.0,0.0,0.0,0.0,0.0,0.0,0.0,0.0,0.0,0.0,0.0656,0.0,0.2771,0.3877,0.5183,0.6037,0.6437,0.6487,0.6789,0.7092,0.7388,0.7839,0.7988,0.7988,0.7988,0.7988,0.7988,0.7988,0.7988,0.7988,0.0,0.0,0.0,0.0,0.0,0.0,0.0,0.2825,0.2826,0.2976,0.3179,0.3331,0.323,0.3281,0.3756,0.4787,0.5008,0.5512,0.6498,0.6619,0.7152,0.8451,0.8619,0.9226,1.0471,1.0605,1.0668,0.0,0.0,0.0,0.0,0.0,0.0,0.0,0.0,0.0,0.0,0.6702,0.5316,0.3755,0.3643,0.3587,0.358,0.3526,0.347,0.3413,0.3352,0.329,0.3189,0.3195,0.3193,0.3188,0.3188,0.3185,0.318,0.318,0.318,0.3331,0.3783,0.3982,0.3681,0.2268,0.2169,0.1866,0.0,-0.0253,-0.0051,-0.0051,-0.0051,-0.005,0.0,0.0,0.0,0.0,0.0,0.0,0.0,0.0,0.0,0.0,0.0,0.0,0.0,0.0,0.0,0.0,0.0,0.0,0.0,0.0,0.0,0.0,0.0,0.0,0.0,0.0,0.0,0.3073,0.3173,0.4277,0.6237,0.6337,0.6539,0.6792,0.7042,0.7437,0.7939,0.7988,0.7988,0.7988,0.7988,0.7988,0.7988,0.7988,0.7988,0.7988,0.0,0.0,0.0,0.0,0.0,0.0,0.0,0.2674,0.2876,0.3027,0.313,0.3193,0.3281,0.3285,0.3463,0.3944,0.4039,0.4235,0.4694,0.4796,0.5385,0.6686,0.7399,0.8304,0.9585,1.0304,1.0802,0.0,0.0,0.0,0.0,0.0,0.0,0.0,0.0,0.9302,0.7578,0.7202,0.5759,0.3643,0.3977,0.3921,0.358,0.3519,0.3462,0.3405,0.3343,0.3282,0.318,0.318,0.318,0.318,0.318,0.318,0.3281,0.3581,0.3682,0.3783,0.4334,0.4734,0.4533,0.2671,0.2572,0.2369,0.0303,-0.0101,0.0,0.0,0.0,0.0,0.0,0.0,0.0,0.0,0.0,0.0,0.0,0.0,0.0,0.0,0.0,0.0,0.0,0.0,0.0,0.0,0.0,0.0,0.0,0.0,0.0,0.0,0.0,0.0,0.0,0.0656,0.1714,0.3224,0.3879,0.5033,0.6639,0.6639,0.6892,0.7294,0.7394,0.764,0.7988,0.7988,0.7988,0.7988,0.7988,0.7988,0.7988,0.7988,0.7988,0.7988,0.0858,0.0,0.1414,0.0,0.1968,0.2422,0.2422,0.2674,0.2977,0.318,0.3195,0.3223,0.3316,0.3322,0.3353,0.3431,0.3473,0.3504,0.3522,0.3729,0.4424,0.5594,0.6866,0.0,0.9254,1.0414,1.1076,1.1236,1.1076,0.0,0.0,0.0,0.0,0.0,1.0743,0.9464,0.7965,0.7423,0.5926,0.3923,0.4313,0.4132,0.3553,0.3657,0.3649,0.3587,0.3523,0.3571,0.3632,0.3481,0.3531,0.3632,0.3481,0.3531,0.3732,0.4133,0.4234,0.4334,0.4885,0.5083,0.473,0.3074,0.2671,0.2267,0.0404,0.0,0.0,0.0,0.0,0.0,0.0,0.0,0.0,0.0,0.0,0.0,0.0,0.0,0.0,0.0,0.0,0.0,0.0,0.0,0.0,0.0,0.0,0.0,0.0,0.0,0.0,0.0,0.0,0.0,0.0,0.1059,0.2167,0.3323,0.4429,0.5636,0.6942,0.6995,0.7244,0.7596,0.7696,0.7842,0.7988,0.7988,0.7988,0.7988,0.7988,0.7988,0.7988,0.7988,0.7988,0.7988,-0.1613,-0.0706,0.0,0.0,0.1361,0.2422,0.2422,0.2876,0.318,0.318,0.3283,0.332,0.3322,0.3322,0.3368,0.3485,0.3496,0.3522,0.3582,0.4145,0.5037,0.0,0.0,0.9027,1.0143,1.1131,1.1568,1.1568,0.0,0.0,1.1296,0.0,1.1554,1.1896,1.0186,0.9244,0.8793,0.7035,0.5594,0.448,0.448,0.4103,0.3545,0.4022,0.4162,0.4087,0.4011,0.4334,0.4684,0.4183,0.4334,0.4684,0.4133,0.4334,0.4784,0.4784,0.4784,0.4885,0.5436,0.483,0.3875,0.3323,0.2418,0.1311,0.0252,0.0,0.0,0.0,0.0,0.0,0.0,0.0,0.0,0.0,0.0,0.0,0.0,0.0,0.0,0.0,0.0,0.0,0.0,0.0,0.0,0.0,0.0,0.0,0.0,0.0,0.0,0.0,0.0,0.0,0.0,0.1059,0.2266,0.362,0.4676,0.5882,0.7188,0.7494,0.7596,0.7596,0.7892,0.7988,0.7988,0.7988,0.7988,0.7988,0.7988,0.7988,0.7988,0.7988,0.7988,0.7988,-0.1664,-0.131,-0.0958,-0.0605,0.005,0.0605,0.0959,0.1326,0.1799,0.2365,0.2455,0.2706,0.3382,0.344,0.3473,0.0,0.3946,0.4177,0.0,0.4758,0.565,0.6877,0.7374,0.8423,1.0143,0.9915,1.0464,1.1896,0.0,0.0,0.0,1.1806,1.1615,1.1345,1.0798,0.9633,0.8029,0.787,0.676,0.5144,0.5473,0.5213,0.4682,0.4652,0.4685,0.465,0.4564,0.4634,0.4784,0.4583,0.4431,0.4227,0.4078,0.3877,0.3776,0.4126,0.4277,0.4529,0.5784,0.5384,0.4331,0.3425,0.2418,0.1311,0.0252,0.0,0.0,0.0,0.0,0.0,0.0,0.0,0.0,0.0,0.0,0.0,0.0,0.0,0.0,0.0,0.0,0.0,0.0,0.0,0.0,0.0,0.0,0.0,0.0,0.0,0.0,0.0,0.0,0.0,0.0,0.1964,0.3169,0.362,0.5629,0.6886,0.7494,0.7743,0.7892,0.7892,0.7942,0.7988,0.7988,0.7988,0.7988,0.7988,0.7988,0.7988,0.7988,0.7988,0.7988,0.7988,-0.2871,-0.2469,-0.2016,-0.1513,-0.0857,-0.0202,0.0306,0.0618,0.0987,0.1517,0.1915,0.2376,0.2947,0.3516,0.0,0.3918,0.4257,0.459,0.4814,0.5427,0.6096,0.6818,0.7376,0.8263,0.9533,0.0,0.0,1.1678,1.1236,1.14,1.2164,1.1841,1.1455,1.1072,1.0414,0.9309,0.7928,0.7983,0.7152,0.5753,0.5989,0.571,0.5175,0.5183,0.5205,0.5167,0.5107,0.5236,0.5284,0.468,0.4429,0.4176,0.3373,0.287,0.272,0.3473,0.3725,0.3925,0.4931,0.4429,0.3425,0.2771,0.1815,0.0807,0.0151,0.0,0.0,0.0,0.0,0.0,0.0,0.0,0.0,0.0,0.0,0.0,0.0,0.0,0.0,0.0,0.0,0.0,0.0,0.0,0.0,0.0,0.0,0.0,0.0,0.0,0.0,0.0,0.0101,0.0,0.0756,0.2767,0.4022,0.4522,0.6531,0.759,0.7743,0.7942,0.7988,0.7988,0.7988,0.7988,0.7988,0.7988,0.7988,0.7988,0.7988,0.7988,0.7988,0.7988,0.7988,0.7988,-0.4834,-0.3979,0.0,0.0,-0.1412,0.0,0.0155,0.0467,0.0627,0.0639,0.1517,0.2136,0.2246,0.3607,0.4536,0.4592,0.0,0.0,0.0,0.604,0.6374,0.6374,0.7651,0.8429,0.8484,0.9251,1.0076,1.0907,1.1782,1.2219,1.2219,1.14,1.0962,1.0852,0.9199,0.8484,0.8374,0.7543,0.6871,0.6354,0.6198,0.577,0.5246,0.5617,0.5722,0.5634,0.5634,0.5937,0.6084,0.4578,0.4279,0.423,0.2217,0.1563,0.1714,0.2771,0.3073,0.3123,0.3173,0.2418,0.1613,0.1613,0.0807,0.0,0.0,0.0,0.0,0.0,0.0,0.0,0.0,0.0,0.0,0.0,0.0,0.0,0.0,0.0,0.0,0.0,0.0,0.0,0.0,0.0,0.0,0.0,0.0,0.0,0.0,0.0,0.0051,0.0051,0.0253,0.0908,0.2013,0.337,0.4726,0.6129,0.7385,0.7988,0.7988,0.7988,0.7988,0.7988,0.7988,0.7988,0.7988,0.7988,0.7988,0.7988,0.7988,0.7988,0.7988,0.7988,0.7988,0.7988,0.0,0.0,-0.4131,-0.3179,-0.2725,-0.2234,-0.1346,-0.1154,-0.0852,-0.0217,0.0662,0.1615,0.2781,0.3854,0.4869,0.5817,0.5873,0.5929,0.6096,0.6652,0.6988,0.6988,0.7321,0.782,0.8484,0.8039,0.826,0.9089,0.9966,1.0402,1.0402,1.0182,0.9746,0.9092,0.8706,0.8152,0.7487,0.7265,0.7048,0.685,0.6679,0.6456,0.6236,0.6222,0.621,0.6234,0.6234,0.5787,0.5135,0.4732,0.3626,0.2267,0.1765,0.1059,0.0606,0.1664,0.1966,0.2167,0.2972,0.2418,0.1613,0.1613,0.0807,0.0,0.0,0.0,0.0,0.0,0.0,0.0,0.0,0.0,0.0,0.0,0.0,0.0,0.0,0.0,0.0,0.0,0.0,0.0,0.0,0.0,0.0,0.0,0.0,0.0,0.0,0.0303,0.0303,0.0303,0.0354,0.1009,0.2315,0.362,0.5375,0.7537,0.7839,0.7988,0.7988,0.7988,0.7988,0.7988,0.7988,0.7988,0.7988,0.7988,0.7988,0.7988,0.7988,0.7988,0.7988,0.7988,0.7988,0.7988,-0.4784,-0.4583,-0.4183,-0.3331,-0.2977,-0.2598,-0.1832,-0.1695,-0.1559,-0.1103,-0.0279,0.0784,0.1959,0.3414,0.47,0.5817,0.6151,0.6429,0.671,0.7043,0.721,0.721,0.721,0.7432,0.7875,0.7432,0.7654,0.8484,0.9361,0.9798,0.9798,0.9412,0.8978,0.8484,0.8097,0.7654,0.7207,0.7155,0.7043,0.697,0.679,0.6679,0.6605,0.6433,0.6387,0.6387,0.6387,0.5737,0.4734,0.423,0.2972,0.1513,0.1009,0.0454,0.0101,0.0707,0.0858,0.1009,0.1563,0.1311,0.0858,0.0858,0.0454,0.0,0.0,0.0,0.0,0.0,0.0,0.0,0.0,0.0,0.0,0.0,0.0,0.0,0.0,0.0,0.0,0.0,0.0,0.0,0.0,0.0,0.0051,0.0152,0.0,0.0,0.0556,0.1059,0.111,0.0606,0.116,0.2065,0.3318,0.5122,0.6678,0.7988,0.7988,0.7988,0.7988,0.7988,0.7988,0.7988,0.7988,0.7988,0.7988,0.7988,0.7988,0.7988,0.7988,0.7988,0.7988,0.7988,0.7988,0.7988,-0.4985,-0.4435,-0.3831,-0.3281,-0.2775,-0.2247,-0.1747,-0.1704,-0.1726,-0.1787,-0.1009,0.0,0.1065,0.2855,0.4475,0.5594,0.6151,0.6652,0.7154,0.721,0.721,0.721,0.721,0.721,0.721,0.721,0.7543,0.8318,0.903,0.9412,0.9412,0.8647,0.8318,0.8263,0.7543,0.721,0.7202,0.7032,0.6975,0.6937,0.6711,0.6608,0.6581,0.6425,0.6387,0.6387,0.6387,0.5584,0.4431,0.3525,0.2368,0.1211,0.0303,0.0,0.0,0.0,0.0,0.0,0.0,0.0,0.0,0.0,0.0,0.0,0.0,0.0,0.0,0.0,0.0,0.0,0.0,0.0,0.0,0.0,0.0,0.0,0.0,0.0,0.0,0.0,0.0,0.0,0.0051,0.0051,0.0152,0.0455,0.0404,0.0606,0.0,0.1914,0.2116,0.1413,0.2468,0.3571,0.4672,0.688,0.7988,0.7988,0.7988,0.7988,0.7988,0.7988,0.7988,0.7988,0.7988,0.7988,0.7988,0.7988,0.7988,0.7988,0.7988,0.7988,0.7988,0.7988,0.7988,0.7988,-0.5792,-0.4836,-0.3831,-0.3281,-0.2775,-0.2247,-0.1747,-0.1704,-0.1726,-0.1787,-0.1009,0.0336,0.2237,0.3357,0.481,0.6763,0.6988,0.7099,0.721,0.721,0.721,0.721,0.721,0.721,0.721,0.721,0.7265,0.7376,0.754,0.7595,0.7595,0.7485,0.7376,0.7376,0.7265,0.721,0.7202,0.7032,0.6923,0.6817,0.6676,0.6556,0.6414,0.6392,0.6387,0.6387,0.6387,0.5131,0.3425,0.3274,0.1865,0.0202,0.0051,0.0,0.0,0.0,0.0,0.0,0.0,0.0,0.0,0.0,0.0,0.0,0.0,0.0,0.0,0.0,0.0,0.0,0.0,0.0,0.0,0.0,0.0,0.0,0.0,0.0,0.0,0.0,0.0,0.0101,0.0303,0.0354,0.0455,0.0707,0.0505,0.1009,0.2418,0.2416,0.2968,0.4123,0.4171,0.4772,0.6084,0.7335,0.7988,0.7988,0.7988,0.7988,0.7988,0.7988,0.7988,0.7988,0.7988,0.7988,0.7988,0.7988,0.7988,0.7988,0.7988,0.7988,0.7988,0.7988,0.7988,0.7988,-0.5992,-0.4686,-0.3481,-0.323,-0.2523,-0.1885,-0.1727,-0.1682,-0.1697,-0.174,-0.0935,0.0276,0.2042,0.3284,0.4754,0.6541,0.6988,0.721,0.721,0.721,0.721,0.721,0.721,0.721,0.721,0.721,0.721,0.721,0.721,0.721,0.721,0.721,0.721,0.721,0.721,0.7177,0.7056,0.6937,0.6817,0.6692,0.657,0.6435,0.6387,0.6387,0.6387,0.6337,0.5734,0.4529,0.3123,0.2519,0.1311,0.0,0.0,0.0,0.0,0.0,0.0,0.0,0.0,0.0,0.0,0.0,0.0,0.0,0.0,0.0,0.0,0.0,0.0,0.0,0.0,0.0,0.0,0.0,0.0,0.0,0.0,0.0,0.0051,0.0202,0.0202,0.0253,0.0404,0.0404,0.0455,0.0556,0.116,0.1865,0.277,0.3924,0.4876,0.5629,0.5529,0.6029,0.7238,0.7739,0.7988,0.7988,0.7988,0.7988,0.7988,0.7988,0.7988,0.7988,0.7988,0.7988,0.7988,0.7988,0.7988,0.7988,0.7988,0.7988,0.7988,0.7988,0.7988,0.7988,-0.6289,-0.4636,-0.318,-0.318,-0.2323,-0.1627,-0.171,-0.1714,-0.162,-0.1434,-0.0862,0.0271,0.2061,0.3303,0.4672,0.6337,0.6916,0.721,0.721,0.721,0.721,0.721,0.721,0.721,0.721,0.721,0.721,0.721,0.721,0.721,0.721,0.721,0.721,0.721,0.7182,0.7122,0.6975,0.6823,0.6706,0.6608,0.6435,0.6387,0.6387,0.6387,0.6237,0.5937,0.5085,0.3927,0.272,0.1865,0.0908,0.0,0.0,0.0,0.0,0.0,0.0,0.0,0.0,0.0,0.0,0.0,0.0,0.0,0.0,0.0,0.0,0.0,0.0,0.0,0.0,0.0,0.0,0.0,0.0,0.0,0.0,0.0,0.0101,0.0303,0.0505,0.0606,0.0505,0.0959,0.116,0.106,0.2165,0.3069,0.3623,0.5329,0.6437,0.6786,0.6786,0.7185,0.7988,0.7988,0.7988,0.7988,0.7988,0.7988,0.7988,0.7988,0.7988,0.7988,0.7988,0.7988,0.7988,0.7988,0.7988,0.7988,0.7988,0.7988,0.7988,0.7988,0.7988,0.7988,-0.7089,-0.4985,-0.318,-0.318,-0.2323,-0.1627,-0.171,-0.1714,-0.1411,-0.069,-0.0533,0.0586,0.3353,0.3786,0.4753,0.6779,0.7095,0.721,0.721,0.721,0.721,0.721,0.721,0.721,0.721,0.721,0.721,0.721,0.721,0.721,0.721,0.721,0.721,0.7204,0.7046,0.6994,0.697,0.6733,0.6627,0.6608,0.6435,0.6387,0.6387,0.6387,0.5787,0.4885,0.4834,0.3475,0.1714,0.1613,0.0908,0.0,0.0,0.0,0.0,0.0,0.0,0.0,0.0,0.0,0.0,0.0,0.0,0.0,0.0,0.0,0.0,0.0,0.0,0.0,0.0,0.0,0.0,0.0,0.0,0.0,0.0,0.0,0.0,0.0051,0.0908,0.1312,0.0808,0.2569,0.3524,0.3022,0.3772,0.4822,0.6084,0.6082,0.6581,0.7839,0.7889,0.7939,0.7988,0.7988,0.7988,0.7988,0.7988,0.7988,0.7988,0.7988,0.7988,0.7988,0.7988,0.7988,0.7988,0.7988,0.7988,0.7988,0.7988,0.7988,0.7988,0.7988,0.7988,0.8038,-0.6877,-0.5229,-0.3679,-0.2825,-0.207,-0.1621,-0.1633,-0.1634,-0.133,-0.0566,0.0052,0.1255,0.3553,0.4304,0.5262,0.6765,0.698,0.7051,0.7051,0.7169,0.721,0.721,0.721,0.721,0.721,0.721,0.721,0.721,0.721,0.721,0.721,0.721,0.7172,0.7048,0.7005,0.6902,0.6752,0.666,0.6575,0.6452,0.6403,0.5987,0.5384,0.5384,0.4732,0.3726,0.3073,0.2267,0.1513,0.0807,0.0353,0.0,0.0,0.0,0.0,0.0,0.0,0.0,0.0,0.0,0.0,0.0,0.0,0.0,0.0,0.0,0.0,0.0,0.0,0.0,0.0,0.0,0.0,0.0,0.0,0.0,0.0,0.0555,0.1059,0.1211,0.2317,0.3021,0.282,0.3671,0.4071,0.3718,0.4772,0.5627,0.6132,0.6833,0.7484,0.7988,0.7988,0.7988,0.7988,0.7988,0.7988,0.7988,0.7988,0.7988,0.7988,0.7988,0.7988,0.7988,0.7988,0.7988,0.7988,0.7988,0.7988,0.7988,0.7988,0.7988,0.7988,0.7988,0.8088,0.8283,-0.6672,-0.5327,-0.3977,-0.2622,-0.1969,-0.1617,-0.1617,-0.1617,-0.1212,-0.0151,0.0663,0.1898,0.3898,0.485,0.5693,0.6639,0.6858,0.6929,0.6929,0.7035,0.7174,0.721,0.721,0.721,0.721,0.721,0.721,0.721,0.721,0.721,0.721,0.7174,0.7114,0.6983,0.6904,0.6777,0.6616,0.6578,0.6311,0.5884,0.5884,0.5233,0.428,0.428,0.3626,0.262,0.1865,0.1361,0.1009,0.0252,0.0,0.0,0.0,0.0,0.0,0.0,0.0,0.0,0.0,0.0252,0.0404,0.0101,0.0,0.0,0.0,0.0252,0.0505,0.0605,0.0555,0.0656,0.1059,0.0807,0.0606,0.0958,0.1009,0.1009,0.1009,0.1713,0.2317,0.2469,0.3673,0.4423,0.4173,0.4924,0.5225,0.477,0.5927,0.6631,0.6631,0.7487,0.7988,0.7988,0.7988,0.7988,0.7988,0.7988,0.7988,0.7988,0.7988,0.7988,0.7988,0.7988,0.7988,0.7988,0.7988,0.7988,0.7988,0.7988,0.7988,0.7988,0.7988,0.8038,0.8137,0.8137,0.8287,0.8531,-0.6672,-0.5327,-0.3977,-0.2622,-0.1969,-0.1617,-0.1617,-0.1617,-0.101,0.0605,0.1258,0.2414,0.4582,0.5373,0.5999,0.6567,0.673,0.6801,0.6801,0.6915,0.7035,0.7202,0.721,0.721,0.721,0.721,0.721,0.721,0.721,0.721,0.7204,0.7037,0.6983,0.6972,0.6728,0.6619,0.6608,0.6438,0.5787,0.4784,0.4784,0.413,0.3173,0.3173,0.2519,0.1563,0.1563,0.0908,0.0,0.0,0.0,0.0,0.0,0.0,0.0,0.0,0.0,0.0,0.0,0.0807,0.1361,0.0303,0.0,0.0051,0.0051,0.0858,0.1713,0.1963,0.1813,0.2016,0.3369,0.2517,0.1966,0.3022,0.3224,0.3224,0.3224,0.3422,0.362,0.362,0.4822,0.5322,0.452,0.6331,0.7294,0.6487,0.7388,0.7988,0.7988,0.7988,0.7988,0.7988,0.7988,0.7988,0.7988,0.7988,0.7988,0.7988,0.7988,0.7988,0.7988,0.7988,0.7988,0.7988,0.7988,0.7988,0.7988,0.7988,0.7988,0.7988,0.7988,0.8187,0.8382,0.8382,0.8581,0.8825,-0.6274,-0.5377,-0.4277,-0.2221,-0.1718,-0.1617,-0.1617,-0.1111,-0.0404,0.0655,0.1762,0.302,0.4634,0.5313,0.5886,0.639,0.6603,0.6711,0.6796,0.6836,0.6872,0.6907,0.7119,0.721,0.721,0.721,0.721,0.721,0.7128,0.7035,0.7032,0.6912,0.6812,0.6725,0.6651,0.657,0.6438,0.64,0.5787,0.4784,0.4784,0.3726,0.2066,0.2066,0.1412,0.0454,0.0454,0.0252,0.0,0.0,0.0,0.0,0.0,0.0,0.0051,0.0202,0.0807,0.1461,0.1612,0.2466,0.2917,0.1462,0.1813,0.2516,0.2516,0.2917,0.3316,0.3366,0.3167,0.3119,0.3521,0.312,0.287,0.3422,0.347,0.3571,0.3718,0.447,0.5022,0.5022,0.6179,0.6886,0.6686,0.7388,0.7789,0.7537,0.7839,0.7988,0.7988,0.7988,0.7988,0.7988,0.7988,0.7988,0.7988,0.7988,0.7988,0.7988,0.7988,0.7988,0.7988,0.7988,0.7988,0.7988,0.7988,0.7988,0.7988,0.7988,0.8088,0.8283,0.8283,0.8432,0.8676,0.8676,0.8829,0.9084,-0.6074,-0.5377,-0.4427,-0.2019,-0.1617,-0.1617,-0.1617,-0.1162,-0.0454,0.0655,0.1863,0.3171,0.4634,0.5486,0.6034,0.6387,0.6454,0.66,0.6722,0.673,0.6752,0.6798,0.694,0.7016,0.7016,0.7016,0.7016,0.7016,0.6945,0.6912,0.691,0.6787,0.669,0.6616,0.6567,0.6454,0.6387,0.5937,0.5133,0.413,0.3726,0.2519,0.0958,0.0958,0.0555,0.0,0.0,0.0,0.0,0.0,0.0,0.0,0.0,0.0051,0.0202,0.0354,0.121,0.2214,0.2365,0.3518,0.4418,0.3419,0.3469,0.3768,0.3768,0.4119,0.452,0.4618,0.442,0.4373,0.4924,0.4526,0.4325,0.4924,0.5024,0.5074,0.5222,0.5927,0.6381,0.6381,0.7188,0.7743,0.7743,0.7892,0.7988,0.7988,0.7988,0.7988,0.7988,0.7988,0.7988,0.7988,0.7988,0.7988,0.7988,0.7988,0.7988,0.7988,0.7988,0.7988,0.7988,0.7988,0.7988,0.7988,0.7988,0.7988,0.7988,0.8137,0.8237,0.8432,0.8531,0.873,0.8977,0.8977,0.913,0.9381,-0.6174,-0.5427,-0.4427,-0.212,-0.1667,-0.1617,-0.1617,-0.1516,-0.0959,0.0504,0.1762,0.307,0.4531,0.5734,0.6387,0.6387,0.6387,0.6433,0.6594,0.6603,0.6654,0.6763,0.6771,0.6771,0.6771,0.679,0.6801,0.6801,0.679,0.6785,0.6782,0.666,0.6603,0.6597,0.6435,0.6387,0.6337,0.5233,0.418,0.3123,0.2016,0.0958,0.0,0.0,0.0,0.0,0.0,0.0,0.0,0.0051,0.0051,0.0051,0.0051,0.0253,0.0455,0.0555,0.1562,0.2616,0.2717,0.4271,0.5824,0.5824,0.507,0.4366,0.4316,0.4922,0.5529,0.5774,0.5577,0.5782,0.6986,0.6429,0.6077,0.7086,0.7238,0.7238,0.7288,0.749,0.7646,0.7646,0.7842,0.7988,0.7988,0.7988,0.7988,0.7988,0.7988,0.7988,0.7988,0.7988,0.7988,0.7988,0.7988,0.7988,0.7988,0.7988,0.7988,0.7988,0.7988,0.7988,0.7988,0.7988,0.7988,0.7988,0.8038,0.8038,0.8038,0.8333,0.8432,0.8482,0.8726,0.8981,0.9236,0.9187,0.9381,0.9579,-0.7123,-0.5774,-0.4475,-0.3073,-0.217,-0.1617,-0.1617,-0.1061,-0.0555,-0.0202,0.1913,0.347,0.3822,0.5379,0.6387,0.6387,0.6387,0.6398,0.6425,0.6425,0.6438,0.6465,0.6465,0.6465,0.6465,0.6703,0.6801,0.6801,0.6706,0.666,0.6657,0.6481,0.6425,0.6425,0.6398,0.6387,0.6337,0.5233,0.418,0.3123,0.2016,0.0958,0.0,0.0,0.0,0.0,0.0,0.0,0.0051,0.0253,0.0455,0.0606,0.0606,0.0657,0.0909,0.1965,0.3069,0.4219,0.5227,0.6481,0.7484,0.7484,0.7282,0.7083,0.6886,0.7135,0.7385,0.7484,0.7288,0.7191,0.7444,0.7138,0.6986,0.7444,0.7494,0.7593,0.7789,0.7889,0.7892,0.7892,0.7942,0.7988,0.7988,0.7988,0.7988,0.7988,0.7988,0.7988,0.7988,0.7988,0.7988,0.7988,0.7988,0.7988,0.7988,0.7988,0.7988,0.7988,0.7988,0.7988,0.7988,0.7988,0.7988,0.7988,0.8233,0.8333,0.8333,0.8577,0.8829,0.9034,0.8878,0.9076,0.948,0.9286,0.9381,0.9579,-0.7214,-0.6229,-0.5077,-0.3473,-0.2723,-0.217,-0.1667,-0.1263,-0.0859,-0.0455,0.1159,0.2616,0.3521,0.4828,0.5837,0.6337,0.6387,0.6387,0.6387,0.6387,0.6387,0.6387,0.6387,0.6387,0.6387,0.6562,0.6627,0.6627,0.6562,0.6481,0.6478,0.6416,0.6387,0.6387,0.6387,0.6137,0.5584,0.4479,0.3425,0.2368,0.1261,0.0505,0.0,0.0152,0.0202,0.0202,0.0354,0.0404,0.0404,0.0556,0.0707,0.0808,0.0808,0.1262,0.1916,0.2619,0.4022,0.5527,0.6234,0.7188,0.7988,0.7988,0.7988,0.7942,0.7842,0.7793,0.7793,0.7793,0.7696,0.7596,0.7596,0.759,0.764,0.7793,0.7793,0.7842,0.7988,0.7988,0.7988,0.7988,0.7988,0.7988,0.7988,0.7988,0.7988,0.7988,0.7988,0.7988,0.7988,0.7988,0.7988,0.7988,0.7988,0.7988,0.7988,0.7988,0.7988,0.7988,0.7988,0.7988,0.7988,0.7988,0.8088,0.8187,0.8333,0.8382,0.8432,0.8832,0.8981,0.9031,0.9126,0.9377,0.9579,0.943,0.948,0.9579,-0.7223,-0.6719,-0.5784,-0.3825,-0.3323,-0.2822,-0.1768,-0.1617,-0.1364,-0.0707,0.0202,0.141,0.2968,0.4126,0.5236,0.6287,0.6387,0.6387,0.6387,0.6387,0.6387,0.6387,0.6387,0.6387,0.6387,0.6387,0.6387,0.6387,0.6387,0.6387,0.6387,0.6387,0.6387,0.6387,0.6387,0.5834,0.4784,0.3726,0.267,0.1664,0.0555,0.0152,0.0152,0.0404,0.0455,0.0505,0.0707,0.0808,0.0859,0.0859,0.0909,0.096,0.1161,0.1966,0.292,0.3321,0.4828,0.6437,0.6637,0.7338,0.7988,0.7988,0.7988,0.7988,0.7988,0.7842,0.7646,0.7646,0.7646,0.7646,0.7646,0.7842,0.7988,0.7988,0.7988,0.7988,0.7988,0.7988,0.7988,0.7988,0.7988,0.7988,0.7988,0.7988,0.7988,0.7988,0.7988,0.7988,0.7988,0.7988,0.7988,0.7988,0.7988,0.7988,0.7988,0.7988,0.7988,0.7988,0.8038,0.8038,0.7988,0.7988,0.8137,0.8333,0.8432,0.8482,0.8531,0.9034,0.913,0.8973,0.9377,0.9579,0.9579,0.9579,0.9579,0.9579,-0.8087,-0.7159,-0.6034,-0.4774,-0.3823,-0.2822,-0.1768,-0.1617,-0.1566,-0.1465,-0.0151,0.0907,0.1159,0.3323,0.5236,0.6287,0.6387,0.6387,0.6387,0.6387,0.6387,0.6387,0.6387,0.6387,0.6387,0.6387,0.6387,0.6387,0.6387,0.6387,0.6387,0.6387,0.6387,0.6387,0.6387,0.5937,0.5087,0.3981,0.3075,0.222,0.1111,0.0707,0.0707,0.0707,0.0758,0.0758,0.0808,0.096,0.1162,0.1162,0.1313,0.1667,0.2571,0.3022,0.3525,0.5381,0.6134,0.6587,0.7537,0.7889,0.7988,0.7988,0.7988,0.7988,0.7988,0.7992,0.7939,0.7939,0.7939,0.7939,0.7939,0.7992,0.7988,0.7988,0.7988,0.7988,0.7988,0.7988,0.7988,0.7988,0.7988,0.7988,0.7988,0.7988,0.7988,0.7988,0.7988,0.7988,0.7988,0.7988,0.7988,0.7988,0.7988,0.7988,0.7988,0.7988,0.7988,0.7988,0.8233,0.8233,0.7988,0.7988,0.8041,0.8088,0.8528,0.8726,0.8775,0.9327,0.9529,0.948,0.9331,0.9381,0.9579,0.9579,0.9579,0.9579,-0.7976,-0.7524,-0.6848,-0.5869,-0.4826,-0.3723,-0.2672,-0.1969,-0.1566,-0.1415,-0.0606,0.0202,0.0958,0.3272,0.4985,0.5486,0.6034,0.6137,0.5536,0.5484,0.5484,0.5484,0.5484,0.5787,0.6387,0.6387,0.6387,0.6387,0.6387,0.6387,0.6387,0.6387,0.6487,0.6589,0.5989,0.5286,0.4481,0.3376,0.237,0.1464,0.101,0.0808,0.0808,0.096,0.101,0.1061,0.1212,0.1314,0.1415,0.1415,0.1918,0.2572,0.3074,0.4026,0.5179,0.6134,0.6836,0.7388,0.7889,0.7988,0.7988,0.7988,0.7988,0.7988,0.7988,0.7988,0.7988,0.7988,0.7988,0.7988,0.7988,0.7988,0.7988,0.7988,0.7988,0.7988,0.7988,0.7988,0.7988,0.7988,0.7988,0.7988,0.7988,0.7988,0.7988,0.7988,0.7988,0.7988,0.7988,0.7988,0.7988,0.7988,0.7988,0.7988,0.7988,0.8137,0.8233,0.8233,0.8482,0.8482,0.8233,0.8382,0.8535,0.8687,0.8931,0.9031,0.9031,0.943,0.9529,0.9385,0.943,0.948,0.9579,0.9579,0.9579,0.9579]},{"header":{"parameterUnit":"m.s-1","parameterCategory":1,"la1":30.6,"la2":28.766,"lo1":-90.7593,"lo2":-88.6598,"dy":0.0162,"dx":0.0183,"nx":116,"ny":114,"refTime":"2023-05-23T00:00:00:Z","depth":0,"parameterNumber":3,"parameterNumberName":"V-component_of_WINDS"},"data":[0.0,0.0,0.0,0.0,0.0,0.0,0.0,0.0,0.0,0.0,0.0,0.0,0.0,0.0,0.0,0.0,0.0,0.0,0.0,0.0,0.0,0.0,0.0,0.0,0.0,0.0,0.0,0.0,0.0,0.0,0.0,0.0,0.0,0.0,0.0,0.0,0.0,0.0,0.0,0.0,0.0,0.0,0.0,0.0,0.0,0.0,0.0,0.0,0.0,0.0,0.0,0.0,0.0,0.0,0.0,0.0,0.0,0.0,0.0,0.0,0.0,0.0,0.0,0.0,0.0,0.0,0.0,0.0,0.0,0.0,0.0,0.0,0.0,0.0,0.0,0.0,0.0,0.0,0.0,0.0,0.0,0.0,0.0,0.0,0.0,0.0,0.0,0.0,0.0,0.0,0.0,0.0,0.0,0.0,0.0,0.0,0.0,0.0,0.0,0.0,0.0,0.0,0.0,0.0,0.0,0.0,0.0,0.0,0.0,0.0,0.0,0.0,0.0,0.0,0.0,0.0,0.0,0.0,0.0,0.0,0.0,0.0,0.0,0.0,0.0,0.0,0.0,0.0,0.0,0.0,0.0,0.0,0.0,0.0,0.0,0.0,0.0,0.0,0.0,0.0,0.0,0.0,0.0,0.0,0.0,0.0,0.0,0.0,0.0,0.0,0.0,0.0,0.0,0.0,0.0,0.0,0.0,0.0,0.0,0.0,0.0,0.0,0.0,0.0,0.0,0.0,0.0,0.0,0.0,0.0,0.0,0.0,0.0,0.0,0.0,0.0,0.0,0.0,0.0,0.0,0.0,0.0,0.0,0.0,0.0,0.0,0.0,0.0,0.0,0.0,0.0,0.0,0.0,0.0,0.0,0.0,0.0,0.0,0.0,0.0,0.0,0.0,0.0,0.0,0.0,0.0,0.0,0.0,0.0,0.0,0.0,0.0,0.0,0.0,0.0,0.0,0.0,0.0,0.0,0.0,0.0,0.0,0.0,0.0,0.0,0.0,0.0,0.0,0.0,0.0,0.0,0.0,0.0,0.0,0.0,0.0,0.0,0.0,0.0,0.0,0.0,0.0,0.0,0.0,0.0,0.0,0.0,0.0,0.0,0.0,0.0,0.0,0.0,0.0,0.0,0.0,0.0,0.0,0.0,0.0,0.0,0.0,0.0,0.0,0.0,0.0,0.0,0.0,0.0,0.0,0.0,0.0,0.0,0.0,0.0,0.0,0.0,0.0,0.0,0.0,0.0,0.0,0.0,0.0,0.0,0.0,0.0,0.0,0.0,0.0,0.0,0.0,0.0,0.0,0.0,0.0,0.0,0.0,0.0,0.0,0.0,0.0,0.0,0.0,0.0,0.0,0.0,0.0,0.0,0.0,0.0,0.0,0.0,0.0,0.0,0.0,0.0,0.0,0.0,0.0,0.0,0.0,0.0,0.0,0.0,0.0,0.0,0.0,0.0,0.0,0.0,0.0,0.0,0.0,0.0,0.0,0.0,0.0,0.0,0.0,0.0,0.0,0.0,0.0,0.0,0.0,0.0,0.0,0.0,0.0,0.0,0.0,0.0,0.0,0.0,0.0,0.0,0.0,0.0,0.0,0.0,0.0,0.0,0.0,0.0,0.0,0.0,0.0,0.0,0.0,0.0,0.0,0.0,0.0,0.0,0.0,0.0,0.0,0.0,0.0,0.0,0.0,0.0,0.0,0.0,0.0,0.0,0.0,0.0,0.0,0.0,0.0,0.0,0.0,0.0,0.0,0.0,0.0,0.0,0.0,0.0,0.0,0.0,0.0,0.0,0.0,0.0,0.0,0.0,0.0,0.0,0.0,0.0,0.0,0.0,0.0,0.0,0.0,0.0,0.0,0.0,0.0,0.0,0.0,0.0,0.0,0.0,0.0,0.0,0.0,0.0,0.0,0.0,0.0,0.0,0.0,0.0,0.0,0.0,0.0,0.0,0.0,0.0,0.0,0.0,0.0,0.0,0.0,0.0,0.0,0.0,0.0,0.0,0.0,0.0,0.0,0.0,0.0,0.0,0.0,0.0,0.0,0.0,0.0,0.0,0.0,0.0,0.0,0.0,0.0,0.0,0.0,0.0,0.0,0.0,0.0,0.0,0.0,0.0,0.0,0.0,0.0,0.0,0.0,0.0,0.0,0.0,0.0,0.0,0.0,0.0,0.0,0.0,0.0,0.0,0.0,0.0,0.0,0.0,0.0,0.0,0.0,0.0,0.0,0.0,0.0,0.0,0.0,0.0,0.0,0.0,0.0,0.0,0.0,0.0,0.0,0.0,0.0,0.0,0.0,0.0,0.0,0.0,0.0,0.0,0.0,0.0,0.0,0.0,0.0,0.0,0.0,0.0,0.0,0.0,0.0,0.0,0.0,0.0,0.0,0.0,0.0,0.0,0.0,0.0,0.0,0.0,0.0,0.0,0.0,0.0,0.0,0.0,0.0,0.0,0.0,0.0,0.0,0.0,0.0,0.0,0.0,0.0,0.0,0.0,0.0,0.0,0.0,0.0,0.0,0.0,0.0,0.0,0.0,0.0,0.0,0.0,0.0,0.0,0.0,0.0,0.0,0.0,0.0,0.0,0.0,0.0,0.0,0.0,0.0,0.0,0.0,0.0,0.0,0.0,0.0,0.0,0.0,0.0,0.0,0.0,0.0,0.0,0.0,0.0,0.0,0.0,0.0,0.0,0.0,0.0,0.0,0.0,0.0,0.0,0.0,0.0,0.0,0.0,0.0,0.0,0.0,0.0,0.0,0.0,0.0,0.0,0.0,0.0,0.0,0.0,0.0,0.0,0.0,0.0,0.0,0.0,0.0,0.0,0.0,0.0,0.0,0.0,0.0,0.0,0.0,0.0,0.0,0.0,0.0,0.0,0.0,0.0,0.0,0.0,0.0,0.0,0.0,0.0,0.0,0.0,0.0,0.0,0.0,0.0,0.0,0.0,0.0,0.0,0.0,0.0,0.0,0.0,0.0,0.0,0.0,0.0,0.0,0.0,0.0,0.0,0.0,0.0,0.0,0.0,0.0,0.0,0.0,0.0,0.0,0.0,0.0,0.0,0.0,0.0,0.0,0.0,0.0,0.0,0.0,0.0,0.0,0.0,0.0,0.0,0.0,0.0,0.0,0.0,0.0,0.0,0.0,0.0,0.0,0.0,0.0,0.0,0.0,0.0,0.0,0.0,0.0,0.0,0.0,0.0,0.0,0.0,0.0,0.0,0.0,0.0,0.0,0.0,0.0,0.0,0.0,0.0,0.0,0.0,0.0,0.0,0.0,0.0,0.0,0.0,0.0,0.0,0.0,0.0,0.0,0.0,0.0,0.0,0.0,0.0,0.0,0.0,0.0,0.0,0.0,0.0,0.0,0.0,0.0,0.0,0.0,0.0,0.0,0.0,0.0,0.0,0.0,0.0,0.0,0.0,0.0,0.0,0.0,0.0,0.0,0.0,0.0,0.0,0.0,0.0,0.0,0.0,0.0,0.0,0.0,0.0,0.0,0.0,0.0,0.0,0.0,0.0,0.0,0.0,0.0,0.0,0.0,0.0,0.0,0.0,0.0,0.0,0.0,0.0,0.0,0.0,0.0,0.0,0.0,0.0,0.0,0.0,0.0,0.0,0.0,0.0,0.0,0.0,0.0,0.0,0.0,0.0,0.0,0.0,0.0,0.0,0.0,0.0,0.0,0.0,0.0,0.0,0.0,0.0,0.0,0.0,0.0,0.0,0.0,0.0,0.0,0.0,0.0,0.0,0.0,0.0,0.0,0.0,0.0,0.0,0.0,0.0,0.0,0.0,0.0,0.0,0.0,0.0,0.0,0.0,0.0,0.0,0.0,0.0,0.0,0.0,0.0,0.0,0.0,0.0,0.0,0.0,0.0,0.0,0.0,0.0,0.0,0.0,0.0,0.0,0.0,0.0,0.0,0.0,0.0,0.0,0.0,0.0,0.0,0.0,0.0,0.0,0.0,0.0,0.0,0.0,0.0,0.0,0.0,0.0,0.0,0.0,0.0,0.0,0.0,0.0,0.0,0.0,0.0,0.0,0.0,0.0,0.0,0.0,0.0,0.0,0.0,0.0,0.0,0.0,0.0,0.0,0.0,0.0,0.0,0.0,0.0,0.0,0.0,0.0,0.0,0.0,0.0,0.0,0.0,0.0,0.0,0.0,0.0,0.0,0.0,0.0,0.0,0.0,0.0,0.0,0.0,0.0,0.0,0.0,0.0,0.0,0.0,0.0,0.0,0.0,0.0,0.0,0.0,0.0,0.0,0.0,0.0,0.0,0.0,0.0,0.0,0.0,0.0,0.0,0.0,0.0,0.0,0.0,0.0,0.0,0.0,0.0,0.0,0.0,0.0,0.0,0.0,0.0,0.0,0.0,0.0,0.0,0.0,0.0,0.0,0.0,0.0,0.0,0.0,0.0,0.0,0.0,0.0,0.0,0.0,0.0,0.0,0.0,0.0,0.0,0.0,0.0,0.0,0.0,0.0,0.0,0.0,0.0,0.0,0.0,0.0,0.0,0.0,0.0,0.0,0.0,0.0,0.0,0.0,0.0,0.0,0.0,0.0,0.0,0.0,0.0,0.0,0.0,0.0,0.0,0.0,0.0,0.0,0.0,0.0,0.0,0.0,0.0,0.0,0.0,0.0,0.0,0.0,0.0,0.0,0.0,0.0,0.0,0.0,0.0,0.0,0.0,0.0,0.0,0.0,0.0,0.0,0.0,0.0,0.0,0.0,0.0,0.0,0.0,0.0,0.0,0.0,0.0,0.0,0.0,0.0,0.0,0.0,0.0,0.0,0.0,0.0,0.0,0.0,0.0,0.0,0.0,0.0,0.0,0.0,0.0,0.0,0.0,0.0,0.0,0.0,0.0,0.0,0.0,0.0,0.0,0.0,0.0,0.0,0.0,0.0,0.0,0.0,0.0,0.0,0.0,0.0,0.0,0.0,0.0,0.0,0.0,0.0,0.0,0.0,0.0,0.0,0.0,0.0,0.0,0.0,0.0,0.0,0.0,0.0,0.0,0.0,0.0,0.0,0.0,0.0,0.0,0.0,0.0,0.0,0.0,0.0,0.0,0.0,0.0,0.0,0.0,0.0,0.0,0.0,0.0,0.0,0.0,0.0,0.0,0.0,0.0,0.0,0.0,0.0,0.0,0.0,0.0,0.0,0.0,0.0,0.0,0.0,0.0,0.0,0.0,0.0,0.0,0.0,0.0,0.0,0.0,0.0,0.0,0.0,0.0,0.0,0.0,0.0,0.0,0.0,0.0,0.0,0.0,0.0,0.0,0.0,0.0,0.0,0.0,0.0,0.0,0.0,0.0,0.0,0.0,0.0,0.0,0.0,0.0,0.0,0.0,0.0,0.0,0.0,0.0,0.0,0.0,0.0,0.0,0.0,0.0,0.0,0.0,0.0,0.0,0.0,0.0,0.0,0.0,0.0,0.0,0.0,0.0,0.0,0.0,0.0,0.0,0.0,0.0,0.0,0.0,0.0,0.0,0.0,0.0,0.0,0.0,0.0,0.0,0.0,0.0,0.0,0.0,0.0,0.0,0.0,0.0,0.0,0.0,0.0,0.0,0.0,0.0,0.0,0.0,0.0,0.0,0.0,0.0,0.0,0.0,0.0,0.0,0.0,0.0,0.0,0.0,0.0,0.0,0.0,0.0,0.0,0.0,0.0,0.0,0.0,0.0,0.0,0.0,0.0,0.0,0.0,0.0,0.0,0.0,0.0,0.0,0.0,0.0,0.0,0.0,0.0,0.0,0.0,0.0,0.0,0.0,0.0,0.0,0.0,0.0,0.0,0.0,0.0,0.0,0.0,0.0,0.0,0.0,0.0,0.0,0.0,0.0,0.0,0.0,0.0,0.0,0.0,0.0,0.0,0.0,0.0,0.0,0.0,0.0,0.0,0.0,0.0,0.0,0.0,0.0,0.0,0.0,0.0,0.0,0.0,0.0,0.0,0.0,0.0,0.0,0.0,0.0,0.0,0.0,0.0,0.0,0.0,0.0,0.0,0.0,0.0,0.0,0.0,0.0,0.0,0.0,0.0,0.0,0.0,0.0,0.0,0.0,0.0,0.0,0.0,0.0,0.0,2.3619,0.0,0.0,0.0,0.0,0.0,0.0,0.0,0.0,0.0,0.0,0.0,0.0,0.0,0.0,0.0,0.0,0.0,0.0,0.0,0.0,0.0,0.0,0.0,0.0,0.0,0.0,0.0,0.0,0.0,0.0,0.0,0.0,0.0,0.0,0.0,0.0,0.0,0.0,2.6229,2.5947,2.5974,2.6229,2.5536,2.4654,2.3581,0.0,0.0,0.0,0.0,0.0,0.0,0.0,0.0,0.0,0.0,0.0,0.0,0.0,0.0,0.0,0.0,0.0,0.0,0.0,0.0,0.0,0.0,0.0,0.0,0.0,0.0,0.0,0.0,0.0,0.0,0.0,0.0,0.0,0.0,0.0,0.0,0.0,0.0,0.0,0.0,0.0,0.0,0.0,0.0,0.0,0.0,0.0,0.0,0.0,0.0,0.0,0.0,0.0,0.0,0.0,0.0,0.0,0.0,0.0,0.0,0.0,0.0,0.0,0.0,0.0,0.0,0.0,0.0,0.0,0.0,0.0,2.4546,0.0,0.0,0.0,0.0,0.0,0.0,0.0,0.0,0.0,0.0,0.0,0.0,0.0,0.0,0.0,0.0,0.0,0.0,0.0,0.0,0.0,0.0,0.0,2.5549,2.6131,2.6108,2.6654,2.6771,0.0,0.0,0.0,0.0,0.0,0.0,0.0,2.6904,2.6867,2.6893,2.6867,2.6814,2.6709,2.631,2.5728,2.5007,2.4271,0.0,0.0,0.0,0.0,0.0,0.0,0.0,0.0,0.0,0.0,0.0,0.0,0.0,0.0,0.0,0.0,0.0,0.0,0.0,0.0,0.0,0.0,0.0,0.0,0.0,0.0,0.0,0.0,0.0,0.0,0.0,0.0,0.0,0.0,0.0,0.0,0.0,0.0,0.0,0.0,0.0,0.0,0.0,0.0,0.0,0.0,0.0,0.0,0.0,0.0,0.0,0.0,0.0,0.0,0.0,0.0,0.0,0.0,0.0,0.0,0.0,0.0,0.0,2.7162,2.7248,2.7375,2.7625,2.793,2.8205,2.7083,2.7037,2.7699,0.0,0.0,0.0,0.0,0.0,0.0,0.0,0.0,0.0,0.0,0.0,0.0,0.0,0.0,0.0,0.0,0.0,0.0,0.0,0.0,0.0,0.0,2.6613,2.6927,2.7316,2.7805,2.8046,2.7997,0.0,0.0,0.0,0.0,0.0,2.8271,2.7745,2.7549,2.765,2.7549,2.7203,2.6709,2.7152,2.7034,2.6404,2.53,2.478,2.465,0.0,0.0,0.0,0.0,0.0,0.0,0.0,0.0,0.0,0.0,0.0,0.0,0.0,0.0,0.0,0.0,0.0,0.0,0.0,0.0,0.0,0.0,0.0,0.0,0.0,0.0,0.0,0.0,0.0,0.0,0.0,0.0,0.0,0.0,0.0,0.0,0.0,0.0,0.0,0.0,0.0,1.9803,1.9901,0.0,0.0,0.0,0.0,0.0,0.0,0.0,0.0,0.0,0.0,0.0,0.0,0.0,0.0,2.7414,2.76,2.7898,2.8295,2.8535,2.8685,2.8826,2.8982,2.9143,2.9303,2.9413,0.0,2.8307,2.8537,0.0,0.0,0.0,0.0,0.0,0.0,0.0,0.0,0.0,0.0,0.0,0.0,0.0,0.0,0.0,0.0,0.0,0.0,0.0,0.0,0.0,2.776,2.8216,2.8415,2.863,2.8756,2.8756,2.8982,0.0,0.0,0.0,2.8717,2.8511,2.8238,2.7984,2.7675,2.7625,2.7458,2.7203,2.7473,2.7473,2.7178,2.6324,2.5605,2.4977,2.4677,0.0,0.0,0.0,0.0,0.0,0.0,0.0,0.0,0.0,0.0,0.0,0.0,0.0,0.0,0.0,0.0,0.0,0.0,0.0,0.0,0.0,0.0,0.0,0.0,0.0,0.0,0.0,0.0,0.0,0.0,0.0,0.0,0.0,0.0,0.0,0.0,0.0,0.0,0.0,1.9454,2.0127,2.0462,2.0855,2.1204,0.0,0.0,0.0,0.0,0.0,0.0,0.0,0.0,0.0,2.7023,2.7191,2.7645,2.8472,2.8591,2.8795,2.9067,2.9371,2.955,2.9617,2.9853,3.007,3.0246,3.0393,3.0276,2.9967,2.9729,2.9702,2.981,0.0,0.0,0.0,0.0,0.0,2.9929,0.0,0.0,0.0,0.0,0.0,0.0,0.0,0.0,0.0,0.0,0.0,0.0,2.796,2.8693,2.9136,2.9097,2.9212,2.928,2.928,2.9416,2.9534,2.9591,2.9663,2.9555,2.9257,2.8998,2.8609,2.8052,2.781,2.7775,2.787,2.775,2.7675,2.7625,2.7178,2.6404,2.5411,2.5118,2.4677,2.4171,0.0,0.0,0.0,0.0,0.0,0.0,0.0,0.0,0.0,0.0,0.0,0.0,0.0,0.0,0.0,0.0,0.0,0.0,0.0,0.0,0.0,0.0,0.0,0.0,0.0,0.0,0.0,0.0,0.0,0.0,0.0,0.0,0.0,0.0,0.0,0.0,0.0,2.0203,2.1014,2.142,2.1811,2.2231,0.0,0.0,0.0,0.0,0.0,0.0,2.6212,2.6277,2.6879,2.8167,2.8255,2.8692,2.9596,2.9619,2.9874,3.0366,3.0669,3.0805,3.0848,3.0937,3.1065,3.1254,3.1089,3.1179,3.1408,3.0751,3.0831,3.1334,3.0881,3.094,3.1208,3.0977,3.0841,3.0818,0.0,0.0,0.0,0.0,0.0,0.0,0.0,0.0,0.0,0.0,0.0,2.8606,2.8982,2.9182,2.9243,2.9097,2.9506,2.975,2.975,3.03,3.063,3.0613,3.093,3.1161,3.1243,3.0391,2.9706,2.9316,2.8422,2.822,2.8638,2.8195,2.7905,2.779,2.7765,2.7306,2.6537,2.5467,2.4977,2.4892,2.4316,0.0,0.0,0.0,0.0,0.0,0.0,0.0,0.0,0.0,0.0,0.0,0.0,0.0,0.0,0.0,0.0,0.0,0.0,0.0,0.0,0.0,0.0,0.0,0.0,0.0,0.0,0.0,0.0,0.0,0.0,0.0,0.0,0.0,0.0,0.0,0.0,0.0,0.0,2.3017,2.3679,0.0,0.0,0.0,0.0,2.5218,2.5246,2.5766,2.6876,2.7066,2.7709,2.9005,2.9159,2.9813,3.0994,3.101,3.1582,3.2745,3.2887,3.3012,3.3102,3.2482,3.2306,3.2474,3.185,3.1785,3.2126,3.1693,3.156,3.1617,3.1966,3.193,3.1714,3.2074,3.2038,3.1876,0.0,0.0,0.0,0.0,0.0,0.0,0.0,0.0,2.7157,2.7515,2.8902,2.9924,3.0053,3.0534,3.0714,3.0423,3.0774,3.0911,3.0645,3.1605,3.2229,3.2322,3.2953,3.3073,3.2512,3.1531,3.0959,3.082,3.0482,3.0232,3.002,2.9443,2.8962,2.8551,2.8037,2.765,2.7346,2.6457,2.5729,2.509,2.4806,2.4447,0.0,0.0,0.0,0.0,0.0,0.0,0.0,0.0,0.0,0.0,0.0,0.0,0.0,0.0,0.0,0.0,0.0,0.0,0.0,0.0,0.0,0.0,0.0,0.0,0.0,0.0,0.0,0.0,0.0,0.0,0.0,0.0,0.0,0.0,0.0,0.0,0.0,2.3445,2.4357,0.0,2.5024,2.5887,2.6471,2.6512,2.7132,2.7945,2.9011,2.91,2.9729,3.1055,3.114,3.1567,3.2386,3.2386,3.2758,3.3494,3.3581,3.3747,3.399,3.3811,3.3845,3.4014,3.3714,3.3457,3.323,3.3125,3.2704,3.2214,3.2387,3.2386,3.23,3.2437,3.2437,3.2352,0.0,0.0,0.0,0.0,0.0,0.0,0.0,0.0,2.8075,2.817,2.967,3.0741,3.0774,3.1321,3.1584,3.1336,3.1547,3.1706,3.1754,3.2658,3.3333,3.3628,3.4341,3.4357,3.3584,3.2764,3.229,3.2207,3.1882,3.1526,3.1177,3.0548,2.9965,2.9362,2.8844,2.8485,2.8223,2.7569,2.6564,2.537,2.5147,2.4692,2.3995,0.0,0.0,0.0,0.0,0.0,0.0,0.0,0.0,0.0,0.0,0.0,0.0,0.0,0.0,0.0,0.0,0.0,0.0,0.0,0.0,0.0,0.0,0.0,0.0,0.0,0.0,0.0,0.0,0.0,0.0,0.0,0.0,0.0,0.0,0.0,2.431,2.4251,2.5232,2.6011,2.6246,2.7416,2.8177,2.8261,2.9095,2.9975,3.0846,3.0862,3.1392,3.2478,3.2574,3.2978,3.3723,3.385,3.422,3.4861,3.4943,3.5103,3.5335,3.5146,3.5152,3.5315,3.5031,3.4729,3.4488,3.4503,3.3989,3.3176,3.2875,3.277,3.277,3.2737,3.2737,3.2721,0.0,0.0,0.0,0.0,0.0,0.0,0.0,2.806,2.9016,2.9273,3.0315,3.1077,3.1125,3.149,3.1732,3.1714,3.1732,3.2098,3.2972,3.3424,3.3934,3.4563,3.5025,3.5036,3.4566,3.4108,3.3729,3.3474,3.2572,3.2073,3.1987,3.1485,3.0908,3.0271,3.023,2.9822,2.92,2.8659,2.7426,2.5825,2.5384,2.478,2.4011,0.0,0.0,0.0,0.0,0.0,0.0,0.0,0.0,0.0,0.0,0.0,0.0,0.0,0.0,0.0,0.0,0.0,0.0,0.0,0.0,0.0,0.0,0.0,0.0,0.0,0.0,0.0,0.0,0.0,0.0,0.0,0.0,0.0,2.2845,2.4005,2.5048,2.5535,2.6455,2.7251,2.7843,2.9204,3.0156,3.0433,3.1063,3.1686,3.2229,3.2252,3.2566,3.3175,3.3385,3.4,3.5063,3.5404,3.6027,3.6941,3.7073,3.7186,3.7228,3.6521,3.6292,3.6451,3.5736,3.5578,3.5849,3.5788,3.5315,3.4561,3.3535,3.3119,3.3086,3.3026,3.2995,3.2995,0.0,0.0,0.0,0.0,0.0,0.0,0.0,2.8646,2.9566,2.9581,3.1041,3.2074,3.1985,3.2335,3.2454,3.2162,3.2454,3.2972,3.3748,3.4623,3.559,3.6629,3.6519,3.6244,3.5805,3.5367,3.5065,3.4991,3.4751,3.4399,3.3968,3.2967,3.2203,3.1596,3.0623,3.0081,2.9887,2.9399,2.8353,2.6926,2.58,2.4964,2.4305,0.0,0.0,0.0,0.0,0.0,0.0,0.0,0.0,0.0,0.0,0.0,0.0,0.0,0.0,0.0,0.0,0.0,0.0,0.0,0.0,0.0,0.0,0.0,0.0,0.0,0.0,0.0,0.0,0.0,0.0,0.0,0.0,2.4013,2.3603,2.539,2.7008,2.7665,2.8841,2.9811,3.0373,3.0943,3.1389,3.1555,3.2006,3.258,3.3321,3.3537,3.4108,3.5098,3.5549,3.6099,3.6728,3.6877,3.7309,3.8056,3.789,3.8058,3.8502,3.8357,3.8335,3.8408,3.8103,3.7751,3.7394,3.7258,3.6818,3.6051,3.4648,3.37,3.3101,3.307,3.307,3.3086,0.0,0.0,0.0,0.0,0.0,0.0,0.0,2.8939,2.9853,2.9575,3.1367,3.2506,3.2091,3.2555,3.282,3.2573,3.3263,3.4065,3.4832,3.6152,3.699,3.7159,3.7001,3.662,3.6023,3.58,3.5689,3.5689,3.5689,3.5402,3.4864,3.3884,3.3132,3.2572,3.1568,3.0968,3.0654,3.0021,2.914,2.8042,2.6736,2.5527,2.4423,2.3809,2.3365,2.2975,2.2199,2.1765,2.1557,2.1285,0.0,0.0,0.0,0.0,0.0,0.0,0.0,0.0,0.0,0.0,0.0,0.0,0.0,0.0,0.0,0.0,0.0,0.0,0.0,0.0,0.0,0.0,0.0,0.0,2.4805,2.5344,2.5285,2.6877,2.8395,2.9217,3.0211,3.1103,3.1758,3.227,3.2613,3.273,3.3788,3.469,3.5267,3.6019,3.6786,3.755,3.7999,3.8382,3.8778,3.897,3.9106,3.9213,3.9105,3.9058,3.909,3.9125,3.9165,0.0,3.9112,3.8891,3.8546,3.8456,3.8009,0.0,0.0,0.0,0.0,0.0,3.3777,3.3486,0.0,0.0,0.0,0.0,0.0,0.0,0.0,2.9044,2.9964,2.9528,3.1423,3.2571,3.1878,3.2471,3.29,3.2916,3.4003,3.5122,3.6105,3.7692,3.8076,3.6879,3.6888,3.656,3.5739,3.5778,3.5817,3.5817,3.5817,3.5577,3.5091,3.4407,3.3793,3.3287,3.2695,3.2074,3.1397,3.0556,2.9805,2.9034,2.7906,2.6321,2.4616,2.4109,2.3407,2.2634,2.2094,2.1639,2.1285,2.1221,0.0,0.0,0.0,0.0,0.0,0.0,0.0,0.0,0.0,0.0,0.0,0.0,0.0,0.0,0.0,0.0,0.0,0.0,0.0,0.0,0.0,0.0,0.0,0.0,2.5855,2.6789,2.7549,2.8584,2.9558,3.033,3.1112,3.1927,3.2728,3.3465,3.4008,3.4299,3.609,3.7317,3.7633,0.0,0.0,0.0,0.0,4.054,4.0793,4.1125,4.1019,4.0467,4.056,4.0197,3.9458,3.947,3.9414,3.932,3.9327,3.9352,3.9414,3.9402,3.897,3.8153,3.6843,3.6491,3.6603,3.5757,3.497,0.0,0.0,0.0,0.0,0.0,0.0,0.0,0.0,2.8893,2.9756,3.0361,3.1607,3.242,3.2437,3.2721,3.2916,3.2981,3.4078,3.5473,3.7095,3.8136,3.8355,3.7614,3.7304,3.6921,3.6416,3.611,3.5954,3.5954,3.5954,3.591,3.5783,3.4887,3.4301,3.3962,3.3156,3.2379,3.1628,3.107,3.0265,2.9276,2.8672,2.7306,2.5565,2.4816,2.3974,2.3138,2.223,2.1846,2.1702,2.1348,2.119,2.119,2.119,2.0796,0.0,0.0,0.0,0.0,0.0,0.0,0.0,0.0,0.0,0.0,0.0,0.0,0.0,0.0,0.0,0.0,0.0,0.0,0.0,2.6142,2.7171,2.8258,2.9521,3.0816,3.1527,3.123,3.2862,3.4357,3.5232,3.5535,3.6192,3.7416,3.805,3.8568,3.9073,3.9609,0.0,4.0221,4.0791,4.1209,4.1412,4.1749,4.1958,4.2051,0.0,0.0,4.0986,4.1039,4.0698,4.0078,4.0038,4.0048,4.0108,4.0048,3.9767,3.9209,3.7356,3.664,3.6677,3.649,3.6316,3.6087,0.0,0.0,0.0,0.0,0.0,0.0,0.0,2.9185,3.0075,3.0624,3.2022,3.2908,3.2811,3.316,3.3595,3.4067,3.5478,3.6841,3.7983,3.8449,3.8307,3.7433,3.7267,3.7018,3.66,3.628,3.6101,3.6101,3.6101,3.6101,3.6079,3.5052,3.4529,3.4366,3.3356,3.2539,3.1851,3.1263,3.0557,2.9791,2.8943,2.7786,2.6468,2.5721,2.4561,2.3226,2.264,2.2158,2.1726,2.1348,2.1253,2.121,2.0796,2.0521,2.0423,0.0,0.0,0.0,0.0,0.0,0.0,0.0,0.0,0.0,0.0,0.0,0.0,0.0,0.0,2.421,0.0,0.0,2.6231,2.7415,2.8404,2.9616,3.1397,3.2601,3.3154,3.2741,3.4277,3.5759,3.6759,3.6971,3.7462,3.8456,3.9324,4.004,4.0574,4.1434,4.1988,4.2208,4.2594,4.2897,4.3146,4.3352,4.3345,4.3156,4.3076,4.2713,4.2086,4.1676,4.1285,4.0883,4.0435,4.0263,4.0301,4.0263,4.0157,3.988,3.8817,3.8009,3.7479,3.7643,3.7415,3.7002,0.0,0.0,0.0,0.0,0.0,0.0,0.0,2.9309,3.0264,3.0791,3.2294,3.3243,3.3087,3.3547,3.4309,3.5423,3.6919,3.8066,3.8674,3.8589,3.8162,3.7341,3.7209,3.7018,3.6781,3.6406,3.6208,3.6208,3.6208,3.6187,3.6101,3.5161,3.4649,3.4496,3.3435,3.2605,3.1934,3.1277,3.0673,3.0068,2.8953,2.801,2.7171,2.6504,2.5039,2.3304,2.3035,2.2526,2.196,2.1661,2.1649,2.1658,2.0937,2.0709,2.0665,2.0482,2.0306,0.0,0.0,0.0,0.0,0.0,0.0,0.0,0.0,0.0,2.2176,2.3204,2.4331,2.5182,2.5382,2.6355,2.7425,2.8363,2.9443,3.0857,3.2772,3.388,3.4566,3.4743,3.5707,3.6792,3.7846,3.8177,3.8591,3.9286,4.0559,4.153,4.2086,4.3266,4.3961,4.4124,4.4277,4.4482,4.4699,4.4815,4.459,4.4056,4.4122,4.3774,4.3004,4.2144,4.1648,4.1457,4.0654,4.0301,4.0301,4.0301,4.0301,4.0263,4.0157,3.9475,3.8576,3.8842,3.849,3.7864,0.0,0.0,0.0,0.0,0.0,0.0,0.0,0.0,2.9516,3.1261,3.1951,3.2516,3.3199,3.3538,3.4528,3.6538,3.7168,3.7936,3.9063,3.8357,3.8033,3.8314,3.7415,3.7094,3.7377,3.6678,3.628,3.628,3.628,3.6131,3.5827,3.5362,3.4849,3.4284,3.3581,3.2602,3.1463,3.116,3.0493,2.9602,2.8839,2.8076,2.7379,2.6659,2.5352,2.3829,2.3199,2.3042,2.3107,2.2861,2.2928,2.3062,2.2961,2.1889,2.0836,2.1645,2.0475,1.9049,1.965,1.957,1.9553,2.0346,2.0664,2.1288,0.0,0.0,2.3883,2.5039,2.5311,2.5394,2.5758,2.6947,2.8019,2.8427,3.0216,3.1959,3.3035,3.4329,3.5735,3.7275,3.7594,3.7976,3.8761,3.941,4.0267,4.1534,4.2269,4.2941,4.3539,4.4002,4.4255,4.4285,4.4524,4.4672,4.4712,4.4931,4.5023,4.495,4.5091,4.4694,4.3834,4.3023,4.2221,4.1457,4.0654,4.0301,4.0301,4.0301,4.0263,4.0206,4.0196,4.003,3.9792,3.9759,3.9692,3.9521,0.0,0.0,0.0,0.0,0.0,0.0,0.0,0.0,0.0,3.1688,3.2376,3.2982,3.3733,3.4996,3.6179,3.7108,3.7746,3.8253,3.8612,3.789,3.7542,3.7738,3.7209,3.6978,3.7151,3.6577,3.6301,3.6301,3.6301,3.6131,3.5788,3.5385,3.4944,3.4497,3.3822,3.2857,3.1664,3.1348,3.0345,2.8917,2.8182,2.7504,2.6778,2.6035,2.5349,2.4649,2.4019,2.3371,0.0,2.3092,2.2673,2.1999,2.1965,2.13,2.0549,2.0679,2.0086,1.9488,1.9954,2.009,2.0149,2.0589,2.1024,2.1707,2.3121,2.3647,2.4145,2.5347,2.5535,2.5606,2.598,2.7284,2.8395,0.0,3.0315,3.2241,3.4295,3.5173,3.6476,3.8897,3.9528,3.991,4.0308,4.0584,4.1265,4.2505,4.2829,4.3213,4.3835,4.407,4.4266,4.4416,4.4605,4.4764,4.487,4.5014,4.5125,4.5159,4.5233,4.5074,4.4723,4.3842,4.2726,4.1476,4.1132,4.0731,4.031,4.037,4.0326,4.0215,4.0332,4.0269,4.009,4.0007,3.9977,3.9972,0.0,0.0,0.0,0.0,0.0,0.0,0.0,0.0,0.0,0.0,3.2171,3.2895,3.3673,3.533,3.6503,3.6788,3.7615,3.808,3.7958,3.7471,3.7209,3.7209,3.69,3.6799,3.69,3.643,3.6216,3.6301,3.6216,3.5963,3.5633,3.5339,3.4944,3.4521,3.3949,3.3044,3.1931,3.1635,3.0466,2.8794,2.792,2.7204,2.6607,2.5652,2.5312,2.5216,2.4717,2.3874,2.3052,2.3363,2.2646,2.1635,2.1575,2.1157,2.0654,2.0373,2.0207,2.0137,2.0342,2.0489,2.0605,2.0605,2.128,2.2096,2.2846,2.3647,2.4492,2.55,2.5641,2.5781,2.6452,2.7604,2.8684,2.9192,3.0846,3.2945,3.5315,3.6232,3.7537,3.9935,4.0761,4.1281,4.1552,4.1703,4.2124,4.294,4.316,4.346,4.3926,4.4128,4.4321,4.4537,4.4685,4.484,4.4967,4.5068,4.5125,4.517,4.5203,4.5246,4.5258,4.4346,4.3174,4.1848,4.1628,4.1189,4.0607,4.0556,4.04,4.0244,4.043,4.0394,4.0251,4.0158,4.0129,4.0167,0.0,0.0,0.0,0.0,0.0,0.0,0.0,0.0,0.0,0.0,0.0,0.0,0.0,3.3519,3.4452,3.5286,3.6338,3.7058,3.731,3.725,3.7208,3.7209,3.662,3.6512,3.688,3.6182,3.5963,3.6301,3.5963,3.5611,3.5224,3.5201,3.4826,3.4101,3.3822,3.3097,3.2084,3.1821,3.094,2.9654,2.8252,2.7611,2.7317,2.5849,2.5312,2.5264,2.5135,2.4624,2.4038,2.3904,2.3467,2.2951,2.2951,2.2253,2.1517,2.1669,2.1193,2.0566,2.0605,2.0605,2.0605,2.0605,2.1804,2.2957,2.2984,2.4168,2.5382,2.5793,2.5723,2.5978,2.725,2.8019,2.8812,2.9827,3.2288,3.451,3.5651,3.7536,3.9222,4.0353,4.0972,4.1552,0.0,4.2678,4.2959,4.3014,4.3546,4.3926,4.4094,4.4335,4.4551,4.4699,4.4821,4.4895,4.4895,4.5026,4.5103,4.5095,4.5224,4.5297,4.5269,4.4388,4.3529,4.2727,4.1993,4.1557,4.1332,4.0816,4.0469,4.0316,4.0441,4.0465,4.0397,4.0389,4.0353,4.0281,0.0,0.0,0.0,0.0,0.0,0.0,0.0,0.0,0.0,0.0,0.0,0.0,0.0,0.0,0.0,0.0,3.5616,3.6215,3.6616,3.6395,3.6326,3.6392,3.6028,3.5941,3.6161,3.5661,3.5453,3.5588,3.5453,3.5224,3.4883,3.4883,3.4578,3.4101,3.4,3.3491,3.2648,3.2086,3.1028,2.9614,2.8155,2.7237,2.6641,2.5687,2.5312,2.5276,0.0,2.4432,2.3353,2.3327,2.2472,2.1499,2.2021,2.1614,2.0905,2.0828,2.0722,2.0566,2.0459,2.0489,2.0605,2.0605,2.1794,2.2995,2.2995,2.4204,2.5418,2.584,2.584,2.6164,2.7284,2.8589,2.9903,3.1122,3.3035,3.5013,3.6928,3.7807,3.8923,4.081,4.1508,0.0,0.0,0.0,0.0,4.3563,4.3876,4.4097,4.4237,4.4496,4.4687,4.4826,4.4876,4.496,4.5102,4.5106,4.5125,4.517,4.5265,4.5286,4.5224,4.4938,4.4399,4.3704,4.3426,4.2994,4.2482,4.1803,4.14,4.1195,4.0847,4.0596,4.0481,4.0619,4.066,4.0619,0.0,0.0,0.0,0.0,0.0,0.0,0.0,0.0,0.0,0.0,0.0,0.0,0.0,0.0,0.0,0.0,0.0,3.4826,3.5103,3.5508,3.5661,3.5521,3.5521,3.5611,3.5805,3.5543,3.5542,3.5772,3.5404,3.5148,3.5053,3.4855,3.4546,3.4176,3.4176,3.3672,3.2799,3.2281,3.138,3.014,2.8716,2.7755,2.7114,2.6154,2.5569,0.0,2.4969,2.424,2.3353,2.3106,2.2134,2.1049,2.1308,2.1011,2.0566,2.045,2.0489,2.0566,2.0459,2.0722,2.1011,2.1011,2.2199,2.3427,2.3463,2.442,2.5418,2.591,2.6325,2.6945,2.8019,2.9757,3.1401,3.2511,3.4272,3.6083,3.7676,3.8529,3.9549,4.1121,4.1961,4.2582,0.0,0.0,0.0,4.3865,4.4005,4.417,4.4388,4.4595,4.4808,4.5041,4.5068,4.5156,4.5323,4.5292,4.5311,4.539,4.5419,4.5419,4.535,4.535,4.5112,4.4724,4.4388,4.3962,4.3489,4.2775,4.2193,4.1708,4.1364,4.0965,4.0621,4.0752,4.0797,4.0784,0.0,0.0,0.0,0.0,0.0,0.0,0.0,0.0,0.0,0.0,0.0,0.0,0.0,0.0,0.0,0.0,0.0,0.0,3.2991,3.4564,3.5233,3.4625,3.5075,3.5481,3.5744,3.5722,3.6039,3.6706,3.5725,3.5367,3.5687,3.52,3.4782,3.4414,3.4414,3.3793,3.2687,3.2511,3.2044,3.1265,2.9813,2.8988,2.8522,2.708,2.6045,2.5194,2.4445,2.4156,2.4047,2.3243,2.2472,2.1652,2.0867,2.0605,2.0605,2.0605,2.0605,2.0605,2.0605,2.1203,2.1794,2.1794,2.2973,2.4156,2.4337,2.4862,2.55,2.6156,2.7158,2.8252,0.0,0.0,3.3166,3.3909,3.5982,3.7681,3.7992,3.9683,4.1036,0.0,0.0,0.0,0.0,0.0,0.0,4.3945,0.0,4.4196,4.4591,4.4676,4.4908,4.5293,4.5362,4.5438,4.5498,4.5552,4.564,4.57,4.57,4.566,4.5594,4.5614,4.5618,4.565,4.4887,4.4498,4.4326,4.3718,4.286,4.1959,4.2027,4.1564,4.0855,4.0855,4.0835,4.0797,0.0,0.0,0.0,0.0,0.0,0.0,0.0,0.0,0.0,0.0,0.0,0.0,0.0,0.0,0.0,0.0,0.0,0.0,3.2934,3.3592,3.415,3.4568,3.4682,3.492,3.5339,3.492,3.4901,3.5385,3.5463,3.5547,3.5628,3.6056,3.6186,3.6109,3.6109,3.5922,3.5517,3.385,3.3025,3.2582,2.9558,2.8276,2.802,2.6452,2.5734,2.55,2.5123,2.5004,2.4791,2.3463,2.2472,2.1652,2.0867,2.0605,2.0605,2.0605,2.0605,2.0605,2.0605,2.1203,2.1794,2.1794,2.2973,2.4108,2.4156,2.4898,2.5879,2.7208,2.7816,2.8705,0.0,0.0,0.0,3.5327,3.707,0.0,3.9897,4.0541,0.0,4.2221,0.0,4.345,4.3881,4.427,0.0,0.0,4.4498,4.4511,4.4682,4.4966,4.5254,4.5528,4.5438,4.5456,4.556,4.5547,4.5558,4.5629,4.5629,4.5612,4.5594,4.5559,4.5593,4.5688,4.5422,4.5357,4.5365,4.4607,4.413,4.3824,4.3214,4.2454,4.168,4.168,4.1313,4.0797,0.0,0.0,0.0,0.0,0.0,0.0,0.0,0.0,0.0,0.0,0.0,0.0,0.0,0.0,0.0,0.0,0.0,0.0,0.0,3.2611,3.334,3.4011,3.4284,3.4578,3.4984,3.4794,3.506,3.5802,3.5465,3.5572,3.6095,3.59,3.57,3.547,3.547,3.5136,3.4514,3.3228,3.2632,0.0,0.0,2.8622,2.8332,2.6752,2.5931,2.5571,2.5382,2.5312,2.5123,2.3902,2.2984,2.2172,2.1385,2.1126,2.1059,2.0712,2.0605,2.0605,2.0605,2.1471,2.2322,2.2322,2.35,2.4694,2.5037,2.5815,2.6859,2.8129,2.9196,3.0426,3.2028,3.3881,0.0,0.0,0.0,0.0,4.0666,4.1263,4.1923,0.0,4.3401,0.0,4.4332,4.4585,4.4751,0.0,4.4751,4.4788,4.4962,4.5213,4.5446,4.5673,4.5605,4.5629,4.5737,4.573,4.5715,4.5727,4.5727,4.5723,4.5692,4.5648,4.5696,4.5786,0.0,4.5745,4.5809,4.5311,4.4929,4.4555,4.4052,4.3343,4.2512,4.2144,4.1737,4.1313,0.0,0.0,0.0,0.0,0.0,0.0,0.0,0.0,0.0,0.0,0.0,0.0,0.0,0.0,0.0,0.0,0.0,0.0,0.0,0.0,3.2561,3.3171,3.382,3.4317,3.4691,3.4961,3.5623,3.6754,3.5587,3.5572,3.6589,3.5432,3.4652,3.4198,3.4121,3.3445,3.2318,3.2016,3.1811,3.1545,3.0156,2.9398,2.8946,0.0,2.6368,2.5606,2.5382,2.5312,2.5194,2.4492,2.3756,2.3032,2.2209,2.1945,2.1794,2.1021,2.075,2.075,2.075,2.1869,2.3021,2.3132,2.4298,2.5599,2.6371,2.7151,2.8049,2.9148,3.0923,3.2548,3.3514,3.5474,3.7188,3.7946,0.0,4.0521,4.0849,4.181,4.2698,4.3211,4.3846,4.4346,4.463,4.4788,4.4903,4.4915,4.4973,4.5085,4.5292,4.539,4.5552,4.5788,4.5805,4.5834,4.5893,4.5933,4.5933,4.5899,4.5899,4.5867,4.5807,4.5807,4.5841,4.5873,0.0,0.0,4.5873,4.5815,4.5394,4.4755,4.4755,4.424,4.3389,4.2634,4.233,4.2175,0.0,0.0,0.0,0.0,0.0,0.0,0.0,0.0,0.0,0.0,2.971,2.9643,0.0,0.0,0.0,0.0,0.0,0.0,0.0,0.0,0.0,3.2666,3.3095,3.3738,3.4691,3.4546,3.4782,3.5447,3.5579,3.582,3.6117,3.5992,3.589,3.5785,3.5347,3.4936,3.4541,3.3299,3.2714,3.2392,3.0405,2.9226,2.8511,2.733,0.0,0.0,2.5418,2.5312,2.5264,2.5123,2.4564,2.3781,2.3021,2.2809,2.2611,2.1832,2.1576,2.1576,2.1576,2.2285,2.3132,2.3756,2.4952,2.6166,2.697,2.7832,0.0,3.1011,3.2328,3.3605,3.4974,3.6537,3.7806,3.8334,3.9518,4.0625,4.1281,4.2021,4.2792,0.0,4.4106,4.4572,4.4896,4.5201,0.0,0.0,0.0,4.5485,4.5312,4.5519,4.5696,4.5793,4.58,4.5814,4.5821,4.5834,4.5834,4.5827,4.5827,4.5821,4.5807,4.5807,4.5814,4.5821,0.0,0.0,4.5821,4.5787,4.5729,4.5587,4.5587,4.5138,4.4436,4.43,4.3825,4.324,0.0,0.0,0.0,0.0,0.0,0.0,0.0,0.0,3.0154,3.0033,3.0038,2.9995,2.9832,2.9454,0.0,0.0,0.0,0.0,0.0,0.0,0.0,0.0,3.2918,3.3364,3.391,3.4184,3.4488,3.488,0.0,3.5489,3.5984,3.5402,3.4926,3.4606,3.3975,3.3434,3.3022,3.2195,3.1767,3.1531,3.0168,2.939,2.8921,0.0,0.0,0.0,2.5382,2.5312,2.5312,2.5312,2.504,2.46,2.3829,2.3573,2.3427,2.266,2.2424,2.2424,2.2424,2.2984,2.3751,2.4526,2.5428,2.6518,2.8079,0.0,0.0,3.2047,3.3485,3.479,3.5917,3.7024,3.8149,3.9203,4.016,4.1036,4.1846,4.25,4.3159,4.3918,4.4318,4.4751,0.0,0.0,0.0,0.0,0.0,4.5612,4.551,4.5653,4.5764,4.5807,4.5807,4.5807,4.5807,4.5807,4.5807,4.5807,4.5807,4.5807,4.5807,4.5807,4.5807,4.5807,4.5807,0.0,4.5892,4.5892,4.5914,4.5968,4.5968,4.5745,4.5378,4.4922,4.4522,4.4164,0.0,0.0,0.0,0.0,0.0,0.0,0.0,2.9547,3.0493,3.0223,3.0316,3.0342,3.022,2.9677,2.922,0.0,0.0,0.0,0.0,0.0,0.0,0.0,0.0,0.0,0.0,0.0,0.0,3.4298,3.4327,0.0,0.0,0.0,0.0,0.0,3.2296,3.1638,3.1087,3.0925,3.0762,0.0,0.0,2.9716,0.0,0.0,0.0,0.0,0.0,2.5312,2.5312,2.5312,2.5312,2.5194,2.4528,2.4337,2.4228,2.3463,2.3243,2.3265,2.3375,2.3841,2.4517,2.5468,2.6223,2.7299,2.9314,3.0591,3.1768,3.3087,3.4684,3.6055,3.6737,3.7587,3.8635,4.0019,4.0827,4.153,4.2297,4.292,4.3559,0.0,4.4521,0.0,4.5429,0.0,0.0,0.0,0.0,0.0,4.5708,4.5757,4.58,4.5807,4.5807,4.5807,4.5807,4.5834,4.5835,4.5835,4.5861,4.5854,4.5854,4.5854,4.5854,4.5854,4.5854,0.0,0.0,4.6027,4.6054,4.6095,4.6111,4.6118,4.6034,4.5358,4.5142,4.5098,0.0,0.0,0.0,0.0,0.0,0.0,0.0,2.8937,3.0222,3.0185,3.038,3.0568,3.0794,3.0022,2.9335,0.0,0.0,0.0,0.0,0.0,0.0,0.0,0.0,0.0,0.0,0.0,0.0,3.2962,3.3113,0.0,0.0,0.0,0.0,0.0,0.0,3.1395,3.1117,3.1087,0.0,0.0,0.0,0.0,0.0,0.0,0.0,0.0,0.0,2.5312,2.5312,2.5312,2.5312,2.5276,2.5076,2.5099,2.5052,2.4228,2.4,0.0,2.4597,2.476,2.5185,2.6645,2.799,2.9207,3.0309,0.0,3.3869,3.4703,3.6119,3.7296,3.7648,3.8652,3.9629,4.0277,4.1185,4.1966,4.2356,4.3123,4.382,4.426,0.0,0.0,4.539,0.0,0.0,0.0,0.0,0.0,0.0,4.5765,4.581,4.5807,4.5807,4.5807,4.5807,4.5929,4.5986,4.5986,4.6039,4.608,4.608,4.608,4.608,4.608,0.0,0.0,0.0,4.6088,4.6088,4.6092,4.6091,4.615,4.6184,4.6106,4.6117,4.6162,0.0,0.0,0.0,0.0,0.0,0.0,2.7062,2.8732,3.0028,3.0179,3.0443,3.0692,3.0892,3.0241,2.9683,0.0,0.0,0.0,0.0,0.0,0.0,0.0,0.0,0.0,0.0,0.0,3.3042,3.2922,3.3039,0.0,0.0,0.0,0.0,0.0,0.0,0.0,3.1087,3.0984,0.0,0.0,0.0,0.0,0.0,0.0,0.0,0.0,0.0,0.0,2.5312,2.5312,2.5312,2.5276,2.5147,2.5433,2.5649,2.4897,2.5214,2.5759,2.5629,2.5879,2.6508,2.8176,2.8886,2.9842,3.2263,0.0,3.4263,3.5629,3.6753,3.7576,3.7764,3.8924,4.0061,4.0709,4.1629,4.2469,4.3051,4.3642,4.4158,4.4546,4.4837,0.0,0.0,0.0,0.0,0.0,0.0,0.0,0.0,4.5911,4.5917,4.5929,4.5929,4.5917,4.5918,4.6017,4.606,4.6066,4.6087,4.6103,4.6103,4.6103,4.6103,4.6103,0.0,0.0,0.0,4.6164,4.6181,4.623,4.6225,4.6234,4.6266,4.6261,4.6287,4.6296,0.0,0.0,0.0,0.0,0.0,2.7098,2.7321,2.8661,2.9799,3.022,3.0568,3.0831,3.0972,3.0493,3.0118,2.9968,0.0,0.0,0.0,0.0,0.0,0.0,0.0,0.0,0.0,0.0,3.2285,3.2207,3.2544,3.2707,0.0,0.0,0.0,0.0,0.0,0.0,0.0,0.0,0.0,0.0,0.0,0.0,0.0,0.0,0.0,0.0,0.0,0.0,0.0,0.0,0.0,2.5558,2.5159,2.5576,2.6128,2.5505,2.6067,2.6837,2.6647,2.7075,2.7927,2.9375,3.0023,3.1002,3.3588,0.0,3.5038,3.6399,3.734,3.7982,3.8262,3.9361,4.0446,4.1218,4.2114,4.2941,4.3543,4.4023,4.4443,0.0,0.0,0.0,0.0,0.0,0.0,0.0,0.0,0.0,0.0,4.6067,4.606,4.6037,4.6027,4.6037,4.6026,4.6099,4.613,4.6135,4.6157,4.6167,4.6167,4.6167,4.6167,4.6167,0.0,0.0,0.0,4.6225,4.6261,4.63,4.6297,4.6296,4.6296,4.6291,4.6309,4.6308,0.0,0.0,0.0,0.0,0.0,0.0,0.0,2.8746,2.9589,3.0385,3.0733,3.0972,3.1171,3.0841,3.0522,3.0314,0.0,0.0,0.0,0.0,0.0,0.0,0.0,0.0,0.0,0.0,3.091,3.0312,3.1124,3.1511,3.1511,3.1496,3.1161,3.0524,0.0,0.0,0.0,0.0,0.0,0.0,0.0,0.0,0.0,0.0,0.0,0.0,0.0,0.0,0.0,0.0,0.0,0.0,0.0,2.5642,2.6502,2.5942,2.6317,2.7006,2.7522,2.8435,2.9363,3.0087,3.1586,3.3115,3.4008,3.5327,3.6569,3.7252,3.8017,3.8794,3.9454,4.0194,4.0967,4.1756,4.2675,4.339,4.366,4.4223,4.465,0.0,0.0,0.0,0.0,0.0,0.0,0.0,0.0,0.0,0.0,4.6228,4.6167,4.6092,4.6106,4.6106,4.6107,4.6164,4.6206,4.6206,4.6269,4.6301,4.6301,4.6301,4.6301,0.0,0.0,0.0,0.0,4.6295,4.6293,4.6293,4.6305,4.63,4.63,4.63,4.63,4.63,0.0,0.0,0.0,0.0,0.0,0.0,0.0,2.8653,2.9494,3.0385,3.0855,3.1052,3.0892,3.0736,3.0551,3.0258,0.0,0.0,0.0,0.0,0.0,0.0,0.0,0.0,0.0,0.0,2.9859,2.9744,2.9653,2.9589,2.9589,2.9589,2.9688,2.9872,2.9432,0.0,0.0,0.0,0.0,0.0,0.0,0.0,0.0,0.0,0.0,0.0,0.0,0.0,0.0,0.0,0.0,0.0,0.0,0.0,0.0,2.6219,2.6913,2.7918,2.8394,2.9012,2.9922,3.1536,3.2692,3.3833,3.5359,3.643,3.7282,3.7947,3.8733,3.9365,3.9558,4.0638,4.1678,4.2167,4.3068,4.3833,0.0,0.0,0.0,4.5197,0.0,0.0,0.0,0.0,0.0,0.0,0.0,0.0,0.0,4.6277,4.624,4.6167,4.6161,4.6174,4.6167,4.6223,4.6278,4.6271,4.6284,4.6308,4.6308,4.6308,0.0,0.0,0.0,0.0,0.0,4.6306,4.6305,4.6305,4.6302,4.63,4.63,4.63,4.63,4.63,0.0,0.0,0.0,0.0,0.0,0.0,0.0,2.8602,2.935,3.0175,3.0807,3.1112,3.0895,3.0892,3.0712,3.0279,0.0,0.0,0.0,0.0,0.0,0.0,0.0,0.0,0.0,2.889,2.8988,2.8815,2.8728,2.8566,2.8354,2.8594,2.8777,2.8889,2.8749,2.8382,0.0,0.0,0.0,0.0,0.0,0.0,2.6796,0.0,0.0,0.0,0.0,0.0,0.0,0.0,0.0,0.0,0.0,0.0,0.0,0.0,2.7061,2.8083,2.8883,2.9871,3.1044,3.2354,3.3478,0.0,3.6088,3.6951,3.7709,3.8595,3.9269,3.9808,4.0243,4.1291,4.2226,4.2661,4.3502,4.418,0.0,0.0,0.0,0.0,0.0,0.0,0.0,0.0,0.0,0.0,0.0,0.0,0.0,0.0,4.6275,4.6243,4.624,4.624,4.6236,4.628,4.6306,4.63,4.63,4.63,4.63,4.63,0.0,0.0,0.0,0.0,0.0,4.63,4.63,4.63,4.63,4.63,4.63,4.63,4.6298,4.6294,0.0,0.0,0.0,0.0,0.0,0.0,0.0,0.0,2.9251,2.9863,3.0678,3.1171,3.1171,3.1151,3.0898,3.033,0.0,0.0,0.0,0.0,0.0,0.0,0.0,0.0,0.0,2.8177,2.8187,2.7634,2.8257,2.8253,2.7667,2.8224,2.8196,2.7667,2.8168,2.8011,2.7333,0.0,0.0,0.0,0.0,0.0,0.0,0.0,0.0,0.0,0.0,0.0,0.0,0.0,0.0,0.0,0.0,0.0,0.0,0.0,0.0,0.0,0.0,3.0869,3.2412,3.2761,3.4007,3.5402,3.6291,3.707,0.0,3.9156,3.9655,4.0201,4.1331,4.2047,4.2642,4.3266,4.3958,0.0,0.0,4.5053,0.0,0.0,0.0,0.0,0.0,0.0,0.0,0.0,0.0,0.0,0.0,0.0,4.63,4.63,4.63,4.6305,4.6293,4.6305,4.63,4.63,4.63,4.63,4.63,4.63,0.0,0.0,0.0,0.0,0.0,4.63,4.63,4.63,4.63,4.63,4.63,4.6298,4.6292,4.6284,0.0,0.0,0.0,0.0,0.0,0.0,0.0,0.0,0.0,0.0,3.076,3.0975,3.0834,3.0617,3.0372,0.0,0.0,0.0,0.0,0.0,0.0,0.0,0.0,0.0,2.761,2.7299,2.7074,2.6927,2.7099,2.6861,2.6273,2.6411,2.6644,2.693,2.6617,2.6245,2.5854,2.5112,0.0,0.0,0.0,0.0,0.0,0.0,0.0,0.0,2.4462,2.467,0.0,0.0,0.0,0.0,0.0,0.0,0.0,0.0,2.7815,2.9401,3.0113,0.0,3.1938,3.3905,3.5127,3.6072,0.0,3.7799,3.8567,3.9252,3.9935,4.0716,4.1704,4.2451,4.3176,4.3943,0.0,0.0,0.0,0.0,0.0,0.0,0.0,0.0,0.0,0.0,0.0,0.0,0.0,0.0,0.0,0.0,4.63,4.63,4.63,4.6302,4.6303,4.6302,4.63,4.63,4.63,4.63,4.63,4.63,0.0,0.0,0.0,0.0,4.63,4.63,4.63,4.63,4.6292,4.6308,4.6288,4.624,4.6214,4.6211,0.0,0.0,0.0,0.0,0.0,0.0,0.0,0.0,0.0,0.0,0.0,0.0,0.0,0.0,0.0,0.0,0.0,0.0,0.0,0.0,0.0,0.0,0.0,2.803,2.761,2.728,2.6997,2.6709,2.6431,2.5987,2.5453,2.5687,2.5987,2.6256,2.581,2.5508,2.5231,2.406,2.4118,2.4963,2.4739,0.0,0.0,0.0,0.0,0.0,2.4283,2.4606,0.0,2.5264,2.5076,2.4682,0.0,0.0,0.0,0.0,2.7755,2.9254,3.0412,3.1742,3.3101,3.4528,3.5755,3.6737,3.734,3.8311,3.9232,3.9834,4.0638,4.1495,4.2354,4.3068,4.3703,4.4256,4.4612,0.0,0.0,0.0,0.0,0.0,0.0,0.0,0.0,0.0,0.0,0.0,0.0,0.0,0.0,0.0,4.63,4.63,4.63,4.63,4.63,4.63,4.63,4.63,4.63,4.63,4.63,4.6296,4.6296,0.0,0.0,0.0,4.63,4.63,4.6298,4.6292,4.6308,4.6282,4.6255,4.6209,4.6203,4.6198,0.0,0.0,0.0,0.0,0.0,0.0,0.0,0.0,0.0,0.0,0.0,0.0,0.0,0.0,0.0,0.0,0.0,0.0,0.0,0.0,0.0,0.0,0.0,2.7987,2.7625,2.7524,2.7203,2.6709,2.6203,2.566,2.5132,2.5577,2.5837,2.5892,2.5536,2.5315,2.5063,2.3636,2.356,2.4337,2.3594,0.0,0.0,0.0,0.0,0.0,0.0,0.0,0.0,2.5569,2.517,2.449,2.479,0.0,0.0,0.0,0.0,0.0,3.0605,3.2933,3.4879,3.5026,3.6198,3.7397,3.7777,3.8843,3.9935,4.0577,4.1402,4.2268,4.3032,4.3666,0.0,0.0,0.0,0.0,0.0,0.0,0.0,0.0,0.0,0.0,0.0,0.0,0.0,0.0,0.0,0.0,0.0,0.0,0.0,4.63,4.63,4.63,4.63,4.63,4.63,4.63,4.63,4.63,4.63,4.631,4.631,0.0,0.0,0.0,4.6277,4.6277,4.6271,4.6282,4.6279,4.6258,4.6192,4.6203,4.6201,4.6201,0.0,0.0,0.0,0.0,0.0,0.0,0.0,0.0,0.0,0.0,0.0,0.0,0.0,0.0,0.0,0.0,0.0,0.0,0.0,0.0,0.0,2.7484,2.7575,2.7625,2.76,2.71,2.6788,2.6709,2.6616,2.627,2.5687,2.5755,2.6014,2.6363,2.5701,2.5217,2.4895,2.4021,2.3754,2.3917,2.4047,0.0,0.0,0.0,0.0,0.0,0.0,0.0,0.0,2.5123,2.4743,2.4381,2.504,0.0,0.0,0.0,0.0,0.0,3.146,3.3883,3.5868,3.5915,3.7081,3.8365,3.8978,3.9817,4.0601,4.1099,4.1697,4.2455,4.3365,4.4031,4.4569,0.0,0.0,0.0,0.0,0.0,0.0,0.0,0.0,0.0,0.0,0.0,0.0,0.0,0.0,0.0,0.0,0.0,0.0,4.63,4.63,4.63,4.63,4.63,4.63,4.63,4.63,4.63,4.63,4.631,4.6306,0.0,0.0,4.6211,4.6214,4.6214,4.6211,4.6228,4.6217,4.6214,4.6195,4.6209,4.6197,4.6195,0.0,0.0,0.0,0.0,0.0,0.0,0.0,0.0,0.0,0.0,0.0,0.0,0.0,0.0,0.0,0.0,0.0,0.0,0.0,0.0,0.0,2.7625,2.757,2.757,2.76,2.7023,2.6709,2.6709,2.6363,2.6068,2.581,2.6122,2.651,2.6841,2.5837,2.5356,2.5204,2.4137,2.393,2.4321,0.0,0.0,0.0,0.0,0.0,0.0,0.0,0.0,0.0,0.0,2.4635,2.4334,2.5064,0.0,0.0,0.0,0.0,0.0,3.2312,3.4449,3.6152,3.7125,3.8209,3.9285,4.0171,4.0874,4.1511,4.2042,4.2703,4.3344,4.389,0.0,4.4823,4.534,0.0,0.0,0.0,0.0,0.0,0.0,0.0,0.0,0.0,0.0,0.0,0.0,0.0,0.0,0.0,0.0,0.0,0.0,4.625,4.625,4.625,4.625,4.6262,4.6292,4.6292,4.6298,4.6306,4.626,4.626,4.63,0.0,4.6201,4.6206,4.6206,4.6197,4.6208,4.6201,4.6197,4.6194,4.6197,4.6204,4.6204,0.0,0.0,0.0,0.0,0.0,0.0,0.0,0.0,0.0,0.0,0.0,0.0,0.0,0.0,0.0,0.0,0.0,0.0,0.0,0.0,2.76,2.76,2.7458,2.7382,2.7382,2.6945,2.6563,2.6297,2.596,2.5864,2.6014,2.6642,2.6945,2.6959,2.6014,2.5508,2.5287,2.441,2.425,2.4565,0.0,0.0,0.0,0.0,0.0,0.0,0.0,0.0,0.0,0.0,0.0,0.0,0.0,0.0,0.0,2.8163,2.924,3.0231,3.3141,3.5123,3.6779,3.8438,3.9301,4.0043,4.1143,4.1822,4.2379,4.2959,4.364,4.4157,4.4323,4.472,0.0,4.5636,0.0,0.0,0.0,0.0,0.0,0.0,0.0,0.0,0.0,0.0,0.0,0.0,0.0,0.0,0.0,0.0,4.6202,4.6202,4.6202,4.6204,4.6209,4.62,4.623,4.6288,4.6285,4.6309,4.6299,4.6253,4.6255,4.6296,4.6228,4.6197,4.6206,4.6206,4.6197,4.6209,4.6209,4.6196,4.6204,4.6218,4.6206,4.6204,0.0,0.0,0.0,0.0,0.0,0.0,0.0,0.0,0.0,0.0,0.0,0.0,0.0,0.0,0.0,0.0,0.0,0.0,0.0,0.0,2.76,2.76,2.7074,2.6747,2.6747,2.6736,2.619,2.5118,2.5577,2.6095,2.6642,2.7255,2.7111,2.6363,2.6256,2.5618,2.4595,2.5063,2.4851,2.4189,2.4679,0.0,0.0,0.0,0.0,0.0,0.0,0.0,0.0,0.0,0.0,0.0,0.0,0.0,2.6095,2.8834,3.0057,3.111,3.3798,3.6291,3.8461,3.9834,4.0209,4.0545,4.1672,4.2452,4.3051,4.345,4.4042,4.4478,4.4491,4.516,4.579,4.6037,0.0,0.0,0.0,0.0,0.0,0.0,0.0,0.0,0.0,0.0,0.0,0.0,0.0,0.0,0.0,0.0,0.0,4.6202,4.6202,4.6191,4.6203,4.6204,4.6205,4.6207,4.6269,4.6308,4.6308,4.6307,4.6305,4.6306,4.6223,4.6201,4.6202,4.6202,4.6202,4.6203,4.6203,4.6203,4.6207,4.6262,4.625,4.6191,0.0,0.0,0.0,0.0,0.0,0.0,0.0,0.0,0.0,0.0,0.0,0.0,0.0,0.0,0.0,0.0,0.0,0.0,0.0,2.8134,2.7919,2.761,2.7382,2.724,2.7195,2.6188,2.5591,2.5508,2.6082,2.6669,2.7255,2.7412,2.7244,2.6841,2.6377,2.596,2.5591,2.5467,2.5105,2.4679,2.492,2.4445,0.0,0.0,0.0,0.0,0.0,0.0,0.0,0.0,2.5075,2.5475,2.6308,2.6595,2.7118,2.9699,3.0831,3.1909,3.4748,3.6837,3.8543,4.0093,4.078,4.1389,4.2703,4.3191,4.3568,4.4266,4.4694,4.4993,4.5141,0.0,4.5908,0.0,0.0,0.0,0.0,0.0,0.0,0.0,0.0,0.0,0.0,0.0,0.0,0.0,0.0,0.0,0.0,0.0,0.0,4.6072,4.6114,4.6135,4.6147,4.6182,4.6195,4.6197,4.6268,4.6308,4.6308,4.6268,4.6268,4.6308,4.6227,4.6204,4.6204,4.6204,4.6228,4.6269,4.6267,4.6264,4.6264,4.6282,4.6269,4.6194,0.0,0.0,0.0,0.0,0.0,0.0,0.0,0.0,0.0,0.0,0.0,0.0,0.0,0.0,0.0,0.0,0.0,0.0,2.881,2.8376,2.8052,2.782,2.767,2.754,2.7495,2.6199,2.5673,2.6038,2.6496,2.7023,2.76,2.764,2.7473,2.7122,2.6938,2.6666,2.631,2.6174,2.5895,2.5504,2.5617,2.5223,0.0,0.0,0.0,0.0,0.0,0.0,0.0,0.0,2.5627,2.6124,2.6684,2.7191,2.8047,3.0679,3.1958,3.3114,3.5967,3.7943,3.9444,4.0597,4.1464,4.2291,4.3399,4.365,4.3921,4.4808,4.5192,4.5449,4.5711,0.0,0.0,0.0,0.0,0.0,0.0,0.0,0.0,0.0,0.0,0.0,0.0,0.0,0.0,0.0,0.0,0.0,0.0,0.0,0.0,0.0,4.6093,4.6123,4.6138,4.6186,4.6211,4.6221,4.6281,4.6307,4.6302,4.6249,4.6269,4.6302,4.6249,4.623,4.623,4.623,4.6268,4.6301,4.6308,4.63,4.6303,4.6299,4.6269,4.6203,0.0,0.0,0.0,0.0,0.0,0.0,0.0,0.0,0.0,0.0,0.0,0.0,0.0,0.0,0.0,0.0,0.0,0.0,2.9788,2.855,2.7934,2.828,2.7809,2.7495,2.752,2.6927,2.6628,2.6602,2.6678,2.7023,2.7625,2.8024,2.7765,2.707,2.8055,2.772,2.6488,2.7338,2.7281,2.6637,2.6905,2.6435,2.5725,0.0,0.0,0.0,0.0,0.0,0.0,0.0,2.6161,2.7217,2.7224,2.7723,2.8893,3.1847,3.3427,3.4766,3.7383,3.9758,4.1481,4.1503,4.2306,4.323,4.3705,4.3802,4.4076,4.5019,4.5464,4.5769,4.6047,4.6098,0.0,0.0,0.0,0.0,0.0,0.0,0.0,0.0,0.0,0.0,0.0,0.0,0.0,0.0,0.0,0.0,0.0,0.0,0.0,0.0,4.6177,4.6196,4.6206,4.6209,4.6221,4.63,4.63,4.63,4.63,4.63,4.63,4.63,4.63,4.63,4.63,4.63,4.63,4.63,4.63,4.63,4.63,4.63,4.6265,4.6204,0.0,0.0,0.0,0.0,0.0,0.0,0.0,0.0,0.0,0.0,0.0,0.0,0.0,0.0,0.0,0.0,0.0,0.0,2.8912,2.8511,2.8204,2.7959,2.7695,2.7715,2.807,2.8258,2.7803,2.6678,2.7449,2.7913,2.81,2.8415,2.8424,2.8185,2.7923,2.8022,2.8342,2.8051,2.8074,2.8315,2.7883,2.7659,2.7612,0.0,0.0,0.0,0.0,0.0,0.0,0.0,0.0,0.0,2.8084,2.8698,2.9785,3.2036,3.3517,3.4971,3.7528,3.9564,4.111,4.1806,4.2604,4.3388,4.4004,4.414,4.4401,4.5304,4.5672,4.5914,4.6119,4.6162,0.0,0.0,0.0,0.0,0.0,0.0,0.0,0.0,0.0,0.0,0.0,0.0,0.0,0.0,0.0,0.0,0.0,0.0,0.0,0.0,4.6196,4.6198,4.6206,4.6245,4.6275,4.63,4.63,4.63,4.63,4.63,4.63,4.63,4.63,4.63,4.63,4.63,4.63,4.63,4.63,4.63,4.63,4.63,4.6265,4.6183,0.0,0.0,0.0,0.0,0.0,0.0,0.0,0.0,0.0,0.0,3.0744,3.0768,0.0,0.0,0.0,0.0,0.0,0.0,0.0,2.8574,2.8204,2.8008,2.814,2.8415,2.888,2.9196,2.881,2.765,2.8288,2.8614,2.8614,2.8889,2.9028,2.902,2.8894,2.9115,2.9558,2.946,2.9543,2.9709,2.9364,2.9218,2.9229,0.0,0.0,0.0,0.0,0.0,0.0,0.0,0.0,0.0,2.8538,2.9317,3.0665,3.2703,3.443,3.6217,3.8612,4.0374,4.1725,4.2451,4.3105,4.3735,4.4489,4.4726,4.4957,4.5588,4.5859,4.6018,4.6165,4.6199,0.0,0.0,0.0,0.0,0.0,0.0,0.0,0.0,0.0,0.0,0.0,0.0,0.0,0.0,0.0,0.0,0.0,0.0,0.0,0.0,4.6228,4.6243,4.6243,4.6275,4.63,4.63,4.63,4.63,4.63,4.63,4.63,4.63,4.63,4.63,4.63,4.63,4.63,4.63,4.63,4.63,4.63,4.63,4.6248,4.6157,0.0,0.0,0.0,0.0,0.0,0.0,0.0,0.0,0.0,0.0,3.1173,3.1295,0.0,0.0,0.0,0.0,0.0,0.0,0.0,0.0,2.8073,2.8264,2.8818,2.9303,2.9728,2.9772,2.9595,2.9166,2.9166,2.9189,2.9219,2.947,2.9637,2.9756,3.0506,3.0683,3.0426,3.127,3.1346,3.0955,3.1119,3.0968,3.0614,3.0614,0.0,0.0,0.0,0.0,0.0,0.0,0.0,0.0,2.8826,2.9811,3.1501,3.3601,3.5803,3.8004,4.0109,4.1725,4.2862,4.3249,4.3691,4.4214,4.5055,4.5379,4.5579,4.5853,0.0,4.6134,4.6192,0.0,0.0,0.0,0.0,0.0,0.0,0.0,0.0,0.0,0.0,0.0,0.0,0.0,0.0,0.0,0.0,0.0,0.0,0.0,0.0,0.0,4.6271,4.63,4.63,4.63,4.63,0.0,4.63,4.63,4.63,4.63,4.63,4.63,4.63,4.63,4.63,4.63,4.63,4.63,4.63,4.6302,4.6302,4.6285,4.6211,4.6103,0.0,0.0,0.0,0.0,0.0,0.0,0.0,0.0,0.0,0.0,0.0,0.0,0.0,0.0,0.0,0.0,0.0,0.0,0.0,0.0,2.8039,2.8149,2.8772,2.9143,2.9234,2.9617,2.975,2.9639,2.9639,2.9821,3.0117,3.0177,3.0617,3.1359,3.0713,3.1182,3.2442,3.2,3.2191,3.2696,3.2124,3.1715,3.1437,3.1437,3.1393,0.0,0.0,0.0,0.0,0.0,0.0,0.0,3.0375,3.107,3.2139,3.39,3.6005,3.8162,4.0162,4.1615,4.2757,4.3487,4.4242,4.4903,4.5402,4.5553,4.5641,4.5865,4.6056,4.6189,4.6196,0.0,0.0,0.0,0.0,0.0,0.0,0.0,0.0,0.0,0.0,0.0,0.0,0.0,0.0,0.0,0.0,0.0,0.0,0.0,0.0,4.6273,4.6298,4.63,4.63,4.63,4.63,0.0,4.63,4.63,4.63,4.63,4.63,4.63,4.63,4.63,4.63,4.63,4.63,4.63,4.63,4.6305,4.6294,4.6249,4.6204,4.6162,0.0,0.0,0.0,0.0,0.0,0.0,0.0,0.0,0.0,0.0,0.0,0.0,0.0,0.0,0.0,0.0,0.0,0.0,0.0,0.0,2.8268,2.8669,2.9166,2.9528,2.9788,3.0006,3.0135,3.0135,3.033,3.0502,3.0642,3.0962,3.1345,3.1748,3.1677,3.2096,3.286,3.2778,3.2909,3.3069,3.266,3.2413,3.2262,3.2107,3.2203,3.2468,3.248,0.0,0.0,0.0,0.0,0.0,0.0,0.0,3.3819,3.5123,3.7067,3.9081,4.0498,4.189,4.3121,4.3918,4.4663,4.5255,4.5545,4.5698,4.584,4.6013,4.6123,4.6199,0.0,0.0,0.0,0.0,0.0,0.0,0.0,0.0,0.0,0.0,0.0,0.0,0.0,0.0,0.0,0.0,0.0,0.0,0.0,4.6009,4.6135,4.6298,4.63,4.63,4.63,4.63,4.63,4.63,4.63,4.63,4.63,4.63,4.6303,4.6306,4.6306,4.6309,4.6293,4.6293,4.6293,4.6293,4.6293,4.6282,4.625,4.6209,4.6161,4.6095,0.0,0.0,0.0,0.0,0.0,0.0,0.0,0.0,0.0,0.0,0.0,0.0,0.0,0.0,0.0,0.0,0.0,0.0,0.0,0.0,0.0,2.938,2.9744,3.0092,3.0489,3.0506,3.0531,3.0613,3.0965,3.1171,3.1274,3.1704,3.1909,3.1916,3.2742,3.3031,3.2912,3.3454,3.3424,3.2978,3.2924,3.287,3.2773,3.2523,3.2742,3.3203,3.3032,3.2944,3.2909,3.3018,0.0,0.0,0.0,0.0,3.5633,3.6446,3.8261,4.0157,4.0913,4.2295,4.3703,4.4449,4.5039,4.5442,4.5633,4.5834,4.6032,4.6162,4.6199,0.0,0.0,0.0,0.0,0.0,0.0,0.0,0.0,0.0,0.0,0.0,0.0,0.0,0.0,0.0,0.0,0.0,0.0,0.0,4.5899,4.6,4.6138,4.63,4.63,4.63,4.63,4.63,4.63,4.63,4.63,4.63,4.63,4.6302,4.6306,4.6293,4.6294,4.6297,4.6301,4.6301,4.6301,4.6301,4.6301,4.6269,4.6202,4.6199,4.61,4.5993,0.0,0.0,0.0,0.0,0.0,0.0,0.0,0.0,0.0,0.0,3.1856,0.0,0.0,0.0,0.0,0.0,0.0,0.0,0.0,0.0,0.0,2.9859,3.0236,3.0426,3.0506,3.0506,3.0675,3.1024,3.1261,3.1794,3.2614,3.2188,3.2333,3.2992,3.3139,3.3445,3.388,3.3764,3.3529,3.3229,3.3005,3.2746,3.2453,3.2425,3.2648,3.2978,3.3176,3.3619,3.4146,3.4685,3.4671,0.0,0.0,0.0,3.6368,3.6874,3.8789,4.0828,4.1178,4.257,4.4138,4.5044,4.5333,4.5505,4.5853,4.5966,4.6032,0.0,0.0,0.0,0.0,0.0,0.0,0.0,0.0,0.0,0.0,0.0,0.0,0.0,0.0,0.0,0.0,0.0,0.0,0.0,0.0,0.0,4.5894,4.5915,4.6045,4.6298,4.63,4.63,4.63,4.63,4.63,4.63,4.63,4.63,4.63,4.6308,4.6293,4.6294,4.6299,4.6301,4.6301,4.6301,4.6301,4.6301,4.6301,4.6269,4.6194,4.614,4.6061,4.5972,0.0,0.0,0.0,0.0,0.0,0.0,0.0,0.0,0.0,0.0,0.0,3.1259,0.0,0.0,0.0,0.0,0.0,0.0,0.0,0.0,0.0,3.0087,3.0426,3.0589,3.0506,3.0506,3.0654,3.0978,3.1723,3.231,3.2728,3.3332,3.3643,3.3694,3.3702,3.3843,3.4101,3.3975,3.3832,3.3688,3.3646,3.363,3.3672,3.403,3.4439,3.4885,3.5033,3.5372,3.5762,3.5785,3.5969,3.621,3.6504,0.0,0.0,0.0,3.9863,4.1385,4.2495,4.356,4.4508,4.5217,4.5486,4.5645,4.5939,4.6066,4.6127,4.6189,0.0,0.0,0.0,0.0,0.0,0.0,0.0,0.0,0.0,0.0,0.0,0.0,0.0,0.0,0.0,0.0,0.0,0.0,0.0,4.5809,4.5894,4.6045,4.6178,4.63,4.63,4.63,4.63,4.63,4.63,4.63,4.63,4.6303,4.6308,4.6295,4.6299,4.6299,4.6303,4.6306,4.6307,4.6307,4.6307,4.6307,4.6268,4.6194,4.6145,4.6076,4.5973,4.5886,0.0,0.0,0.0,0.0,0.0,0.0,0.0,0.0,0.0,0.0,0.0,0.0,0.0,0.0,0.0,0.0,0.0,0.0,0.0,0.0,0.0,3.0359,3.0589,3.0651,3.0506,3.0468,3.0754,3.1341,3.2086,3.2761,3.3348,3.4346,3.4708,3.4544,3.442,3.4349,3.4349,3.425,3.4282,3.4395,3.4243,3.4538,3.5103,3.5391,3.5943,3.6577,3.6635,0.0,0.0,0.0,0.0,0.0,3.7824,3.8481,0.0,0.0,0.0,4.2032,4.3691,4.4364,4.4745,4.5332,4.56,4.5757,4.5993,0.0,4.6209,0.0,0.0,0.0,0.0,0.0,0.0,0.0,0.0,0.0,0.0,0.0,0.0,0.0,0.0,0.0,0.0,0.0,0.0,0.0,0.0,4.5872,4.5899,4.6112,4.6251,4.63,4.63,4.63,4.63,4.63,4.63,4.63,4.6303,4.6306,4.6293,4.6301,4.6303,4.6303,4.6307,4.6308,4.6308,4.6308,4.6289,4.6267,4.6212,4.6147,4.606,4.6013,4.5923,4.5807,0.0,0.0,0.0,0.0,0.0,0.0,0.0,0.0,0.0,0.0,0.0,0.0,3.1601,3.1067,3.0539,3.0011,2.9425,2.9266,2.9728,2.9677,2.9984,3.0831,3.0753,0.0,3.0506,3.0443,3.1107,3.2508,3.2259,3.3247,3.5352,3.4864,3.5018,3.5693,3.5241,3.5041,3.5018,3.4643,3.4874,3.5456,3.4554,3.5092,3.6345,3.5718,3.6158,3.707,0.0,0.0,0.0,0.0,0.0,0.0,0.0,0.0,3.9978,0.0,0.0,0.0,4.4224,4.458,4.4768,4.5494,4.5696,4.5796,0.0,0.0,0.0,0.0,0.0,0.0,0.0,0.0,0.0,0.0,0.0,0.0,0.0,0.0,0.0,0.0,0.0,0.0,0.0,0.0,0.0,0.0,0.0,4.5835,4.5894,4.6021,4.6173,4.63,4.63,4.63,4.63,4.63,4.63,4.63,4.6308,4.6293,4.6294,4.6304,4.6307,4.6307,4.6308,4.6308,4.6308,4.6308,4.6265,4.6206,4.6204,4.6122,4.6007,4.6002,4.5923,4.5807,0.0,0.0,0.0,0.0,0.0,0.0,0.0,0.0,0.0,0.0,0.0,0.0,0.0,3.1083,3.0654,3.0468,3.0044,2.9935,3.0225,3.0187,3.0372,3.0892,3.1095,3.1357,3.1651,3.1873,3.2584,3.3763,3.3974,3.4711,3.5887,3.6033,3.622,3.6478,3.5847,3.5442,3.5321,3.5931,3.6295,3.6545,3.7018,3.7598,3.8243,3.8863,0.0,0.0,0.0,0.0,0.0,0.0,0.0,0.0,0.0,0.0,0.0,0.0,4.2759,4.3915,4.4455,4.4758,4.5052,4.5573,4.5703,4.5783,4.6123,4.6198,0.0,0.0,0.0,0.0,0.0,0.0,0.0,0.0,0.0,0.0,0.0,0.0,0.0,0.0,0.0,0.0,0.0,0.0,0.0,0.0,0.0,0.0,4.5899,4.6105,4.6245,4.63,4.63,4.63,4.63,4.63,4.6303,4.6308,4.6291,4.6297,4.6304,4.6306,4.6307,4.6308,4.6308,4.6308,4.6308,4.6244,4.6213,4.6199,4.6105,4.6046,4.5991,4.5892,4.5828,4.5807,0.0,0.0,0.0,0.0,0.0,0.0,0.0,0.0,0.0,3.2721,0.0,0.0,0.0,0.0,3.0874,3.09,3.07,3.0761,3.121,3.1248,3.137,3.1687,3.2057,3.24,3.2734,3.2796,3.3467,3.4756,3.4886,3.5465,3.6482,3.6768,3.704,3.7284,3.6783,3.6375,3.6062,3.679,3.7382,3.7877,3.8686,3.926,3.9734,0.0,0.0,0.0,0.0,0.0,0.0,0.0,0.0,0.0,0.0,0.0,0.0,0.0,0.0,4.4479,4.4707,4.4941,4.521,4.5607,4.5711,4.582,4.6127,0.0,0.0,0.0,0.0,0.0,0.0,0.0,0.0,0.0,0.0,0.0,0.0,0.0,0.0,0.0,0.0,0.0,0.0,0.0,0.0,0.0,0.0,0.0,4.5899,4.6147,4.63,4.63,4.63,4.6302,4.6305,4.6305,4.6309,4.6296,4.6299,4.6302,4.6307,4.6307,4.6308,4.6308,4.6287,4.6266,4.6265,4.6212,4.6167,4.6125,4.6036,4.5975,4.591,4.5822,4.5807,4.5807,0.0,0.0,0.0,0.0,0.0,0.0,0.0,0.0,3.29,3.2884,0.0,0.0,0.0,0.0,0.0,3.138,3.138,3.177,3.2685,3.2741,3.2927,3.333,3.3601,3.3707,3.3656,3.3105,3.3703,3.556,3.4837,3.5429,3.7207,3.7032,3.7356,3.8111,3.8128,3.7857,3.7377,3.7238,3.8048,3.9401,0.0,3.9861,4.0754,0.0,0.0,0.0,4.1578,4.1756,0.0,4.2047,0.0,0.0,0.0,0.0,0.0,0.0,0.0,0.0,0.0,0.0,0.0,4.5615,0.0,0.0,4.6138,0.0,0.0,0.0,0.0,0.0,0.0,0.0,0.0,0.0,0.0,0.0,0.0,0.0,0.0,0.0,0.0,0.0,0.0,0.0,0.0,0.0,0.0,4.5899,4.5899,4.6147,4.63,4.63,4.63,4.6305,4.6293,4.6293,4.6296,4.6301,4.6306,4.6307,4.6307,4.6308,4.6308,4.6308,4.6237,4.6202,4.62,4.6181,4.6118,4.6002,4.5997,4.5904,4.5807,4.5807,4.5807,4.5807,0.0,0.0,0.0,0.0,0.0,0.0,3.2737,3.2688,3.2639,0.0,0.0,0.0,3.2803,3.3035,3.3214,3.3368,3.3405,3.3471,3.3618,3.3955,3.415,3.4166,3.4469,3.4862,3.5329,3.5362,3.5916,3.7017,3.6524,3.6686,3.7485,3.7672,3.79,3.8128,3.8652,3.9129,3.9525,3.9355,3.9387,3.9651,4.0774,4.1463,0.0,0.0,0.0,0.0,0.0,4.3178,4.3014,0.0,4.314,4.3104,0.0,0.0,0.0,0.0,0.0,0.0,4.5049,0.0,0.0,0.0,0.0,0.0,0.0,0.0,0.0,0.0,0.0,0.0,0.0,0.0,0.0,0.0,0.0,0.0,0.0,0.0,0.0,0.0,0.0,0.0,0.0,0.0,0.0,0.0,4.5796,4.5899,4.5899,4.6147,4.63,4.63,4.63,4.6305,4.6293,4.6293,4.6299,4.6306,4.6306,4.6307,4.6308,4.6308,4.6308,4.6308,4.6237,4.6167,4.6125,4.6072,4.6032,4.5991,4.5886,4.5822,4.5807,4.5807,4.5807,4.5807,0.0,0.0,0.0,0.0,0.0,3.3099,3.277,3.302,3.315,0.0,0.0,0.0,3.3469,3.4038,3.4497,3.4731,3.4847,3.5007,3.5244,3.5472,3.5567,3.5492,3.5826,3.6166,3.6497,3.6488,3.6863,3.7595,3.7035,3.727,3.8313,3.8336,3.8789,3.9566,3.9848,4.0445,4.1194,4.1071,0.0,0.0,4.1989,0.0,0.0,4.3177,4.3373,0.0,0.0,0.0,4.3442,4.3779,4.3825,0.0,0.0,0.0,0.0,0.0,0.0,0.0,0.0,0.0,0.0,0.0,0.0,0.0,4.6138,4.621,0.0,0.0,0.0,0.0,0.0,0.0,0.0,0.0,0.0,0.0,0.0,0.0,0.0,0.0,0.0,0.0,0.0,0.0,0.0,4.5594,4.5796,4.594,4.6057,4.6214,4.63,4.63,4.6303,4.6309,4.6296,4.63,4.6304,4.6308,4.6308,4.6308,4.6308,4.6308,4.6288,4.6245,4.6195,4.6122,4.6044,4.5956,4.5923,4.5917,4.5841,4.5807,4.5807,4.5807,4.5807,4.5807,0.0,0.0,0.0,3.3008,3.3188,3.3286,3.3041,3.3715,3.42,0.0,3.4284,3.4459,3.4281,3.4921,3.5474,3.5752,3.5996,3.6373,3.7042,3.7075,3.7036,3.7036,3.7357,3.745,3.732,3.6987,3.7146,3.7811,3.7077,3.7648,3.9405,3.9121,3.9911,4.154,4.1325,0.0,4.2386,0.0,0.0,4.2524,4.2923,4.2904,0.0,0.0,4.3051,4.2736,4.3158,4.3334,4.3454,4.4109,4.4306,0.0,0.0,0.0,0.0,0.0,4.4886,0.0,0.0,0.0,0.0,0.0,0.0,0.0,4.6167,4.6252,4.6269,0.0,0.0,0.0,0.0,0.0,0.0,0.0,0.0,0.0,0.0,0.0,0.0,0.0,0.0,0.0,0.0,4.5594,4.5594,4.5594,4.5796,4.6005,4.6251,4.6298,4.63,4.63,4.6308,4.6296,4.6301,4.6305,4.6308,4.6308,4.6308,4.6308,4.6308,4.6308,4.6265,4.62,4.6131,4.6052,4.5991,4.5867,4.5807,4.5807,4.5807,4.5807,4.5807,4.5807,4.5807,4.5807,0.0,0.0,3.3502,3.319,3.3897,3.4298,3.3713,3.4585,3.5169,3.48,3.5474,3.6078,3.6374,3.6791,3.7131,3.7416,3.7434,3.7471,3.7559,3.7792,3.7951,3.7951,3.8152,3.8218,3.8087,3.8186,3.8542,3.9214,3.8898,3.9245,4.0203,4.0559,4.0914,4.1312,4.1825,4.238,4.2941,0.0,0.0,4.3562,4.323,0.0,4.3105,4.3577,4.3844,4.3971,4.4048,4.4155,4.4288,4.4532,4.4613,4.4627,0.0,0.0,0.0,0.0,0.0,0.0,0.0,0.0,0.0,0.0,0.0,0.0,4.6177,4.6202,4.623,0.0,0.0,0.0,0.0,0.0,0.0,0.0,0.0,0.0,0.0,0.0,0.0,0.0,0.0,0.0,0.0,4.5594,4.5594,4.5594,4.5796,4.5978,4.6135,4.6243,4.63,4.63,4.6308,4.6296,4.6301,4.6305,4.6308,4.6308,4.6308,4.6308,4.6308,4.6308,4.6265,4.62,4.6131,4.6052,4.5991,4.5867,4.5807,4.5807,4.5807,4.5807,4.5807,4.5807,4.5807,4.5807,3.4361,3.4353,3.4412,3.4563,3.5144,3.5433,3.4972,3.575,3.6272,3.5947,3.6697,3.7251,3.7251,3.7765,3.8229,3.8575,3.8716,3.8915,3.9227,3.9385,3.9487,3.9601,3.9534,3.9536,3.9602,3.9534,3.9598,3.9841,3.9643,4.002,4.0905,4.121,4.1664,4.2285,4.2814,4.3231,4.3493,0.0,4.3662,4.391,4.3629,0.0,4.3642,4.4057,4.4229,4.4344,4.453,4.4707,4.4857,4.4929,4.4948,0.0,0.0,4.5178,4.5211,0.0,4.546,4.5735,0.0,0.0,0.0,4.6065,0.0,0.0,0.0,4.6198,4.6228,4.6283,0.0,0.0,0.0,0.0,0.0,0.0,0.0,0.0,0.0,0.0,0.0,0.0,0.0,0.0,0.0,4.5594,4.5456,4.5082,4.4807,4.4899,4.5416,4.5575,4.5853,4.6287,4.6294,4.6301,4.6305,4.6307,4.6308,4.6308,4.6308,4.6308,4.6308,4.6308,4.6242,4.6147,4.6115,4.6026,4.5905,4.5834,4.5807,4.5807,4.5807,4.5807,4.5807,4.5807,4.5807,4.5807,3.5229,3.5257,3.5436,3.5922,3.6358,3.6526,3.6255,3.6958,3.7439,3.7209,3.7787,3.8118,3.7843,3.838,3.8998,3.9522,3.9813,4.0228,4.087,4.0823,4.0822,4.0934,4.0719,4.0685,4.0871,4.0668,4.0546,4.0526,4.0395,4.0847,4.1829,4.1905,4.2486,4.3443,4.3734,4.3883,4.3913,0.0,0.0,4.4051,0.0,4.3992,4.4033,4.4374,4.4448,4.443,4.4846,4.5101,4.5232,4.522,0.0,4.5224,4.5341,4.5304,0.0,0.0,0.0,0.0,0.0,0.0,0.0,0.0,0.0,4.6196,0.0,0.0,0.0,4.6287,4.6294,0.0,0.0,0.0,0.0,0.0,0.0,0.0,0.0,0.0,0.0,0.0,0.0,0.0,0.0,4.5114,4.4864,4.4288,4.3701,4.3723,4.4483,4.4831,4.5329,4.6039,4.6202,4.6305,4.6307,4.6308,4.6308,4.6308,4.6308,4.6308,4.6308,4.6289,4.621,4.6098,4.6084,4.5959,4.5807,4.5807,4.5807,4.5807,4.5807,4.5807,4.5807,4.5807,4.5807,4.5807,3.5984,3.5904,3.5922,3.5984,3.6817,3.7338,3.7036,3.7958,3.8659,3.8496,3.8572,3.8701,3.8898,3.8984,0.0,4.0448,0.0,0.0,4.1289,0.0,4.0969,4.0739,4.0856,4.0906,4.0808,4.102,4.1417,4.2056,4.2154,4.2592,4.3365,4.3535,4.3707,4.3849,4.4005,4.4033,4.4005,0.0,4.4255,0.0,4.4255,4.4147,0.0,4.4374,4.4559,4.472,4.5191,4.5362,4.5361,0.0,4.5203,4.5203,0.0,4.5332,4.5507,0.0,0.0,0.0,0.0,0.0,0.0,0.0,4.6199,0.0,0.0,0.0,4.6229,4.6294,0.0,4.63,4.63,0.0,0.0,0.0,0.0,0.0,0.0,0.0,0.0,0.0,0.0,0.0,0.0,0.0,4.3344,4.3272,4.3343,4.3452,4.3544,4.4487,4.5042,4.5141,4.5893,4.6306,4.6307,4.6308,4.6308,4.6308,4.6308,4.6308,4.6308,4.6239,4.6165,4.6095,4.6041,4.5927,4.5807,4.5807,4.5807,4.5807,4.5807,4.5807,4.5807,4.5807,4.5807,4.5807,3.7271,3.7095,3.7229,3.7665,3.811,3.8346,3.8168,3.8942,3.9507,3.9464,3.9824,4.015,0.0,0.0,0.0,0.0,0.0,4.2388,0.0,0.0,4.2962,4.2958,4.2811,0.0,4.2932,4.2829,4.2905,4.3178,4.3243,4.3326,4.3493,4.3728,4.3825,4.3841,4.4113,0.0,4.431,0.0,4.4416,0.0,0.0,0.0,0.0,4.4758,4.5091,4.5352,4.5473,4.5571,4.5621,0.0,4.5509,0.0,0.0,0.0,0.0,0.0,0.0,0.0,0.0,0.0,0.0,0.0,0.0,0.0,4.6196,0.0,4.6229,0.0,0.0,0.0,0.0,0.0,0.0,0.0,0.0,0.0,0.0,0.0,0.0,0.0,0.0,0.0,0.0,0.0,0.0,0.0,0.0,4.2116,4.2621,4.3188,4.3955,4.4974,4.5349,4.5799,4.6308,4.6308,4.6308,4.6308,4.6308,4.6308,4.6308,4.6237,4.616,4.6095,4.6027,4.5916,4.5807,4.5807,4.5807,4.5807,4.5807,4.5807,4.5807,4.5807,4.5793,4.5791,3.8393,3.8214,3.8359,3.8915,3.8979,3.9009,3.9176,0.0,0.0,0.0,0.0,0.0,4.1449,4.1628,0.0,0.0,4.3282,4.3705,0.0,0.0,4.4438,0.0,0.0,0.0,0.0,4.4061,4.3881,4.3833,4.3881,4.3802,4.3607,4.3868,4.398,4.3996,4.4277,4.4426,4.4501,0.0,4.4551,4.4551,4.4551,4.4627,4.4789,4.5082,4.5445,4.5793,4.5685,4.5715,4.578,4.5771,4.5715,0.0,4.5815,0.0,0.0,0.0,0.0,0.0,4.6084,0.0,0.0,0.0,0.0,0.0,0.0,0.0,0.0,0.0,0.0,0.0,0.0,0.0,4.6222,0.0,0.0,0.0,0.0,0.0,0.0,0.0,0.0,0.0,0.0,0.0,0.0,0.0,0.0,0.0,4.177,4.2173,4.3082,4.4608,4.4881,4.5429,4.6289,4.6308,4.6308,4.6308,4.6308,4.6289,4.6267,4.6204,4.6137,4.6064,4.5982,4.588,4.5807,4.5807,4.5807,4.5807,4.5807,4.5807,4.5807,4.5793,4.5791,4.5807,3.9091,3.9013,3.8974,3.8993,0.0,0.0,0.0,0.0,0.0,0.0,0.0,0.0,0.0,0.0,0.0,0.0,0.0,4.4195,4.4762,0.0,4.4572,0.0,0.0,4.4016,0.0,0.0,4.3896,4.3896,4.4084,4.4177,4.4177,4.4378,4.4487,4.4468,4.4632,4.4619,4.4515,4.4632,4.4699,4.4699,4.4699,4.4972,4.5352,0.0,4.5445,4.5807,4.58,0.0,0.0,4.5653,4.5605,0.0,0.0,0.0,0.0,0.0,0.0,0.0,0.0,0.0,0.0,4.6199,0.0,0.0,0.0,0.0,4.6229,0.0,0.0,0.0,0.0,4.63,4.6027,0.0,0.0,0.0,0.0,0.0,0.0,0.0,0.0,0.0,0.0,0.0,0.0,0.0,0.0,0.0,4.1035,4.1901,4.281,4.3709,4.455,4.543,4.6289,4.6308,4.6308,4.6308,4.6308,4.6266,4.6204,4.6134,4.608,4.6002,4.5854,4.5807,4.5807,4.5807,4.5807,4.5807,4.5807,4.5807,4.58,4.5803,4.5807,4.5781,3.9998,4.0477,4.0677,3.9867,0.0,0.0,0.0,4.1659,0.0,0.0,0.0,0.0,0.0,4.3888,4.4135,0.0,0.0,4.494,4.5113,4.5109,0.0,0.0,0.0,4.4782,0.0,0.0,0.0,0.0,4.4655,4.4621,4.4546,4.5146,4.5423,4.5456,4.6075,4.6078,0.0,0.0,0.0,0.0,0.0,4.6874,4.6925,0.0,0.0,4.5814,4.5861,4.5848,0.0,4.5737,4.5794,4.5873,4.5898,4.5972,4.6069,4.615,4.6189,0.0,0.0,0.0,4.6199,4.6199,0.0,0.0,0.0,0.0,0.0,0.0,0.0,0.0,0.0,0.0,0.0,0.0,0.0,0.0,0.0,0.0,0.0,0.0,0.0,0.0,0.0,0.0,0.0,0.0,0.0,0.0,0.0,4.1399,4.2246,4.3652,4.3984,4.4844,4.6289,4.6308,4.6308,4.6308,4.6308,4.6266,4.6202,4.6131,4.6056,4.5991,4.5867,4.5807,4.5807,4.5807,4.5807,4.5807,4.5807,4.5812,4.5803,4.5795,4.5773,4.5715,4.1145,4.1605,0.0,0.0,0.0,0.0,0.0,0.0,0.0,0.0,4.4226,0.0,4.4707,0.0,4.4969,0.0,4.5173,4.5307,4.5307,4.5307,0.0,4.5307,4.5243,0.0,0.0,0.0,0.0,0.0,0.0,4.4659,4.4848,4.5368,4.5839,4.629,4.6836,4.6936,4.6657,4.6657,4.667,0.0,0.0,4.7882,0.0,0.0,4.6584,4.6735,0.0,4.6557,4.6271,4.6299,4.6151,4.5975,4.6017,4.6093,4.6162,4.6192,4.6199,4.6199,4.6199,4.6199,0.0,4.6203,4.6206,0.0,4.6224,0.0,0.0,0.0,0.0,0.0,0.0,0.0,0.0,0.0,0.0,0.0,0.0,4.1653,0.0,0.0,0.0,0.0,0.0,0.0,0.0,4.0792,4.0952,0.0,0.0,0.0,4.1973,4.3652,4.3691,4.4531,4.6289,4.6308,4.6308,4.6308,4.6287,4.6237,4.6158,4.6095,4.6008,4.5916,4.5848,4.5807,4.5807,4.5807,4.58,4.5805,4.5805,4.5783,4.5765,4.5765,4.5708,4.5651,4.2481,0.0,0.0,0.0,4.2726,0.0,0.0,0.0,4.4599,0.0,4.4812,4.4946,4.5275,4.5307,4.5307,4.5307,4.5307,4.5307,4.5307,4.5307,0.0,0.0,4.5235,4.5203,4.5203,0.0,0.0,0.0,0.0,4.4379,4.5164,4.5201,4.5836,4.6959,4.6997,0.0,4.7555,4.7555,4.7604,4.7693,4.7937,4.8087,4.8154,4.835,4.8467,4.8508,4.8438,4.7877,4.7175,4.7185,4.6648,4.5999,4.6066,4.6098,4.6126,4.6189,4.6199,4.6199,4.6199,4.6199,4.619,4.6197,0.0,0.0,0.0,0.0,4.6305,0.0,0.0,0.0,0.0,0.0,0.0,0.0,0.0,0.0,0.0,0.0,0.0,0.0,0.0,0.0,0.0,0.0,4.0945,4.0992,4.1064,4.1132,0.0,0.0,4.1973,4.3652,4.3691,4.4531,4.6289,4.6308,4.6308,4.6308,4.6237,4.616,4.6098,4.6027,4.5935,4.5807,4.5807,4.5807,4.5807,4.58,4.5798,4.5807,4.5807,4.5758,4.57,4.57,4.5671,4.5594,4.3312,4.3878,4.4395,0.0,4.4321,4.4252,0.0,0.0,0.0,0.0,4.5173,4.5194,4.5297,4.5307,4.5307,4.5307,4.5307,0.0,0.0,0.0,0.0,4.5307,4.5286,4.5256,4.5256,4.49,0.0,4.5469,0.0,4.53,4.5999,4.6646,4.7269,4.7819,4.8461,4.8645,4.8466,4.8466,4.8569,4.8769,4.9577,4.9988,0.0,0.0,5.0289,5.0094,4.8894,4.8321,4.8037,4.7411,4.7115,4.6902,4.6283,4.6138,4.6185,4.6196,4.6199,4.6199,4.6199,4.6199,4.619,4.6197,4.6206,4.6223,0.0,0.0,0.0,0.0,0.0,0.0,0.0,0.0,0.0,0.0,0.0,0.0,0.0,0.0,0.0,0.0,0.0,0.0,0.0,4.0909,4.1053,4.1065,4.1147,4.1172,0.0,0.0,0.0,4.3652,4.3691,4.4531,4.6289,4.6308,4.6308,4.6308,4.6237,4.616,4.6098,4.6027,4.5935,4.5807,4.5807,4.5807,4.58,4.5798,4.5795,4.58,4.575,4.5719,4.5698,4.5698,4.5665,4.5594,4.4484,0.0,0.0,4.5419,0.0,0.0,4.5079,0.0,0.0,4.5361,4.5381,0.0,4.5464,4.5419,4.5381,4.5381,4.5339,0.0,4.5307,0.0,0.0,4.5307,4.5307,4.5307,4.5307,4.5309,0.0,4.5884,0.0,0.0,4.6964,4.7432,4.8039,4.8743,4.9205,4.939,4.9372,4.9518,4.965,4.9816,5.0527,0.0,0.0,5.1043,5.105,5.0815,4.9537,4.9071,4.9,4.8532,4.7932,4.7328,4.6859,4.6473,4.6199,4.6199,4.6199,4.6199,4.6199,4.6199,4.6196,4.6197,4.6207,4.6218,4.6286,4.63,4.6297,0.0,0.0,0.0,0.0,0.0,0.0,0.0,0.0,0.0,0.0,0.0,0.0,0.0,0.0,0.0,0.0,4.0991,4.1115,4.1144,4.1171,4.1191,0.0,0.0,0.0,4.3652,4.3691,4.4531,4.6289,4.6308,4.6308,4.6308,4.6204,4.6137,4.6095,4.5963,4.5861,4.5807,4.5807,4.5793,4.5798,4.5795,4.5785,4.5746,4.5687,4.5654,4.5648,4.5648,4.5631,4.5594,4.5603,0.0,0.0,0.0,0.0,0.0,0.0,4.5419,0.0,4.5524,0.0,4.5571,4.5689,4.5603,4.5524,4.5498,0.0,4.5319,4.5307,4.5307,4.5364,4.5449,4.5449,4.5507,4.5621,4.5998,0.0,0.0,0.0,4.7186,4.7959,4.7898,4.8453,4.9514,4.9457,0.0,0.0,5.0466,5.0625,5.0699,5.0977,5.1063,5.1037,5.1145,5.1072,5.0833,5.0081,4.9819,4.9789,4.9619,4.8608,4.7399,4.7357,4.6803,4.6199,4.6199,4.6199,4.6199,4.6199,4.6199,4.6203,4.6195,4.6204,4.6228,4.6274,4.6303,4.6306,4.6293,4.6294,4.6296,0.0,0.0,0.0,0.0,0.0,0.0,0.0,0.0,0.0,0.0,0.0,0.0,0.0,0.0,4.1142,4.1191,4.1191,0.0,0.0,0.0,0.0,4.3652,4.3808,0.0,4.6289,0.0,4.6308,4.6288,4.6158,4.6095,4.608,4.5885,4.5807,4.5807,4.58,4.5798,4.5807,4.5792,4.5746,4.5684,4.5631,4.5594,4.5594,4.5594,4.5594,4.5594,0.0,0.0,0.0,0.0,0.0,4.5533,4.5615,4.5699,4.5728,4.5749,4.5708,4.5675,4.5703,4.5682,4.5615,4.5507,4.5482,0.0,0.0,0.0,0.0,4.6271,4.629,4.6634,4.736,4.7231,4.7427,0.0,0.0,0.0,4.8786,4.877,4.9059,4.9583,4.9554,0.0,5.0434,5.0547,0.0,5.1011,5.1024,5.1081,5.1155,5.1128,5.0664,5.0017,4.9911,4.9882,4.9663,4.8302,4.7676,4.7357,4.6644,4.6316,4.6199,4.6199,4.6199,4.6199,4.6199,4.6199,4.6203,4.6195,4.6201,4.6225,4.628,4.6295,4.63,4.6301,4.6301,4.6301,4.6306,0.0,0.0,0.0,0.0,0.0,0.0,0.0,0.0,0.0,0.0,0.0,0.0,0.0,0.0,0.0,0.0,0.0,0.0,0.0,0.0,0.0,4.4394,0.0,0.0,0.0,4.6267,4.6212,4.6137,4.6064,4.6003,4.5861,4.5807,4.58,4.5791,4.5795,4.58,4.573,4.5673,4.5622,4.5594,4.5594,4.5594,4.5594,4.5594,4.5594,0.0,0.0,0.0,0.0,0.0,0.0,0.0,4.5944,0.0,4.5908,4.5885,4.5877,4.5944,4.5894,4.5828,4.5763,4.607,4.6243,4.6198,4.6602,4.7026,4.7421,4.7377,0.0,4.7941,4.8167,4.8433,4.8764,0.0,0.0,4.9669,4.9641,4.9735,4.9908,4.9987,5.019,0.0,0.0,0.0,5.1105,5.1139,5.1186,5.1243,5.122,5.0666,4.9853,4.9467,4.9047,4.86,4.8249,4.7856,4.7423,4.7014,4.6569,4.6199,4.6199,4.6199,4.6199,4.6199,4.6165,4.616,4.6188,4.6192,4.6216,4.6285,4.63,4.6302,4.6305,4.6305,4.6306,4.6308,4.5215,0.0,0.0,0.0,0.0,0.0,0.0,0.0,0.0,0.0,0.0,0.0,0.0,0.0,0.0,0.0,0.0,0.0,0.0,0.0,0.0,0.0,0.0,0.0,0.0,0.0,4.6202,4.6134,4.6056,4.5997,4.5848,4.5807,4.58,4.5803,4.5773,4.575,4.5682,4.5631,4.5594,4.5594,4.5594,4.5594,4.5594,4.5594,4.5594,0.0,4.5858,0.0,0.0,4.5925,0.0,4.6037,4.6131,4.6157,4.6056,4.6037,4.6084,4.6192,4.6102,4.6105,4.6235,4.6732,4.7106,4.7272,4.791,4.836,4.8516,4.8416,4.8423,4.8568,4.9084,4.9358,0.0,0.0,0.0,0.0,5.0178,5.02,0.0,0.0,0.0,0.0,0.0,5.1056,5.115,5.1252,5.13,5.1281,5.1086,5.0482,4.9644,4.8826,4.7949,4.7326,4.8027,4.7793,4.7209,4.7209,4.6745,4.6199,4.6199,4.6199,4.6196,4.6189,4.6142,4.6111,4.6175,4.6199,4.6222,4.6288,4.6304,4.6305,4.6307,4.6307,4.6249,4.6055,4.5058,0.0,0.0,0.0,0.0,0.0,0.0,0.0,0.0,0.0,0.0,0.0,0.0,0.0,0.0,0.0,0.0,0.0,0.0,0.0,0.0,0.0,4.5605,4.6289,0.0,4.6265,0.0,4.6128,4.6048,4.5939,4.5854,4.58,4.5793,4.5769,4.5743,4.5676,4.562,4.5594,4.5594,4.5594,4.5594,4.5594,4.5594,4.5594,4.5594,0.0,0.0,0.0,0.0,0.0,0.0,0.0,4.6183,4.6203,4.6174,4.618,4.6189,4.6196,4.6192,4.643,4.7023,4.7157,4.7454,4.8138,4.8239,4.8578,4.9181,4.9192,4.9479,5.0069,5.0161,5.0187,0.0,0.0,0.0,0.0,0.0,0.0,0.0,0.0,0.0,0.0,5.0908,5.1111,5.1288,5.1296,5.13,5.1203,5.0424,4.9625,4.8806,4.793,4.7053,4.6336,4.6414,4.6394,4.6316,4.6316,4.6277,4.6199,4.6199,4.6199,4.6189,4.6134,4.6098,4.6123,4.6175,4.6199,4.6212,4.6289,4.6308,4.6308,4.6308,4.6308,4.6055,4.5273,4.5625,4.5566,0.0,0.0,0.0,0.0,0.0,0.0,0.0,0.0,0.0,0.0,0.0,0.0,0.0,0.0,0.0,0.0,0.0,0.0,4.498,0.0,4.6211,4.6308,4.6308,0.0,4.6109,4.6102,4.5993,4.5827,4.5814,4.5805,4.5788,4.575,4.5668,4.5603,4.5594,4.5594,4.5594,4.5594,4.5594,4.5594,4.5594,4.5594,4.5594,0.0,0.0,0.0,0.0,0.0,0.0,0.0,4.6192,4.62,4.619,4.6203,4.6394,4.6917,4.6975,4.7295,4.81,4.8602,4.9017,4.9308,4.9809,5.0181,5.0359,5.0259,5.0296,5.0485,5.0363,5.0278,0.0,0.0,0.0,0.0,0.0,0.0,0.0,0.0,5.0498,5.0706,5.084,5.1043,5.1296,5.1252,5.1256,5.1203,5.0326,4.9508,4.869,4.7813,4.6936,4.6199,4.6199,4.6199,4.6199,4.6199,4.6199,4.6192,4.615,4.6142,4.6134,4.6066,4.6007,4.6027,4.6153,4.6178,4.617,4.6288,4.6308,4.6308,4.6308,4.6308,4.6191,4.584,4.5644,4.5469,0.0,0.0,0.0,0.0,0.0,0.0,0.0,0.0,0.0,0.0,0.0,0.0,0.0,0.0,0.0,0.0,0.0,0.0,4.5762,0.0,4.6308,4.6308,4.6265,4.6199,4.6098,4.6067,4.5956,4.5791,4.5791,4.5773,4.573,4.5714,4.5654,4.5594,4.5594,4.5594,4.5594,4.5594,4.5594,4.5594,4.5594,4.5594,4.5594,4.6261,0.0,4.6267,0.0,4.6228,4.6206,4.6206,4.6192,4.6193,4.6199,4.6414,4.6823,4.7423,4.7501,4.7949,4.906,4.9664,5.0112,5.0365,5.0938,5.1215,5.1081,5.0867,0.0,5.0546,5.034,5.0219,5.0163,5.0219,0.0,0.0,0.0,0.0,0.0,5.0271,5.0448,5.0647,5.0808,5.1024,5.1276,5.1225,5.1083,5.0813,4.9944,4.9103,4.8265,4.7408,4.668,4.6146,4.6158,4.6154,4.6146,4.6158,4.6154,4.6138,4.6084,4.6075,4.6066,4.5991,4.595,4.5968,4.6128,4.6153,4.6155,4.6268,4.6308,4.6308,4.6308,4.6308,4.6308,4.6308,4.5801,4.5508,4.5859,0.0,0.0,0.0,0.0,0.0,0.0,4.332,4.332,4.332,0.0,0.0,0.0,0.0,0.0,0.0,0.0,0.0,0.0,0.0,0.0,0.0,4.6238,4.616,4.6072,4.5998,4.5905,4.5765,4.5777,4.5738,4.5701,4.5684,4.564,4.5594,4.5594,4.5594,4.5594,4.5594,4.5594,4.5594,4.5594,4.5594,4.5594,4.6183,4.6205,4.6191,4.6191,4.6191,4.6206,4.6206,4.62,4.6199,4.6199,4.6956,4.7482,4.7501,4.7501,4.8164,4.9839,4.9995,5.0365,5.1222,5.1239,5.1139,0.0,0.0,5.0548,5.0416,5.0207,5.0108,5.0108,0.0,0.0,4.8928,0.0,4.9309,5.0031,5.0347,5.0489,5.051,5.0863,5.1081,5.1211,5.1211,5.0713,4.9913,4.9054,4.818,4.7304,4.6429,4.6066,4.6012,4.608,4.6066,4.6012,4.6084,4.6066,4.6002,4.6002,4.6002,4.5991,4.5929,4.5958,4.6028,4.6072,4.6147,4.6212,4.6288,4.6308,4.6308,4.6308,4.6308,4.6308,4.6308,4.6289,4.6016,4.5156,0.0,0.0,0.0,0.0,0.0,0.0,4.2422,4.2422,4.2422,0.0,0.0,0.0,0.0,0.0,0.0,0.0,0.0,4.6308,4.6308,0.0,4.6308,4.6238,4.6136,4.599,4.5934,4.5835,4.5708,4.5698,4.5701,4.5701,4.5631,4.5594,4.5594,4.5594,4.5594,4.5594,4.5594,4.5594,4.5594,4.5594,4.5594,4.5594,4.62,4.6192,4.6201,4.6207,4.6191,4.6226,4.6259,4.6739,4.7094,4.7089,4.7847,4.8596,4.9141,4.9196,4.9664,0.0,5.0843,5.0942,0.0,5.1166,5.1075,5.0944,5.0855,5.0672,5.0416,5.0421,5.031,5.0031,0.0,0.0,0.0,4.9651,4.9816,5.0139,5.0259,5.0436,5.0696,5.0761,5.092,5.1089,5.0485,5.012,4.9761,4.8312,4.7563,4.7213,4.6338,4.6017,4.6002,4.6022,4.6018,4.5998,4.6031,4.6048,4.6056,4.6007,4.5993,4.5988,4.5867,4.5916,4.6027,4.6084,4.6147,4.6212,4.6288,4.6308,4.6308,4.6308,4.6308,4.6308,4.6308,4.6308,4.6211,4.5937,4.6113,0.0,0.0,0.0,0.0,0.0,4.5058,4.5058,0.0,4.4512,0.0,0.0,0.0,0.0,0.0,0.0,0.0,0.0,4.6308,0.0,4.6308,4.615,4.6043,4.599,4.5847,4.5734,4.5698,4.5657,4.5631,4.5631,4.5622,4.5594,4.5594,4.5594,4.5594,4.5594,4.5594,4.5594,4.5594,4.5594,4.5594,4.5594,4.6122,4.6145,4.6167,4.6206,4.6203,4.6328,4.6698,4.7183,4.7626,4.7945,4.8751,4.9474,4.9972,5.0287,0.0,5.1217,5.123,5.1181,5.1161,5.1099,5.1024,5.0932,5.0874,5.0738,5.0514,0.0,0.0,5.0082,5.0163,5.0126,4.9946,5.0044,5.0114,5.02,5.034,5.0536,5.0771,5.0763,5.0887,5.0985,5.0132,4.9633,4.924,4.7806,4.7057,4.6707,4.6164,4.5953,4.5927,4.5973,4.5998,4.6002,4.6068,4.6102,4.6131,4.6061,4.6041,4.6024,4.5947,4.5998,4.6084,4.6128,4.6195,4.6243,4.6289,4.6308,4.6308,4.6308,4.6308,4.6308,4.6308,4.6308,4.6308,4.6308,4.6308,4.6308,4.6308,0.0,0.0,0.0,0.0,0.0,0.0,4.5312,0.0,0.0,0.0,0.0,0.0,0.0,0.0,4.6308,4.6308,0.0,4.6224,4.6069,4.5977,4.5911,4.5747,4.5662,4.5657,4.5622,4.5594,4.5594,4.5594,4.5594,4.5594,4.5594,4.5594,4.5594,4.5594,4.5594,4.5594,4.5594,4.5594,4.5594,4.5997,4.6059,0.0,0.0,4.6209,0.0,4.7363,4.7556,4.7906,4.8785,4.9645,5.0189,5.0184,5.079,5.1206,5.1201,0.0,0.0,0.0,5.103,5.099,5.099,5.0814,5.071,5.0701,5.0527,5.0369,5.0236,5.0038,4.9933,4.9933,5.0126,5.0224,5.0248,5.0557,5.0701,5.072,5.085,5.0905,5.0835,5.0028,4.9214,4.8388,4.7462,4.6603,4.5886,4.5886,4.5867,4.5828,4.5964,4.6012,4.6036,4.6158,4.6204,4.6199,4.6128,4.6109,4.6105,4.6102,4.6147,4.6202,4.6202,4.6243,4.6308,4.6308,4.6308,4.6308,4.6308,4.6308,4.6308,4.6308,4.6308,4.6308,4.6308,4.6308,4.6308,4.6308,0.0,0.0,0.0,0.0,0.0,0.0,4.5098,4.543,0.0,0.0,0.0,0.0,0.0,4.6308,4.6308,4.6308,4.6241,4.6108,4.6029,4.5929,4.5783,4.5657,4.5594,4.5594,4.5594,4.5594,4.5594,4.5594,4.5594,4.5594,4.5594,4.5594,4.5594,4.5594,4.5594,4.5594,4.5594,4.5594,4.5594,0.0,0.0,4.6065,4.618,4.6209,4.6509,4.7442,4.8092,4.8801,4.9687,5.0542,5.1049,5.094,5.1105,5.1155,5.1056,5.105,5.1043,5.1024,5.0954,5.0929,5.0929,5.0882,5.0808,5.0701,5.0754,5.0718,5.0576,5.0391,5.0283,5.0283,5.0328,5.0434,5.0596,5.0664,5.0756,5.0858,5.089,5.0546,4.9923,4.9079,4.8222,4.7365,4.648,4.6008,4.5808,4.5808,4.5886,4.5964,4.5988,4.6068,4.6155,4.6197,4.6238,4.6265,4.62,4.6189,4.616,4.6115,4.6147,4.6202,4.6202,4.6243,4.6308,4.6308,4.6308,4.6308,4.6308,4.6308,4.6308,4.6308,4.6308,4.6308,4.6308,4.6308,4.6308,4.6308,4.6308,0.0,0.0,4.5996,4.5996,4.5996,4.5996,4.6074,0.0,0.0,0.0,0.0,4.6307,4.6307,4.6307,4.6307,4.6239,4.6094,4.599,4.5838,4.5651,4.562,4.5594,4.5594,4.5594,4.5594,4.5594,4.5594,4.5594,4.5594,4.5594,4.5594,4.5594,4.5594,4.5594,4.5594,4.5594,4.5594,4.5594,4.6002,4.6022,4.608,4.6189,4.6193,4.6646,4.7953,4.8525,4.9253,5.0535,5.1112,5.1361,5.1291,5.1234,5.1152,5.1056,5.1017,5.0983,5.0966,5.0921,5.0898,5.0898,5.0898,5.0866,5.0799,5.0866,5.0833,5.0701,5.0507,5.0404,5.0404,5.0477,5.0596,5.0701,5.0764,5.0833,5.0879,5.0511,5.0113,4.9591,4.8314,4.7521,4.6999,4.6136,4.5807,4.5807,4.5807,4.5893,4.6007,4.6036,4.6115,4.6206,4.6239,4.6267,4.6289,4.6264,4.6242,4.6239,4.6204,4.6212,4.6242,4.6242,4.6267,4.6308,4.6308,4.6308,4.6308,4.6308,4.6308,4.6308,4.6308,4.6308,4.6308,4.6308,4.6308,4.6308,4.6308,4.6308,0.0,4.6308,4.6308,4.6308,4.6308,4.6308,4.6308,4.6308,0.0,0.0,4.6305,4.6238,4.6237,4.6305,4.6235,4.6145,4.6013,4.5847,4.5706,4.5594,4.5594,4.5594,4.5594,4.5594,4.5594,4.5594,4.5594,4.5594,4.5594,4.5594,4.5594,4.5594,4.5594,4.5594,4.5594,4.5594,4.5594,4.5594,4.598,4.6056,4.6111,4.6192,4.6206,4.6782,4.8523,4.8798,4.9423,5.118,5.1396,5.1387,5.1376,5.1268,5.1152,5.1081,5.1017,5.0954,5.0906,5.0898,5.0898,5.0898,5.0898,5.0898,5.0898,5.0898,5.085,5.0729,5.0567,5.0477,5.0477,5.0654,5.0729,5.0738,5.085,5.0898,5.084,5.0035,4.9629,4.9359,4.7753,4.7018,4.6825,4.6078,4.5807,4.5807,4.5807,4.5892,4.6018,4.6076,4.615,4.6234,4.6288,4.6308,4.6308,4.6308,4.6308,4.6308,4.6308,4.6308,4.6308,4.6308,4.6308,4.6308,4.6308,4.6308,4.6308,4.6308,4.6308,4.6308,4.6308,4.6308,4.6308,4.6308,4.6308,4.6308,4.6308,0.0,4.6308,4.6308,4.6308,4.6308,4.6308,4.6308,4.6308,4.6306,4.6307,4.6285,0.0,4.6152,4.6143,4.6248,4.6125,4.6014,4.5896,4.5696,4.5594,4.5594,4.5594,4.5594,4.5594,4.5594,4.5594,4.5594,4.5594,4.5594,4.5594,4.5594,4.5594,4.5594,4.5594,4.5594,4.5594,4.5594,4.5594,4.5594,4.5925,4.6016,4.6111,4.6192,4.6206,4.6782,4.8523,4.8798,4.9423,5.118,5.1396,5.1366,5.124,5.1218,5.1122,5.094,5.0929,5.0914,5.0898,5.0898,5.0898,5.0898,5.0898,5.0898,5.0898,5.0898,5.089,5.0874,5.083,5.0822,5.0822,5.0839,5.0874,5.0874,5.089,5.0898,5.084,5.0035,4.9262,4.8508,4.7502,4.6651,4.6,4.5845,4.5807,4.5807,4.5807,4.5925,4.6084,4.6095,4.6173,4.6289,4.6308,4.6308,4.6308,4.6308,4.6308,4.6308,4.6308,4.6308,4.6308,4.6308,4.6308,4.6308,4.6308,4.6308,4.6308,4.6308,4.6308,4.6308,4.6308,4.6308,4.6308,4.6308,4.6308,4.6308,4.6308,0.0,4.6308,4.6308,4.6308,4.6308,4.6307,4.6307,4.6306,4.6303,4.6306,4.6258,4.6147,4.6108,4.6057,4.5968,4.5944,4.5885,4.5828,4.5665,4.5594,4.5594,4.5594,4.5594,4.5594,4.5594,4.5594,4.5594,4.5594,4.5594,4.5594,4.5594,4.5594,4.5594,4.5594,4.5594,4.5594,4.5594,4.5594,4.5594,4.59,4.6032,4.6158,4.6196,4.622,4.6681,4.7957,4.8154,4.8603,4.9833,5.0401,5.0663,5.0564,5.0949,5.1127,5.0969,5.0929,5.0898,5.0898,5.0898,5.0898,5.0898,5.0898,5.0898,5.0898,5.0898,5.0898,5.0898,5.0898,5.0898,5.0898,5.0898,5.0898,5.0898,5.0898,5.0666,5.021,4.9359,4.8508,4.7618,4.6748,4.6155,4.5807,4.5807,4.5807,4.5814,4.5873,4.5988,4.6105,4.6142,4.6212,4.6308,4.6308,4.6308,4.6308,4.6308,4.6308,4.6308,4.6308,4.6308,4.6308,4.6308,4.6308,4.6308,4.6308,4.6308,4.6308,4.6308,4.6308,4.6308,4.6308,4.6308,4.6308,4.6308,4.6308,0.0,0.0,4.6308,4.6308,4.6308,4.6308,4.6308,4.6307,4.6307,4.6306,4.6305,4.6235,4.6173,4.6108,4.6005,4.5914,4.5847,4.5859,4.5796,4.57,4.5637,4.5594,4.5594,4.5594,4.5594,4.5594,4.5594,4.5594,4.5594,4.5594,4.5594,4.5594,4.5594,4.5594,4.5594,4.5594,4.5594,4.5594,4.5594,4.5594,4.5594,4.584,4.6037,4.6199,4.6199,4.625,4.6593,4.7469,4.7606,4.7883,4.869,4.9387,4.9765,4.9684,5.04,5.084,5.0699,5.082,5.0898,5.0898,5.0898,5.0898,5.0898,5.0898,5.0898,5.0898,5.0898,5.0898,5.0898,5.0898,5.0898,5.0898,5.0898,5.0898,5.0898,5.0705,5.0279,4.9629,4.8546,4.7715,4.7018,4.6155,4.5807,4.5807,4.5807,4.5827,4.5867,4.5969,4.6044,4.6131,4.6173,4.6241,4.6308,4.6308,4.6308,4.6308,4.6308,4.6308,4.6308,4.6308,4.6308,4.6308,4.6308,4.6308,4.6308,4.6308,4.6308,4.6308,4.6308,4.6308,4.6308,4.6308,4.6308,4.6308,4.6308,0.0,0.0,0.0,4.6308,4.6308,4.6307,4.6286,4.6285,4.6306,4.6259,4.6235,4.6257,4.6121,4.605,4.6029,4.5883,4.58,4.5749,4.5749,4.5688,4.5594,4.5594,4.5594,4.5594,4.5594,4.5594,4.5594,4.5594,4.5594,4.5594,4.5594,4.5594,4.5594,4.5594,4.5594,4.5594,4.5594,4.5594,4.5594,4.5594,4.5594,4.5594,4.5723,4.598,4.6199,4.6199,4.625,4.6593,4.7469,4.7606,4.7889,4.8686,4.8864,4.8844,4.8713,4.9484,4.993,4.9814,5.048,5.0898,5.0898,5.0898,5.0898,5.0898,5.0898,5.0898,5.0898,5.0898,5.0898,5.0898,5.0898,5.0898,5.0898,5.0898,5.0898,5.0859,5.0132,4.9765,4.9591,4.7908,4.7154,4.7018,4.6155,4.5807,4.5807,4.5807,4.5886,4.5991,4.5997,4.608,4.6199,4.6202,4.6241,4.6308,4.6308,4.6308,4.6308,4.6308,4.6308,4.6308,4.6308,4.6308,4.6308,4.6308,4.6308,4.6308,4.6308,4.6308,4.6308,4.6308,4.6308,4.6308,4.6308,4.6308,4.6308,4.6308,0.0,0.0,4.6308,4.6308,4.6308,4.6308,4.6241,4.6231,4.6282,4.6139,4.6057,4.6112,4.5998,4.588,4.5828,4.5809,4.574,4.562,4.5612,4.5603,4.5594,4.5594,4.5594,4.5594,4.5594,4.5594,4.5594,4.5594,4.5594,4.5594,4.5594,4.5594,4.5594,4.5594,4.5594,4.5594,4.5594,4.5594,4.5594,4.5594,4.5594,4.5586,4.5676,4.5894,4.6103,4.6183,4.6262,4.6417,4.6749,4.6788,4.6895,4.7204,4.7676,4.7933,4.7817,4.8579,4.9035,4.8909,4.9668,5.0171,5.0171,5.0608,5.0898,5.0898,5.0898,5.0898,5.0898,5.0898,5.0898,5.0898,5.0898,5.0898,5.0898,5.0898,5.0627,5.0152,4.9842,4.9107,4.8043,4.7386,4.6786,4.6271,4.5923,4.5861,4.5916,4.5916,4.5988,4.606,4.6109,4.6155,4.6206,4.6243,4.6288,4.6308,4.6308,4.6308,4.6308,4.6308,4.6308,4.6308,4.6308,4.6308,4.6308,4.6308,4.6308,4.6308,4.6308,4.6308,4.6308,4.6308,4.6308,4.6308,4.6308,4.6308,4.6308,4.6308,0.0,4.6308,4.6308,4.6266,4.6238,4.6234,4.6133,4.6092,4.6105,4.6006,4.5953,4.5963,4.5885,4.5828,4.5802,4.5723,4.564,4.5594,4.5594,4.5594,4.5594,4.5594,4.5594,4.5594,4.5594,4.5594,4.5594,4.5594,4.5594,4.5594,4.5594,4.5594,4.5594,4.5594,4.5594,4.5594,4.5594,4.5594,4.5594,4.5594,4.5577,4.5522,4.5667,4.5863,4.6039,4.6176,4.6267,4.63,4.63,4.63,4.6293,4.6269,4.6733,4.7012,4.6909,4.7644,4.8102,4.8,4.8798,4.9301,4.9301,5.0055,5.0647,5.0898,5.0898,5.0898,5.0898,5.0898,5.0898,5.0898,5.0898,5.0898,5.0898,5.0647,5.0221,4.9687,4.9126,4.8217,4.7076,4.6806,4.6369,4.5854,4.5854,4.5933,4.6032,4.6032,4.6068,4.6137,4.6173,4.621,4.6239,4.6288,4.6308,4.6308,4.6308,4.6308,4.6308,4.6308,4.6308,4.6308,4.6308,4.6288,4.6268,4.6289,4.6308,4.6308,4.6308,4.6288,4.6267,4.6246,4.6247,4.6265,4.6218,4.6243,4.6265,4.624,4.6239,4.6239,4.6239,4.6179,4.6133,4.6145,4.6025,4.594,4.5963,4.5889,4.5856,4.5866,4.579,4.5733,4.5733,4.566,4.5594,4.5594,4.5594,4.5594,4.5594,4.5594,4.5594,4.5594,4.5594,4.5594,4.5594,4.5594,4.5594,4.5594,4.5594,4.5594,4.5594,4.5594,4.5594,4.5594,4.5594,4.5586,4.5568,4.5568,4.5541,4.5476,4.5667,4.5863,4.6039,4.6176,4.6267,4.63,4.63,4.63,4.6278,4.6207,4.6135,4.6069,4.6003,4.6704,4.7159,4.7103,4.7889,4.8392,4.8392,4.9204,5.0055,5.084,5.0898,5.0898,5.0898,5.0898,5.0898,5.0898,5.0898,5.0898,5.0859,5.0074,4.9687,4.961,4.7869,4.7096,4.7018,4.6174,4.5886,4.6002,4.6002,4.6046,4.6102,4.6102,4.6142,4.6204,4.6204,4.6241,4.6308,4.6308,4.6308,4.6308,4.6308,4.6308,4.6308,4.6308,4.6308,4.6308,4.6308,4.6243,4.621,4.6288,4.6308,4.6308,4.6308,4.6242,4.6179,4.611,4.6156,4.6167,4.601,4.6103,4.6189,4.6112,4.6098,4.6098,4.6098,4.6045,4.599,4.599,4.588,4.5825,4.5891,4.5775,4.573,4.5793,4.5676,4.5594,4.5594,4.5594,4.5594,4.5594,4.5594,4.5594,4.5594,4.5594,4.5594,4.5594,4.5594,4.5594,4.5594,4.5594,4.5594,4.5594,4.5594,4.5594,4.5594,4.5594,4.5594,4.5594,4.5594,4.5559,4.5504,4.5504,4.5467,4.54,4.5724,4.5858,4.5993,4.6236,4.6296,4.63,4.63,4.6295,4.6287,4.6206,4.6138,4.6073,4.6017,4.618,4.6268,4.6201,4.698,4.7753,4.8353,4.8643,4.8894,4.9146,5.026,5.0898,5.0898,5.0898,5.0898,5.0898,5.0318,5.0055,5.0035,4.9184,4.8469,4.785,4.7328,4.6748,4.6174,4.5904,4.5886,4.6002,4.6002,4.606,4.6165,4.6165,4.6209,4.6267,4.6267,4.6288,4.6308,4.6308,4.6308,4.6308,4.6308,4.6308,4.6308,4.6308,4.6223,4.6168,4.6163,4.6086,4.604,4.6188,4.6156,4.6084,4.6084,4.604,4.5974,4.5971,4.6004,4.6047,4.6018,4.6066,4.6102,4.6045,4.6022,4.6014,4.5963,4.5896,4.5859,4.5859,4.5776,4.5734,4.5764,4.5676,4.5629,4.5651,4.562,4.5594,4.5594,4.5594,4.5594,4.5594,4.5594,4.5594,4.5594,4.5594,4.5594,4.5594,4.5594,4.5594,4.5594,4.5594,4.5594,4.5594,4.5594,4.5594,4.5594,4.5594,4.5577,4.5522,4.5522,4.5495,4.5429,4.5429,4.5419,4.5409,4.5751,4.5858,4.5979,4.6245,4.63,4.63,4.63,4.6294,4.6287,4.6206,4.6134,4.6063,4.6017,4.5923,4.5835,4.5807,4.629,4.696,4.7831,4.7889,4.8043,4.8372,4.9378,4.9919,4.9919,4.9919,4.9919,4.9919,4.9417,4.9184,4.9165,4.8295,4.7599,4.7076,4.6728,4.629,4.5807,4.5867,4.5944,4.6046,4.606,4.6142,4.624,4.624,4.6266,4.6308,4.6308,4.6308,4.6308,4.6308,4.6308,4.6308,4.6308,4.6308,4.6308,4.6307,4.6215,4.6099,4.6092,4.5979,4.5881,4.6006,4.6002,4.5959,4.5959,4.5929,4.5891,4.5862,4.5901,4.5945,4.5889,4.5949,4.5969,4.5889,4.5878,4.5872,4.5836,4.579,4.5768,4.5768,4.5708,4.5657,4.5657,4.5631,4.5594,4.5594,4.5594,4.5594,4.5594,4.5594,4.5594,4.5594,4.5594,4.5594,4.5594,4.5594,4.5594,4.5594,4.5594,4.5594,4.5594,4.5594,4.5594,4.5594,4.5594,4.5594,4.5594,4.5568,4.555,4.5495,4.5476,4.5438,4.539,4.539,4.538,4.5348,4.5737,4.5852,4.5979,4.624,4.6298,4.63,4.63,4.6303,4.6279,4.6228,4.6138,4.607,4.6008,4.5873,4.5807,4.5807,4.5807,4.6136,4.6922,4.698,4.7347,4.8121,4.8179,4.8179,4.8179,4.8314,4.8392,4.8392,4.8314,4.8275,4.8256,4.7386,4.698,4.6941,4.6155,4.5807,4.5814,4.5933,4.6041,4.6105,4.6167,4.624,4.6308,4.6308,4.6308,4.6308,4.6308,4.6308,4.6308,4.6308,4.6308,4.6308,4.6308,4.6308,4.6306,4.6286,4.6184,4.6078,4.6072,4.5935,4.5783,4.5783,4.5834,4.5867,4.5872,4.5869,4.5859,4.579,4.5834,4.5848,4.5719,4.5742,4.577,4.5704,4.57,4.57,4.5692,4.5679,4.5693,4.5693,4.564,4.5594,4.5594,4.5594,4.5594,4.5594,4.5594,4.5594,4.5594,4.5594,4.5594,4.5594,4.5594,4.5594,4.5594,4.5594,4.5594,4.5594,4.5594,4.5594,4.5594,4.5594,4.5594,4.5594,4.5586,4.5586,4.5586,4.5513,4.5495,4.5485,4.5419,4.5409,4.5398,4.5408,4.5348,4.5307,4.5619,4.579,4.5954,4.6109,4.6238,4.63,4.63,4.6296,4.6286,4.6289,4.6132,4.6022,4.5994,4.5877,4.5807,4.5807,4.5807,4.5884,4.6078,4.6078,4.6174,4.6368,4.6368,4.6368,4.6368,4.7695,4.8392,4.8392,4.7715,4.7386,4.7366,4.6484,4.6078,4.6078,4.5884,4.5807,4.5814,4.5933,4.6041,4.6105,4.6167,4.624,4.6308,4.6308,4.6308,4.6308,4.6308,4.6308,4.6308,4.6308,4.6306,4.6305,4.6305,4.6304,4.628,4.6169,4.605,4.592,4.5875,4.5754,4.564,4.564,4.5653,4.5685,4.5734,4.5696,4.5657,4.564,4.5692,4.5727,4.5706,4.5715,4.5719,4.5706,4.5698,4.5682,4.5629,4.5612,4.5631,4.5631,4.5622,4.5594,4.5594,4.5594,4.5594,4.5594,4.5594,4.5594,4.5594,4.5594,4.5594,4.5594,4.5594,4.5594,4.5594,4.5594,4.5594,4.5594,4.5594,4.5594,4.5594,4.5594,4.5594,4.5594,4.5531,4.5513,4.5513,4.5448,4.5419,4.5419,4.541,4.537,4.5328,4.5388,4.5348,4.5307,4.5545,4.5769,4.5892,4.6061,4.617,4.6238,4.6298,4.6291,4.6301,4.6306,4.6177,4.6078,4.6018,4.5938,4.588,4.5814,4.5807,4.5807,4.5807,4.5807,4.5807,4.5807,4.5807,4.5807,4.5807,4.6689,4.7154,4.7154,4.6689,4.6484,4.6464,4.602,4.5807,4.5807,4.5807,4.5841,4.5892,4.5993,4.6084,4.615,4.6213,4.6267,4.6308,4.6308,4.6308,4.6308,4.6307,4.6307,4.6307,4.6305,4.6303,4.6301,4.6301,4.6252,4.6191,4.6117,4.5977,4.584,4.5808,4.5708,4.5594,4.5594,4.5594,4.5622,4.564,4.5648,4.5648,4.5648,4.5684,4.5701,4.5701,4.5662,4.5654,4.5648,4.5648,4.564,4.5594,4.5594,4.5594,4.5594,4.5594,4.5594,4.5594,4.5594,4.5594,4.5594,4.5594,4.5594,4.5594,4.5594,4.5594,4.5594,4.5594,4.5594,4.5594,4.5594,4.5594,4.5594,4.5594,4.5594,4.5594,4.5594,4.5577,4.5559,4.5513,4.5504,4.5495,4.5438,4.5409,4.54,4.5361,4.5329,4.5307,4.5338,4.5328,4.5307,4.5287,4.5641,4.5867,4.6033,4.6072,4.6144,4.6275,4.63,4.6308,4.6303,4.6249,4.615,4.6057,4.6007,4.5953,4.5821,4.5807,4.5807,4.5807,4.5807,4.5807,4.5807,4.5807,4.5807,4.5807,4.5807,4.5807,4.5807,4.5807,4.5807,4.5807,4.5807,4.5807,4.5807,4.5807,4.5861,4.6002,4.606,4.6134,4.62,4.6266,4.6308,4.6308,4.6307,4.6306,4.6306,4.6303,4.6301,4.6301,4.6301,4.63,4.6299,4.6274,4.6189,4.6099,4.6052,4.5938,4.58,4.5771,4.5684,4.5594,4.5594,4.5594,4.5594,4.5594,4.564,4.5693,4.5693,4.5693,4.5693,4.5693,4.564,4.5594,4.5594,4.5594,4.5594,4.5594,4.5594,4.5594,4.5594,4.5594,4.5594,4.5594,4.5594,4.5594,4.5594,4.5594,4.5594,4.5594,4.5594,4.5594,4.5594,4.5594,4.5594,4.5594,4.5594,4.5594,4.5594,4.5586,4.5586,4.5594,4.5594,4.5568,4.5513,4.5495,4.5485,4.5476,4.5419,4.538,4.5371,4.5329,4.5307,4.5307,4.5307,4.5307,4.5307,4.4446,4.5198,4.5835,4.5905,4.6013,4.6144,4.6275,4.63,4.6302,4.6305,4.623,4.6182,4.6177,4.6072,4.5953,4.5821,4.5807,4.5807,4.5807,4.5807,4.5807,4.5807,4.5807,4.5807,4.5807,4.5807,4.5807,4.5807,4.5807,4.5807,4.5807,4.5807,4.5807,4.5807,4.5807,4.5867,4.5989,4.6078,4.6148,4.6216,4.6276,4.6303,4.6303,4.6303,4.6302,4.6302,4.6301,4.6299,4.6294,4.6294,4.629,4.6278,4.6159,4.6112,4.6076,4.5896,4.5822,4.5778,4.5651,4.5612,4.5594,4.5594,4.5594,4.5594,4.5594,4.5614,4.5603,4.5603,4.5603,4.5603,4.5603,4.5614,4.5594,4.5594,4.5594,4.5594,4.5594,4.5594,4.5594,4.5594,4.5594,4.5594,4.5594,4.5594,4.5594,4.5594,4.5594,4.5594,4.5594,4.5594,4.5594,4.5594,4.5594,4.5594,4.5594,4.5594,4.5594,4.5594,4.5531,4.5531,4.5594,4.5594,4.5605,4.5577,4.5457,4.5419,4.541,4.5339,4.5317,4.5328,4.5359,4.5348,4.5307,4.5307,4.5307,4.5307,4.4109,4.4664,4.5148,4.5738,4.5919,4.6021,4.6173,4.6247,4.6302,4.6306,4.6265,4.6249,4.6201,4.6075,4.598,4.5923,4.5835,4.5841,4.5917,4.5904,4.5904,4.5904,4.5904,4.5886,4.5807,4.5807,4.5807,4.5807,4.5807,4.5807,4.5807,4.5807,4.5793,4.5798,4.588,4.5947,4.6013,4.6107,4.6189,4.6266,4.6297,4.6301,4.6301,4.6299,4.6297,4.6296,4.6293,4.6309,4.6306,4.6306,4.6249,4.6178,4.6128,4.6016,4.59,4.5822,4.5742,4.5676,4.5612,4.5594,4.5594,4.5594,4.5594,4.5594,4.5594,4.5594,4.5594,4.5594,4.5594,4.5594,4.5594,4.5594,4.5594,4.5594,4.5594,4.5594,4.5594,4.5594,4.5594,4.5594,4.5594,4.5594,4.5594,4.5594,4.5594,4.5594,4.5594,4.5594,4.5594,4.5594,4.5594,4.5594,4.5594,4.5594,4.5594,4.5568,4.5531,4.5531,4.5485,4.5485,4.5531,4.5504,4.5495,4.5486,4.5419,4.54,4.54,4.5338,4.5317,4.5367,4.5338,4.5328,4.5307,4.5307,4.5307,4.5307]}]]